[[{"header":{"parameterUnit":"m.s-1","parameterCategory":1,"la1":31.0,"la2":29.5877,"lo1":-88.7671,"lo2":-86.6584,"dy":0.0162,"dx":0.0185,"nx":115,"ny":88,"refTime":"2023-02-26T18:00:00:Z","depth":0,"parameterNumber":2,"parameterNumberName":"U-component_of_WINDS"},"data":[0.0,0.0,0.0,0.0,0.0,0.0,0.0,0.0,0.0,0.0,0.0,0.0,0.0,0.0,0.0,0.0,0.0,0.0,0.0,0.0,0.0,0.0,0.0,0.0,0.0,0.0,0.0,0.0,0.0,0.0,0.0,0.0,0.0,0.0,0.0,0.0,0.0,0.0,0.0,0.0,0.0,0.0,0.0,0.0,0.0,0.0,0.0,0.0,0.0,0.0,0.0,0.0,0.0,0.0,0.0,0.0,0.0,0.0,0.0,0.0,0.0,0.0,0.0,0.0,0.0,0.0,0.0,0.0,0.0,0.0,0.0,0.0,0.0,0.0,0.0,0.0,0.0,0.0,0.0,0.0,0.0,0.0,0.0,0.0,0.0,0.0,0.0,0.0,0.0,0.0,0.0,0.0,0.0,0.0,0.0,0.0,0.0,0.0,0.0,0.0,0.0,0.0,0.0,0.0,0.0,0.0,0.0,0.0,0.0,0.0,0.0,0.0,0.0,0.0,0.0,0.0,0.0,0.0,0.0,0.0,0.0,0.0,0.0,0.0,0.0,0.0,0.0,0.0,0.0,0.0,0.0,0.0,0.0,0.0,0.0,0.0,0.0,0.0,0.0,0.0,0.0,0.0,0.0,0.0,0.0,0.0,0.0,0.0,0.0,0.0,0.0,0.0,0.0,0.0,0.0,0.0,0.0,0.0,0.0,0.0,0.0,0.0,0.0,0.0,0.0,0.0,0.0,0.0,0.0,0.0,0.0,0.0,0.0,0.0,0.0,0.0,0.0,0.0,0.0,0.0,0.0,0.0,0.0,0.0,0.0,0.0,0.0,0.0,0.0,0.0,0.0,0.0,0.0,0.0,0.0,0.0,0.0,0.0,0.0,0.0,0.0,0.0,0.0,0.0,0.0,0.0,0.0,0.0,0.0,0.0,0.0,0.0,0.0,0.0,0.0,0.0,0.0,0.0,0.0,0.0,0.0,0.0,0.0,0.0,0.0,0.0,0.0,0.0,0.0,0.0,0.0,0.0,0.0,0.0,0.0,0.0,0.0,0.0,0.0,0.0,0.0,0.0,0.0,0.0,0.0,0.0,0.0,0.0,0.0,0.0,0.0,0.0,0.0,0.0,0.0,0.0,0.0,0.0,0.0,0.0,0.0,0.0,0.0,0.0,0.0,0.0,0.0,0.0,0.0,0.0,0.0,0.0,0.0,0.0,0.0,0.0,0.0,0.0,0.0,0.0,0.0,0.0,0.0,0.0,0.0,0.0,0.0,0.0,0.0,0.0,0.0,0.0,0.0,0.0,0.0,0.0,0.0,0.0,0.0,0.0,0.0,0.0,0.0,0.0,0.0,0.0,0.0,0.0,0.0,0.0,0.0,0.0,0.0,0.0,0.0,0.0,0.0,0.0,0.0,0.0,0.0,0.0,0.0,0.0,0.0,0.0,0.0,0.0,0.0,0.0,0.0,0.0,0.0,0.0,0.0,0.0,0.0,0.0,0.0,0.0,0.0,0.0,0.0,0.0,0.0,0.0,0.0,0.0,0.0,0.0,0.0,0.0,0.0,0.0,0.0,0.0,0.0,0.0,0.0,0.0,0.0,0.0,0.0,0.0,0.0,0.0,0.0,0.0,0.0,0.0,0.0,0.0,0.0,0.0,0.0,0.0,0.0,0.0,0.0,0.0,0.0,0.0,0.0,0.0,0.0,0.0,0.0,0.0,0.0,0.0,0.0,0.0,0.0,0.0,0.0,0.0,0.0,0.0,0.0,0.0,0.0,0.0,0.0,0.0,0.0,0.0,0.0,0.0,0.0,0.0,0.0,0.0,0.0,0.0,0.0,0.0,0.0,0.0,0.0,0.0,0.0,0.0,0.0,0.0,0.0,0.0,0.0,0.0,0.0,0.0,0.0,0.0,0.0,0.0,0.0,0.0,0.0,0.0,0.0,0.0,0.0,0.0,0.0,0.0,0.0,0.0,0.0,0.0,0.0,0.0,0.0,0.0,0.0,0.0,0.0,0.0,0.0,0.0,0.0,0.0,0.0,0.0,0.0,0.0,0.0,0.0,0.0,0.0,0.0,0.0,0.0,0.0,0.0,0.0,0.0,0.0,0.0,0.0,0.0,0.0,0.0,0.0,0.0,0.0,0.0,0.0,0.0,0.0,0.0,0.0,0.0,0.0,0.0,0.0,0.0,0.0,0.0,0.0,0.0,0.0,0.0,0.0,0.0,0.0,0.0,0.0,0.0,0.0,0.0,0.0,0.0,0.0,0.0,0.0,0.0,0.0,0.0,0.0,0.0,0.0,0.0,0.0,0.0,0.0,0.0,0.0,0.0,0.0,0.0,0.0,0.0,0.0,0.0,0.0,0.0,0.0,0.0,0.0,0.0,0.0,0.0,0.0,0.0,0.0,0.0,0.0,0.0,0.0,0.0,0.0,0.0,0.0,0.0,0.0,0.0,0.0,0.0,0.0,0.0,0.0,0.0,0.0,0.0,0.0,0.0,0.0,0.0,0.0,0.0,0.0,0.0,0.0,0.0,0.0,0.0,0.0,0.0,0.0,0.0,0.0,0.0,0.0,0.0,0.0,0.0,0.0,0.0,0.0,0.0,0.0,0.0,0.0,0.0,0.0,0.0,0.0,0.0,0.0,0.0,0.0,0.0,0.0,0.0,0.0,0.0,0.0,0.0,0.0,0.0,0.0,0.0,0.0,0.0,0.0,0.0,0.0,0.0,0.0,0.0,0.0,0.0,0.0,0.0,0.0,0.0,0.0,0.0,0.0,0.0,0.0,0.0,0.0,0.0,0.0,0.0,0.0,0.0,0.0,0.0,0.0,0.0,0.0,0.0,0.0,0.0,0.0,0.0,0.0,0.0,0.0,0.0,0.0,0.0,0.0,0.0,0.0,0.0,0.0,0.0,0.0,0.0,0.0,0.0,0.0,0.0,0.0,0.0,0.0,0.0,0.0,0.0,0.0,0.0,0.0,0.0,0.0,0.0,0.0,0.0,0.0,0.0,0.0,0.0,0.0,0.0,0.0,0.0,0.0,0.0,0.0,0.0,0.0,0.0,0.0,0.0,0.0,0.0,0.0,0.0,0.0,0.0,0.0,0.0,0.0,0.0,0.0,0.0,0.0,0.0,0.0,0.0,0.0,0.0,0.0,0.0,0.0,0.0,0.0,0.0,0.0,0.0,0.0,0.0,0.0,0.0,0.0,0.0,0.0,0.0,0.0,0.0,0.0,0.0,0.0,0.0,0.0,0.0,0.0,0.0,0.0,0.0,0.0,0.0,0.0,0.0,0.0,0.0,0.0,0.0,0.0,0.0,0.0,0.0,0.0,0.0,0.0,0.0,0.0,0.0,0.0,0.0,0.0,0.0,0.0,0.0,0.0,0.0,0.0,0.0,0.0,0.0,0.0,0.0,0.0,0.0,0.0,0.0,0.0,0.0,0.0,0.0,0.0,0.0,0.0,0.0,0.0,0.0,0.0,0.0,0.0,0.0,0.0,0.0,0.0,0.0,0.0,0.0,0.0,0.0,0.0,0.0,0.0,0.0,0.0,0.0,0.0,0.0,0.0,0.0,0.0,0.0,0.0,0.0,0.0,0.0,0.0,0.0,0.0,0.0,0.0,0.0,0.0,0.0,0.0,0.0,0.0,0.0,0.0,0.0,0.0,0.0,0.0,0.0,0.0,0.0,0.0,0.0,0.0,0.0,0.0,0.0,0.0,0.0,0.0,0.0,0.0,0.0,0.0,0.0,0.0,0.0,0.0,0.0,0.0,0.0,0.0,0.0,0.0,0.0,0.0,0.0,0.0,0.0,0.0,0.0,0.0,0.0,0.0,0.0,0.0,0.0,0.0,0.0,0.0,0.0,0.0,0.0,0.0,0.0,0.0,0.0,0.0,0.0,0.0,0.0,0.0,0.0,0.0,0.0,0.0,0.0,0.0,0.0,0.0,0.0,0.0,0.0,0.0,0.0,0.0,0.0,0.0,0.0,0.0,0.0,0.0,0.0,0.0,0.0,0.0,0.0,0.0,0.0,0.0,0.0,0.0,0.0,0.0,0.0,0.0,0.0,0.0,0.0,0.0,0.0,0.0,0.0,0.0,0.0,0.0,0.0,0.0,0.0,0.0,0.0,0.0,0.0,0.0,0.0,0.0,0.0,0.0,0.0,0.0,0.0,0.0,0.0,0.0,0.0,0.0,0.0,0.0,0.0,0.0,0.0,0.0,0.0,0.0,0.0,0.0,0.0,0.0,0.0,0.0,0.0,0.0,-3.8692,0.0,0.0,0.0,0.0,0.0,0.0,0.0,0.0,0.0,0.0,0.0,0.0,0.0,0.0,0.0,0.0,0.0,0.0,0.0,0.0,0.0,0.0,0.0,0.0,0.0,0.0,0.0,0.0,0.0,0.0,0.0,0.0,0.0,0.0,0.0,0.0,0.0,0.0,0.0,0.0,0.0,0.0,0.0,0.0,0.0,0.0,0.0,0.0,0.0,0.0,0.0,0.0,0.0,0.0,0.0,0.0,0.0,0.0,0.0,0.0,0.0,0.0,0.0,0.0,0.0,0.0,0.0,0.0,0.0,0.0,0.0,0.0,0.0,0.0,0.0,0.0,0.0,0.0,0.0,0.0,0.0,0.0,0.0,0.0,0.0,0.0,0.0,0.0,0.0,0.0,0.0,0.0,0.0,0.0,0.0,0.0,0.0,0.0,0.0,0.0,0.0,0.0,0.0,0.0,0.0,0.0,0.0,0.0,0.0,0.0,-3.8494,-3.8609,-3.8609,-3.8643,-3.8707,0.0,0.0,0.0,0.0,0.0,0.0,0.0,0.0,0.0,0.0,0.0,0.0,0.0,0.0,0.0,0.0,0.0,0.0,0.0,0.0,0.0,0.0,0.0,0.0,0.0,0.0,0.0,0.0,0.0,0.0,0.0,0.0,0.0,0.0,0.0,0.0,0.0,0.0,0.0,0.0,0.0,0.0,0.0,0.0,0.0,0.0,0.0,0.0,0.0,0.0,0.0,0.0,0.0,0.0,0.0,0.0,0.0,0.0,0.0,0.0,0.0,0.0,0.0,0.0,0.0,0.0,0.0,0.0,0.0,0.0,0.0,0.0,0.0,0.0,0.0,0.0,0.0,0.0,0.0,0.0,0.0,0.0,0.0,0.0,0.0,0.0,0.0,0.0,0.0,0.0,0.0,0.0,0.0,0.0,0.0,0.0,0.0,0.0,0.0,0.0,0.0,0.0,0.0,0.0,0.0,0.0,0.0,0.0,0.0,0.0,0.0,0.0,-3.8707,-3.8673,-3.8658,0.0,0.0,0.0,0.0,0.0,0.0,0.0,0.0,0.0,0.0,0.0,0.0,0.0,0.0,0.0,0.0,0.0,0.0,0.0,0.0,0.0,0.0,0.0,0.0,0.0,0.0,0.0,0.0,0.0,0.0,0.0,0.0,0.0,0.0,0.0,0.0,0.0,0.0,0.0,0.0,0.0,0.0,0.0,0.0,0.0,0.0,0.0,0.0,0.0,0.0,0.0,0.0,0.0,0.0,0.0,0.0,0.0,0.0,0.0,0.0,0.0,0.0,0.0,0.0,0.0,0.0,0.0,0.0,0.0,0.0,0.0,0.0,0.0,0.0,0.0,0.0,0.0,0.0,0.0,0.0,0.0,0.0,0.0,0.0,0.0,0.0,0.0,0.0,0.0,0.0,0.0,0.0,0.0,0.0,0.0,0.0,0.0,0.0,0.0,0.0,0.0,0.0,0.0,0.0,0.0,0.0,0.0,0.0,0.0,0.0,-3.8692,-3.8707,-3.8707,0.0,-3.8525,0.0,0.0,0.0,0.0,0.0,0.0,0.0,0.0,0.0,0.0,0.0,0.0,0.0,0.0,0.0,0.0,0.0,0.0,0.0,0.0,0.0,0.0,0.0,0.0,0.0,0.0,0.0,0.0,0.0,0.0,0.0,0.0,0.0,0.0,0.0,0.0,0.0,0.0,0.0,0.0,0.0,0.0,0.0,0.0,0.0,0.0,0.0,0.0,0.0,0.0,0.0,0.0,0.0,0.0,0.0,0.0,0.0,0.0,0.0,0.0,0.0,0.0,0.0,0.0,0.0,0.0,0.0,0.0,0.0,0.0,0.0,0.0,0.0,0.0,0.0,0.0,0.0,0.0,0.0,0.0,0.0,0.0,0.0,0.0,0.0,0.0,0.0,0.0,0.0,0.0,0.0,0.0,0.0,0.0,0.0,0.0,0.0,0.0,0.0,0.0,0.0,0.0,0.0,0.0,0.0,0.0,0.0,0.0,0.0,0.0,-3.8707,-3.8707,-3.8707,-3.8643,0.0,0.0,0.0,0.0,0.0,0.0,0.0,0.0,0.0,0.0,0.0,0.0,0.0,0.0,0.0,0.0,0.0,0.0,0.0,0.0,0.0,0.0,0.0,0.0,0.0,0.0,0.0,0.0,0.0,0.0,0.0,0.0,0.0,0.0,0.0,0.0,0.0,0.0,0.0,0.0,0.0,0.0,0.0,0.0,0.0,0.0,0.0,0.0,0.0,0.0,0.0,0.0,0.0,0.0,0.0,0.0,0.0,0.0,0.0,0.0,0.0,0.0,0.0,0.0,0.0,0.0,0.0,0.0,0.0,0.0,0.0,0.0,0.0,0.0,0.0,0.0,0.0,0.0,0.0,0.0,0.0,0.0,0.0,0.0,0.0,0.0,0.0,0.0,0.0,0.0,0.0,0.0,0.0,0.0,0.0,0.0,0.0,0.0,0.0,0.0,0.0,0.0,0.0,0.0,0.0,0.0,0.0,0.0,0.0,0.0,-3.8593,-3.8658,-3.8707,-3.8707,-3.8643,-3.851,0.0,0.0,0.0,0.0,0.0,0.0,0.0,0.0,0.0,0.0,0.0,0.0,0.0,0.0,0.0,0.0,0.0,0.0,0.0,0.0,0.0,0.0,0.0,0.0,0.0,0.0,0.0,0.0,0.0,0.0,0.0,0.0,0.0,0.0,0.0,0.0,0.0,0.0,0.0,0.0,0.0,0.0,0.0,0.0,0.0,0.0,0.0,0.0,0.0,0.0,0.0,0.0,0.0,0.0,0.0,0.0,0.0,0.0,0.0,0.0,0.0,0.0,0.0,0.0,0.0,0.0,0.0,0.0,0.0,0.0,0.0,0.0,0.0,0.0,0.0,0.0,0.0,0.0,0.0,0.0,0.0,0.0,0.0,0.0,0.0,0.0,0.0,0.0,0.0,0.0,0.0,0.0,0.0,0.0,0.0,0.0,0.0,0.0,0.0,0.0,0.0,0.0,0.0,0.0,0.0,0.0,0.0,0.0,-3.8399,-3.8478,-3.8575,-3.8692,-3.8707,-3.8624,0.0,0.0,0.0,0.0,0.0,0.0,0.0,0.0,0.0,0.0,0.0,0.0,0.0,0.0,0.0,0.0,0.0,0.0,0.0,0.0,0.0,0.0,0.0,0.0,0.0,0.0,0.0,0.0,0.0,0.0,0.0,0.0,0.0,0.0,0.0,0.0,0.0,0.0,0.0,0.0,0.0,0.0,0.0,0.0,0.0,0.0,0.0,0.0,0.0,0.0,0.0,0.0,0.0,0.0,0.0,0.0,0.0,0.0,0.0,0.0,0.0,0.0,0.0,0.0,0.0,0.0,0.0,0.0,0.0,0.0,0.0,0.0,0.0,0.0,0.0,0.0,0.0,0.0,0.0,0.0,0.0,0.0,0.0,0.0,0.0,0.0,0.0,0.0,0.0,0.0,0.0,0.0,0.0,0.0,0.0,0.0,0.0,0.0,0.0,0.0,0.0,0.0,0.0,0.0,0.0,0.0,0.0,0.0,0.0,-3.8399,-3.8544,-3.8658,-3.8707,-3.8707,-3.8673,0.0,0.0,0.0,0.0,0.0,0.0,0.0,0.0,0.0,0.0,0.0,0.0,0.0,0.0,0.0,0.0,0.0,0.0,0.0,0.0,0.0,0.0,0.0,0.0,0.0,0.0,0.0,0.0,0.0,0.0,0.0,0.0,0.0,0.0,0.0,0.0,0.0,0.0,0.0,0.0,0.0,0.0,0.0,0.0,0.0,0.0,0.0,0.0,0.0,0.0,0.0,0.0,0.0,0.0,0.0,0.0,0.0,0.0,0.0,0.0,0.0,0.0,0.0,0.0,0.0,0.0,0.0,0.0,0.0,0.0,0.0,0.0,0.0,0.0,0.0,0.0,0.0,0.0,0.0,0.0,0.0,0.0,0.0,0.0,0.0,0.0,0.0,0.0,0.0,0.0,0.0,0.0,0.0,0.0,0.0,0.0,0.0,0.0,0.0,0.0,0.0,0.0,0.0,0.0,0.0,0.0,0.0,0.0,0.0,-3.8832,0.0,-3.9221,-3.9444,-3.9221,-3.9077,0.0,0.0,0.0,0.0,0.0,0.0,0.0,0.0,0.0,0.0,0.0,0.0,0.0,0.0,0.0,0.0,0.0,0.0,0.0,0.0,0.0,0.0,0.0,0.0,0.0,0.0,0.0,0.0,0.0,0.0,0.0,0.0,0.0,0.0,0.0,0.0,0.0,0.0,0.0,0.0,0.0,0.0,0.0,0.0,0.0,0.0,0.0,0.0,0.0,0.0,0.0,0.0,0.0,0.0,0.0,0.0,0.0,0.0,0.0,0.0,0.0,0.0,0.0,0.0,0.0,0.0,0.0,0.0,0.0,0.0,0.0,0.0,0.0,0.0,0.0,0.0,0.0,0.0,0.0,0.0,0.0,0.0,0.0,0.0,0.0,0.0,0.0,0.0,0.0,0.0,0.0,0.0,0.0,0.0,0.0,0.0,0.0,0.0,0.0,0.0,0.0,0.0,0.0,0.0,0.0,0.0,0.0,0.0,-3.8844,-3.9719,-3.9871,-4.0286,-4.1022,-4.0322,-3.9905,0.0,0.0,0.0,0.0,0.0,0.0,0.0,0.0,0.0,0.0,0.0,0.0,0.0,0.0,0.0,0.0,0.0,0.0,0.0,0.0,0.0,0.0,0.0,0.0,0.0,0.0,0.0,0.0,0.0,0.0,0.0,0.0,0.0,0.0,0.0,0.0,0.0,0.0,0.0,0.0,0.0,0.0,0.0,0.0,0.0,0.0,0.0,0.0,0.0,0.0,0.0,0.0,0.0,0.0,0.0,0.0,0.0,0.0,0.0,0.0,0.0,0.0,0.0,0.0,0.0,0.0,0.0,0.0,0.0,0.0,0.0,0.0,0.0,0.0,0.0,0.0,0.0,0.0,0.0,0.0,0.0,0.0,0.0,0.0,0.0,0.0,0.0,0.0,0.0,0.0,0.0,0.0,0.0,0.0,0.0,0.0,0.0,0.0,0.0,0.0,0.0,0.0,0.0,0.0,0.0,0.0,0.0,0.0,0.0,-3.9923,-4.0967,-4.1423,-4.1113,-4.1357,-4.1196,0.0,0.0,0.0,0.0,0.0,0.0,0.0,0.0,0.0,0.0,0.0,0.0,0.0,0.0,0.0,0.0,0.0,0.0,0.0,0.0,0.0,0.0,0.0,0.0,0.0,0.0,0.0,0.0,0.0,0.0,0.0,0.0,0.0,0.0,0.0,0.0,0.0,0.0,0.0,0.0,0.0,0.0,0.0,0.0,0.0,0.0,0.0,0.0,0.0,0.0,0.0,0.0,0.0,0.0,0.0,0.0,0.0,0.0,0.0,0.0,0.0,0.0,0.0,0.0,0.0,0.0,0.0,0.0,0.0,0.0,0.0,0.0,0.0,0.0,0.0,0.0,0.0,0.0,0.0,0.0,0.0,0.0,0.0,0.0,0.0,0.0,0.0,0.0,0.0,0.0,0.0,0.0,0.0,0.0,0.0,0.0,0.0,0.0,0.0,0.0,0.0,0.0,0.0,0.0,0.0,0.0,0.0,0.0,0.0,-4.2112,-4.363,-4.4363,-4.4108,-4.3706,-4.3049,-4.2174,0.0,0.0,0.0,0.0,0.0,0.0,0.0,0.0,0.0,0.0,0.0,0.0,0.0,0.0,0.0,0.0,0.0,0.0,0.0,0.0,0.0,0.0,0.0,0.0,0.0,0.0,0.0,0.0,0.0,0.0,0.0,0.0,0.0,0.0,0.0,0.0,0.0,0.0,0.0,0.0,0.0,0.0,0.0,0.0,0.0,0.0,0.0,0.0,0.0,0.0,0.0,0.0,0.0,0.0,0.0,0.0,0.0,0.0,0.0,0.0,0.0,0.0,0.0,0.0,0.0,0.0,0.0,0.0,0.0,0.0,0.0,0.0,0.0,0.0,0.0,0.0,0.0,0.0,0.0,0.0,0.0,0.0,0.0,0.0,0.0,0.0,0.0,0.0,0.0,0.0,0.0,0.0,0.0,0.0,0.0,0.0,0.0,0.0,0.0,0.0,0.0,0.0,0.0,0.0,0.0,0.0,0.0,0.0,-4.5911,-4.7705,-4.8782,-4.9065,-4.6986,-4.5381,0.0,0.0,0.0,0.0,0.0,0.0,0.0,0.0,0.0,0.0,0.0,0.0,0.0,0.0,0.0,0.0,0.0,0.0,0.0,0.0,0.0,0.0,0.0,0.0,0.0,0.0,0.0,0.0,0.0,0.0,0.0,0.0,0.0,0.0,0.0,0.0,0.0,0.0,0.0,0.0,0.0,0.0,0.0,0.0,0.0,0.0,0.0,0.0,0.0,0.0,0.0,0.0,0.0,0.0,0.0,0.0,0.0,0.0,0.0,0.0,0.0,0.0,0.0,0.0,0.0,0.0,0.0,0.0,0.0,0.0,0.0,0.0,0.0,0.0,0.0,0.0,0.0,0.0,0.0,0.0,0.0,0.0,0.0,0.0,0.0,0.0,0.0,0.0,0.0,0.0,0.0,0.0,0.0,0.0,0.0,0.0,0.0,0.0,0.0,0.0,0.0,0.0,0.0,0.0,0.0,0.0,0.0,0.0,0.0,-4.9904,-5.3217,-5.3131,-4.9391,-4.9073,-4.7754,0.0,0.0,0.0,0.0,0.0,0.0,0.0,0.0,0.0,0.0,0.0,0.0,0.0,0.0,0.0,0.0,0.0,0.0,0.0,0.0,0.0,0.0,0.0,0.0,0.0,0.0,0.0,0.0,0.0,0.0,0.0,0.0,0.0,0.0,0.0,0.0,0.0,0.0,0.0,0.0,0.0,0.0,0.0,0.0,0.0,0.0,0.0,0.0,0.0,0.0,0.0,0.0,0.0,0.0,0.0,0.0,0.0,0.0,0.0,0.0,0.0,0.0,0.0,0.0,0.0,0.0,0.0,0.0,0.0,0.0,0.0,0.0,0.0,0.0,0.0,0.0,0.0,0.0,0.0,0.0,0.0,0.0,0.0,0.0,0.0,0.0,0.0,0.0,0.0,0.0,0.0,0.0,0.0,0.0,0.0,0.0,0.0,0.0,0.0,0.0,0.0,0.0,0.0,0.0,0.0,0.0,0.0,0.0,-4.9328,-5.1379,-5.5583,-5.6134,-5.2645,-5.1933,-5.0375,0.0,0.0,0.0,0.0,0.0,0.0,0.0,0.0,0.0,0.0,0.0,0.0,0.0,0.0,0.0,0.0,0.0,0.0,0.0,0.0,0.0,0.0,0.0,0.0,0.0,0.0,0.0,0.0,0.0,0.0,0.0,0.0,0.0,0.0,0.0,0.0,0.0,0.0,0.0,0.0,0.0,0.0,0.0,0.0,0.0,0.0,0.0,0.0,0.0,0.0,0.0,0.0,0.0,0.0,0.0,0.0,0.0,0.0,0.0,0.0,0.0,0.0,0.0,0.0,0.0,0.0,0.0,0.0,0.0,0.0,0.0,0.0,0.0,0.0,0.0,0.0,0.0,0.0,0.0,0.0,0.0,0.0,0.0,0.0,0.0,0.0,0.0,0.0,0.0,0.0,0.0,0.0,0.0,0.0,0.0,0.0,0.0,0.0,0.0,0.0,0.0,0.0,0.0,0.0,0.0,0.0,0.0,0.0,-4.9854,-5.1556,-5.6029,-5.8058,-5.7297,-5.4983,-5.2822,0.0,0.0,0.0,0.0,0.0,0.0,0.0,0.0,0.0,0.0,0.0,0.0,0.0,0.0,0.0,0.0,0.0,0.0,0.0,0.0,0.0,0.0,0.0,0.0,0.0,0.0,0.0,0.0,0.0,0.0,0.0,0.0,0.0,0.0,0.0,0.0,0.0,0.0,0.0,0.0,0.0,0.0,0.0,0.0,0.0,0.0,0.0,0.0,0.0,0.0,0.0,0.0,0.0,0.0,0.0,0.0,0.0,0.0,0.0,0.0,0.0,0.0,0.0,0.0,0.0,0.0,0.0,0.0,0.0,0.0,0.0,0.0,0.0,0.0,0.0,0.0,0.0,0.0,0.0,0.0,0.0,0.0,0.0,0.0,0.0,0.0,0.0,0.0,0.0,0.0,0.0,0.0,0.0,0.0,0.0,0.0,0.0,0.0,0.0,0.0,0.0,0.0,0.0,0.0,0.0,0.0,0.0,0.0,-5.0923,-5.3168,-5.6591,-5.8311,-5.813,-5.6209,-5.3713,0.0,0.0,0.0,0.0,0.0,0.0,0.0,0.0,0.0,0.0,0.0,0.0,0.0,0.0,0.0,0.0,0.0,0.0,0.0,0.0,0.0,0.0,0.0,0.0,0.0,0.0,0.0,0.0,0.0,0.0,0.0,0.0,0.0,0.0,0.0,0.0,0.0,0.0,0.0,0.0,0.0,0.0,0.0,0.0,0.0,0.0,0.0,0.0,-3.854,0.0,0.0,0.0,0.0,0.0,0.0,0.0,0.0,0.0,0.0,0.0,0.0,0.0,0.0,0.0,0.0,0.0,0.0,0.0,0.0,0.0,0.0,0.0,0.0,0.0,0.0,0.0,0.0,0.0,0.0,0.0,0.0,0.0,0.0,0.0,0.0,0.0,0.0,0.0,0.0,0.0,0.0,0.0,0.0,0.0,0.0,0.0,0.0,0.0,0.0,0.0,0.0,0.0,0.0,0.0,0.0,0.0,0.0,0.0,-5.0823,-5.3657,-5.614,-5.7594,-5.7882,-5.5882,-5.3709,0.0,0.0,0.0,0.0,0.0,0.0,0.0,0.0,0.0,0.0,0.0,0.0,0.0,0.0,0.0,0.0,0.0,0.0,0.0,0.0,0.0,0.0,0.0,0.0,0.0,0.0,0.0,0.0,0.0,0.0,0.0,0.0,0.0,0.0,0.0,0.0,0.0,0.0,0.0,0.0,0.0,0.0,0.0,0.0,0.0,0.0,0.0,0.0,0.0,0.0,0.0,0.0,0.0,0.0,0.0,0.0,0.0,0.0,0.0,0.0,0.0,0.0,0.0,0.0,0.0,0.0,0.0,0.0,0.0,0.0,0.0,0.0,0.0,0.0,0.0,0.0,0.0,0.0,0.0,0.0,0.0,0.0,0.0,0.0,0.0,0.0,0.0,0.0,0.0,0.0,0.0,0.0,0.0,0.0,0.0,0.0,0.0,0.0,0.0,0.0,0.0,0.0,0.0,0.0,0.0,0.0,0.0,-4.7839,-5.0172,-5.3442,-5.5124,-5.6298,-5.6932,-5.4741,-5.313,-5.2094,0.0,0.0,0.0,0.0,0.0,0.0,0.0,0.0,0.0,0.0,0.0,0.0,0.0,0.0,0.0,0.0,0.0,0.0,0.0,0.0,0.0,0.0,0.0,0.0,0.0,0.0,0.0,0.0,0.0,0.0,0.0,0.0,0.0,0.0,0.0,0.0,0.0,0.0,-3.6753,-3.7352,0.0,0.0,0.0,0.0,0.0,0.0,0.0,0.0,-3.9615,0.0,0.0,0.0,0.0,0.0,0.0,0.0,0.0,0.0,0.0,0.0,0.0,0.0,0.0,0.0,0.0,0.0,0.0,0.0,0.0,0.0,0.0,0.0,0.0,0.0,0.0,0.0,0.0,0.0,0.0,0.0,0.0,0.0,0.0,0.0,0.0,0.0,0.0,0.0,0.0,0.0,0.0,0.0,0.0,0.0,0.0,0.0,0.0,0.0,0.0,0.0,0.0,0.0,0.0,0.0,0.0,-4.7169,-4.7658,-4.9517,-5.287,-5.3989,-5.4609,-5.4686,-5.3281,-5.1822,-5.0448,0.0,0.0,0.0,0.0,0.0,0.0,0.0,0.0,0.0,0.0,0.0,0.0,0.0,0.0,0.0,0.0,0.0,0.0,0.0,0.0,0.0,0.0,0.0,0.0,0.0,0.0,0.0,0.0,0.0,0.0,0.0,0.0,0.0,0.0,0.0,0.0,0.0,0.0,0.0,-3.8504,-3.8715,0.0,0.0,0.0,0.0,0.0,0.0,0.0,0.0,-4.1102,0.0,0.0,0.0,0.0,0.0,0.0,0.0,0.0,0.0,0.0,0.0,0.0,0.0,0.0,0.0,0.0,0.0,0.0,0.0,0.0,0.0,0.0,0.0,0.0,0.0,0.0,0.0,0.0,0.0,0.0,0.0,0.0,0.0,0.0,0.0,0.0,0.0,0.0,0.0,0.0,0.0,0.0,0.0,0.0,0.0,0.0,0.0,0.0,0.0,0.0,0.0,0.0,0.0,0.0,0.0,-4.5414,-4.6035,-4.8045,-5.1617,-5.2295,-5.2671,-5.2959,-5.1791,-5.0345,0.0,0.0,0.0,0.0,0.0,0.0,0.0,0.0,0.0,0.0,0.0,0.0,0.0,0.0,0.0,0.0,0.0,0.0,0.0,0.0,0.0,0.0,0.0,0.0,0.0,0.0,0.0,0.0,0.0,0.0,0.0,0.0,0.0,0.0,0.0,0.0,0.0,0.0,0.0,0.0,-3.969,-4.001,-3.9375,0.0,0.0,0.0,0.0,0.0,0.0,-4.072,-4.129,0.0,0.0,0.0,0.0,0.0,0.0,0.0,0.0,0.0,0.0,0.0,0.0,0.0,0.0,0.0,0.0,0.0,0.0,0.0,0.0,0.0,0.0,0.0,0.0,0.0,0.0,0.0,0.0,0.0,0.0,0.0,0.0,0.0,0.0,0.0,0.0,0.0,0.0,0.0,0.0,0.0,0.0,0.0,0.0,0.0,0.0,0.0,0.0,0.0,0.0,0.0,0.0,0.0,0.0,0.0,-4.3758,-4.4408,-4.6366,-4.9757,-5.0351,-5.0712,-5.1032,-5.0272,-4.8993,0.0,0.0,0.0,0.0,0.0,0.0,0.0,0.0,0.0,0.0,0.0,0.0,0.0,0.0,0.0,0.0,0.0,0.0,0.0,0.0,0.0,0.0,0.0,0.0,0.0,0.0,0.0,0.0,0.0,0.0,0.0,0.0,0.0,0.0,0.0,0.0,0.0,0.0,0.0,0.0,0.0,-4.128,-4.068,-4.114,0.0,0.0,0.0,0.0,-4.0973,-4.1587,0.0,0.0,0.0,0.0,0.0,0.0,0.0,0.0,0.0,0.0,0.0,0.0,0.0,0.0,0.0,0.0,0.0,0.0,0.0,0.0,0.0,0.0,0.0,0.0,0.0,0.0,0.0,0.0,0.0,0.0,0.0,0.0,0.0,0.0,0.0,0.0,0.0,0.0,0.0,0.0,0.0,0.0,0.0,0.0,0.0,0.0,0.0,0.0,0.0,0.0,0.0,0.0,0.0,0.0,0.0,0.0,-4.3528,-4.3829,-4.4955,-4.6928,-4.835,-4.8773,-4.8216,-4.8695,-4.7908,0.0,0.0,0.0,0.0,0.0,0.0,0.0,0.0,0.0,0.0,0.0,0.0,0.0,0.0,0.0,0.0,0.0,0.0,0.0,0.0,0.0,0.0,0.0,0.0,0.0,0.0,0.0,0.0,0.0,0.0,0.0,0.0,0.0,0.0,0.0,0.0,0.0,0.0,0.0,0.0,0.0,-4.2387,-4.1588,-4.2176,-4.2112,0.0,0.0,-4.1544,-4.1088,-4.3287,0.0,0.0,0.0,0.0,0.0,0.0,0.0,0.0,0.0,0.0,0.0,0.0,0.0,0.0,0.0,0.0,0.0,0.0,0.0,0.0,0.0,0.0,0.0,0.0,0.0,0.0,0.0,0.0,0.0,0.0,0.0,0.0,0.0,0.0,0.0,0.0,0.0,0.0,0.0,0.0,0.0,0.0,0.0,0.0,0.0,0.0,0.0,0.0,0.0,0.0,0.0,0.0,0.0,0.0,0.0,-3.9365,-4.1085,-4.2227,-4.3668,-4.5384,-4.7179,-4.7746,-4.6915,-4.7681,-4.7039,0.0,0.0,0.0,0.0,0.0,0.0,0.0,0.0,0.0,0.0,0.0,0.0,0.0,0.0,0.0,0.0,0.0,0.0,0.0,0.0,0.0,0.0,0.0,0.0,0.0,0.0,0.0,0.0,0.0,0.0,0.0,0.0,0.0,0.0,0.0,0.0,0.0,0.0,0.0,0.0,0.0,0.0,-4.161,-4.2636,0.0,0.0,0.0,-4.3069,-4.3244,0.0,0.0,0.0,0.0,0.0,0.0,0.0,0.0,0.0,0.0,0.0,0.0,0.0,0.0,0.0,0.0,0.0,0.0,0.0,0.0,0.0,0.0,0.0,0.0,0.0,0.0,0.0,0.0,0.0,0.0,0.0,0.0,0.0,0.0,0.0,0.0,0.0,0.0,0.0,0.0,0.0,0.0,0.0,0.0,0.0,0.0,0.0,0.0,0.0,0.0,0.0,0.0,0.0,0.0,0.0,0.0,0.0,-3.912,-4.0728,-4.2328,-4.39,-4.5698,-4.6368,-4.5741,-4.6351,0.0,0.0,0.0,0.0,0.0,0.0,0.0,0.0,0.0,0.0,0.0,0.0,0.0,0.0,0.0,0.0,0.0,0.0,0.0,0.0,0.0,0.0,0.0,0.0,0.0,0.0,0.0,-3.5761,0.0,0.0,0.0,0.0,0.0,0.0,0.0,0.0,0.0,0.0,0.0,0.0,0.0,0.0,-4.2531,-4.176,-4.3042,-4.3879,0.0,0.0,-4.4167,-4.4364,-4.3533,-4.3178,0.0,0.0,0.0,0.0,0.0,0.0,0.0,0.0,0.0,0.0,0.0,0.0,0.0,0.0,0.0,0.0,0.0,0.0,0.0,0.0,0.0,0.0,0.0,0.0,0.0,0.0,0.0,0.0,0.0,0.0,0.0,0.0,0.0,0.0,0.0,0.0,0.0,0.0,0.0,0.0,0.0,0.0,0.0,0.0,0.0,0.0,0.0,0.0,0.0,0.0,0.0,0.0,0.0,0.0,-3.7698,-3.8815,-3.9631,-4.074,-4.2065,-4.3447,-4.4127,-4.4047,-4.4127,-4.3501,0.0,0.0,0.0,0.0,0.0,0.0,0.0,0.0,0.0,0.0,0.0,0.0,0.0,0.0,0.0,0.0,0.0,0.0,0.0,0.0,0.0,0.0,0.0,0.0,0.0,0.0,0.0,0.0,0.0,0.0,0.0,0.0,0.0,0.0,0.0,0.0,0.0,0.0,0.0,0.0,0.0,-4.2543,-4.2374,-4.3602,-4.4323,0.0,-4.4142,-4.4157,-4.3051,-4.4629,-4.5113,-4.2607,0.0,0.0,0.0,0.0,0.0,0.0,0.0,0.0,0.0,0.0,0.0,0.0,0.0,0.0,0.0,0.0,0.0,0.0,0.0,0.0,0.0,0.0,0.0,0.0,0.0,0.0,0.0,0.0,0.0,0.0,0.0,0.0,0.0,0.0,0.0,0.0,0.0,0.0,0.0,0.0,0.0,0.0,0.0,0.0,0.0,0.0,0.0,0.0,0.0,0.0,0.0,0.0,0.0,-3.7269,-3.8117,-3.9117,-4.0361,-4.186,-4.3218,-4.3698,-4.3231,-4.3648,-4.3027,0.0,0.0,0.0,0.0,0.0,0.0,0.0,0.0,0.0,0.0,0.0,0.0,0.0,0.0,0.0,0.0,0.0,0.0,0.0,0.0,0.0,0.0,0.0,0.0,0.0,0.0,0.0,0.0,-3.4174,-3.3953,-3.4316,0.0,0.0,0.0,0.0,0.0,0.0,0.0,0.0,0.0,0.0,-4.1355,-4.1197,-4.2475,0.0,0.0,-4.3283,-4.3307,-4.2962,-4.3178,-4.3283,-4.2803,-4.1524,0.0,0.0,0.0,0.0,0.0,0.0,0.0,0.0,0.0,0.0,0.0,0.0,0.0,0.0,0.0,0.0,0.0,0.0,0.0,0.0,0.0,0.0,0.0,0.0,0.0,0.0,0.0,0.0,0.0,0.0,0.0,0.0,0.0,0.0,0.0,0.0,0.0,0.0,0.0,0.0,0.0,0.0,0.0,0.0,0.0,0.0,0.0,0.0,0.0,0.0,0.0,0.0,-3.678,-3.7623,-3.8421,-3.9694,-4.1399,-4.2382,-4.2708,-4.2409,-4.2691,-4.2154,0.0,0.0,0.0,0.0,0.0,0.0,0.0,0.0,0.0,0.0,0.0,0.0,0.0,0.0,0.0,0.0,0.0,0.0,0.0,0.0,0.0,0.0,0.0,0.0,0.0,0.0,0.0,0.0,-3.4159,-3.4006,-3.4056,0.0,0.0,0.0,0.0,0.0,0.0,0.0,0.0,0.0,0.0,-4.0019,-4.0192,-4.1295,-4.2206,-4.2425,-4.2455,-4.2508,-4.2584,-4.2115,-4.1813,-4.2097,0.0,0.0,0.0,0.0,0.0,0.0,0.0,0.0,0.0,0.0,0.0,0.0,0.0,0.0,0.0,0.0,0.0,0.0,0.0,0.0,0.0,0.0,0.0,0.0,0.0,0.0,0.0,-3.9489,0.0,0.0,-3.8281,0.0,0.0,0.0,0.0,0.0,0.0,0.0,0.0,0.0,0.0,0.0,0.0,0.0,0.0,0.0,0.0,0.0,0.0,0.0,0.0,0.0,0.0,-3.6262,-3.7476,-3.7436,-3.8375,-4.0359,-4.0475,-4.084,-4.1392,-4.084,-4.0514,-4.054,0.0,0.0,0.0,0.0,0.0,0.0,0.0,0.0,0.0,0.0,0.0,0.0,0.0,0.0,0.0,0.0,0.0,0.0,0.0,0.0,0.0,0.0,0.0,0.0,0.0,0.0,-3.4721,-3.4668,-3.4538,0.0,0.0,0.0,0.0,0.0,0.0,0.0,0.0,0.0,-3.7523,-3.8018,-3.8635,-3.9585,-4.0299,-4.1066,-4.1773,-4.1864,-4.1842,-4.1708,-4.1686,-4.1264,0.0,0.0,0.0,0.0,0.0,0.0,0.0,0.0,0.0,0.0,0.0,0.0,0.0,0.0,0.0,0.0,0.0,0.0,0.0,0.0,0.0,0.0,0.0,0.0,0.0,0.0,0.0,-4.0391,-4.0305,0.0,0.0,0.0,0.0,0.0,0.0,0.0,0.0,0.0,0.0,0.0,-3.9029,-3.9404,0.0,0.0,0.0,0.0,0.0,0.0,0.0,0.0,0.0,0.0,0.0,0.0,-3.6088,-3.7286,-3.7228,-3.8231,-4.0343,-4.0409,-4.0525,-4.0713,-4.0525,-3.9962,-3.9027,0.0,0.0,0.0,0.0,0.0,0.0,0.0,0.0,0.0,0.0,0.0,0.0,0.0,0.0,0.0,0.0,0.0,0.0,0.0,0.0,0.0,0.0,0.0,0.0,0.0,-3.4916,0.0,0.0,0.0,0.0,0.0,0.0,0.0,0.0,0.0,0.0,-3.5804,-3.586,-3.6003,-3.7366,-3.8446,-3.8812,-3.9787,-4.0417,0.0,0.0,0.0,0.0,0.0,0.0,0.0,0.0,0.0,0.0,0.0,0.0,0.0,0.0,-3.8532,-3.8094,-3.7479,-3.6969,-3.6734,0.0,0.0,0.0,0.0,0.0,0.0,0.0,0.0,0.0,0.0,0.0,0.0,0.0,0.0,-4.1123,-4.1034,-4.1052,0.0,0.0,0.0,0.0,0.0,0.0,0.0,0.0,-4.0108,-3.9892,-3.9473,-3.9583,-3.9606,0.0,-3.9725,-3.9708,0.0,0.0,0.0,0.0,0.0,0.0,0.0,0.0,-3.5947,-3.7228,-3.7153,-3.8046,-3.9912,-4.0028,-4.0028,-4.0028,-4.0028,-3.9421,-3.8261,-3.846,-3.8361,0.0,0.0,0.0,0.0,0.0,0.0,0.0,0.0,0.0,0.0,0.0,0.0,0.0,0.0,0.0,0.0,0.0,0.0,0.0,0.0,0.0,0.0,0.0,-3.4817,0.0,0.0,0.0,0.0,0.0,0.0,0.0,0.0,0.0,-3.5082,-3.5421,-3.5636,-3.5555,-3.6726,-3.7849,-3.8402,0.0,0.0,0.0,0.0,0.0,0.0,0.0,-3.9465,-3.8887,-3.8706,-3.8624,-3.8646,-3.8671,-3.8686,-3.8686,0.0,0.0,-3.7848,-3.7279,-3.6785,-3.6537,-3.6925,-3.7302,-3.7302,-3.7781,-3.8202,0.0,0.0,0.0,0.0,-4.2065,0.0,0.0,0.0,-4.1941,-4.1869,0.0,-4.1723,0.0,0.0,0.0,0.0,-4.0619,-4.136,0.0,0.0,-4.1446,-4.1507,-4.0853,-4.0427,-4.0263,-4.028,-3.9867,-3.9703,-3.962,-3.8246,0.0,0.0,0.0,0.0,0.0,0.0,-3.5854,-3.7245,-3.7202,-3.7831,-3.9265,-3.9315,-3.9299,-3.9282,-3.9249,-3.8858,-3.8195,-3.8768,-3.8493,-3.7152,-3.7706,0.0,0.0,0.0,0.0,0.0,0.0,0.0,0.0,0.0,0.0,0.0,0.0,0.0,0.0,0.0,0.0,0.0,0.0,0.0,0.0,-3.4387,0.0,0.0,0.0,0.0,0.0,0.0,0.0,0.0,0.0,-3.475,-3.4883,-3.5451,-3.5931,-3.61,0.0,0.0,0.0,0.0,-3.7261,-3.8671,-3.8371,-3.7876,-3.7677,-3.7688,-3.7582,-3.7174,0.0,0.0,-3.7721,-3.8172,-3.8435,-3.8449,-3.782,-3.7361,-3.7521,-3.7346,-3.7012,-3.646,-3.6852,-3.7273,-3.7346,-3.7781,-3.8202,-4.7652,0.0,0.0,0.0,0.0,-4.2832,-4.2777,-4.2741,-4.2649,-4.2575,-4.2556,-4.2556,0.0,0.0,0.0,0.0,0.0,0.0,-4.1541,-4.0793,-4.0839,-4.0659,-4.0296,-4.0037,-3.991,-4.0003,-3.9807,-3.9668,-3.953,-3.8612,-3.7928,-3.7467,0.0,0.0,0.0,0.0,-3.6305,-3.7119,-3.7632,-3.8344,-3.9299,-3.9315,-3.9023,-3.8526,-3.7996,-3.7384,-3.6671,-3.6837,-3.6754,-3.634,-3.6506,0.0,0.0,0.0,0.0,0.0,0.0,0.0,0.0,0.0,0.0,0.0,0.0,0.0,0.0,0.0,0.0,0.0,0.0,0.0,-3.3609,-3.3762,-3.4101,0.0,0.0,0.0,0.0,0.0,0.0,0.0,0.0,0.0,-3.4582,-3.493,-3.5215,0.0,0.0,-3.6361,-3.6835,-3.6871,-3.6832,-3.6811,-3.7035,0.0,-3.6471,-3.6798,-3.7055,-3.6775,-3.6649,-3.6748,-3.7317,-3.7558,-3.7637,-3.7637,-3.747,-3.7172,-3.675,-3.6627,-3.6519,-3.6388,-3.6838,-3.7288,-3.7331,-3.7781,-3.8202,-5.0155,-4.7095,-4.5993,-4.5223,-4.4674,-4.4251,-4.4011,-4.3937,-4.3554,-4.3371,-4.3353,-4.3027,-4.2919,-4.2919,-4.2919,0.0,0.0,0.0,-4.1753,-4.1065,-4.0731,-4.0385,-4.0096,-3.9884,-3.9807,-3.9884,-3.9755,-3.9642,-3.9484,-3.9051,-3.8328,-3.7336,0.0,-3.5837,-3.5051,-3.5765,-3.6447,-3.7102,-3.7805,-3.856,-3.9265,-3.9033,-3.851,-3.7798,-3.7334,-3.6887,-3.6456,-3.6439,-3.6307,-3.6009,-3.6009,-3.6208,0.0,0.0,0.0,0.0,0.0,0.0,0.0,0.0,0.0,0.0,0.0,-3.4832,-3.4676,0.0,0.0,0.0,-3.2779,-3.2867,-3.3097,-3.3656,0.0,0.0,0.0,0.0,0.0,0.0,0.0,-3.4698,-3.4631,-3.4563,-3.4414,-3.465,-3.4919,-3.5188,-3.5706,-3.6181,-3.6418,0.0,-3.604,-3.5922,-3.6011,-3.5967,-3.5583,-3.5834,-3.6139,-3.621,-3.6262,-3.6417,-3.6809,-3.691,-3.691,-3.691,-3.691,-3.678,-3.6373,-3.6286,-3.6286,-3.6301,-3.662,-3.6896,-3.691,-3.7418,-3.7854,-5.2454,-5.0782,-4.8412,-4.7158,-4.6724,-4.5921,-4.5499,-4.5327,-4.4548,-4.415,-4.4061,-4.3299,-4.2918,-4.2844,-4.2844,0.0,-4.2769,-4.2318,-4.1846,-4.1432,-4.0966,-4.0507,-4.0096,-3.9961,-3.9926,-3.9926,-3.9781,-3.9651,-3.9511,-3.9528,-3.8733,-3.7201,-3.6506,-3.5794,-3.5065,-3.5711,-3.6456,-3.7201,-3.7838,-3.851,-3.91,-3.8394,-3.7682,-3.6953,-3.692,-3.6887,-3.6854,-3.6887,-3.6589,-3.5876,-3.5876,-3.5893,-3.5827,0.0,0.0,0.0,0.0,0.0,0.0,0.0,0.0,0.0,0.0,0.0,0.0,0.0,0.0,0.0,-3.2157,0.0,-3.2553,-3.3777,0.0,0.0,0.0,-3.4868,-3.4868,-3.475,-3.4664,-3.4664,0.0,0.0,-3.438,-3.4549,-3.4917,-3.5502,-3.5717,-3.6026,-3.6615,-3.5653,-3.5074,-3.5648,-3.5266,-3.4883,-3.4909,-3.4923,-3.5081,-3.5424,-3.5869,-3.6098,-3.6214,-3.6228,-3.6243,-3.6228,-3.6228,-3.6185,-3.6156,-3.6054,-3.6156,-3.6083,-3.6243,-3.6315,-3.6373,-3.6823,-3.7215,-5.4087,-5.2546,-5.1314,-4.9598,-4.7624,-4.668,-4.6235,-4.6142,-4.5363,-4.4657,-4.4077,-4.3896,-4.3287,-4.2378,-4.236,-4.2177,-4.1807,-4.1326,-4.1088,-4.0926,-4.0483,-4.0204,-4.0113,-4.0062,-4.0062,-4.0045,-4.0037,-3.9867,-3.9651,-3.9651,-3.9087,-3.798,-3.7781,-3.7036,-3.581,-3.6473,-3.7218,-3.793,-3.8103,-3.7987,-3.7615,-3.6903,-3.6174,-3.5446,-3.5429,-3.5148,-3.4618,-3.5131,-3.5081,-3.4386,-3.4849,-3.4899,-3.4352,-3.5379,0.0,0.0,0.0,0.0,0.0,0.0,0.0,0.0,0.0,-3.3484,-3.2641,0.0,-3.1081,0.0,-3.1411,-3.2164,-3.3151,-3.358,0.0,0.0,-3.4515,-3.4515,-3.4515,-3.4481,-3.4448,-3.4481,-3.4414,-3.438,-3.438,-3.4448,-3.454,-3.47,-3.485,-3.5043,-3.5175,-3.485,-3.4559,-3.4738,-3.4651,-3.4515,-3.452,-3.4501,-3.453,-3.467,-3.4762,-3.5024,-3.5523,-3.5625,-3.5625,-3.5625,-3.5639,-3.545,-3.4951,-3.4864,-3.4864,-3.4902,-3.5633,-3.6286,-3.6301,-3.6431,-3.6533,-5.4546,-5.3607,-5.2367,-5.0945,-4.9523,-4.8252,-4.7438,-4.6957,-4.5798,-4.5055,-4.4603,-4.3897,-4.3183,-4.2518,-4.2498,-4.2259,-4.1803,-4.1321,-4.0995,-4.0778,-4.0328,-4.0113,-4.0113,-4.0113,-4.0113,-4.0113,-4.0113,-3.9944,-3.9703,-3.9703,-3.9196,-3.8228,-3.8212,-3.7798,-3.7011,-3.7384,-3.7632,-3.7689,-3.7715,-3.7342,-3.6638,-3.6208,-3.5644,-3.4932,-3.4899,-3.47,-3.4286,-3.4684,-3.47,-3.4319,-3.4667,-3.47,-3.4319,-3.5,-3.5704,0.0,0.0,0.0,0.0,0.0,0.0,0.0,0.0,0.0,0.0,0.0,-3.0698,-3.0974,-3.1584,-3.2367,-3.3402,-3.375,-3.4037,-3.437,-3.438,-3.438,-3.438,-3.4167,-3.3993,-3.3993,-3.3746,-3.3539,-3.3572,-3.3819,-3.3993,-3.3993,-3.4355,-3.4563,-3.4563,-3.4448,-3.438,-3.438,-3.438,-3.4298,-3.4051,-3.3746,-3.3572,-3.3572,-3.3572,-3.3703,-3.4037,-3.4095,-3.4095,-3.4095,-3.4109,-3.3993,-3.3645,-3.3572,-3.3558,-3.3659,-3.4109,-3.4777,-3.5343,-3.5473,-3.5517,-5.4381,-5.3937,-5.2334,-5.1496,-5.1201,-4.9776,-4.8668,-4.7772,-4.6269,-4.549,-4.52,-4.3715,-4.2972,-4.2806,-4.275,-4.248,-4.2095,-4.1565,-4.1139,-4.0778,-4.0328,-4.0113,-4.0113,-4.0113,-4.0113,-4.0087,-4.0087,-3.9918,-3.9677,-3.9677,-3.922,-3.8361,-3.8344,-3.8344,-3.8344,-3.8318,-3.798,-3.7251,-3.7152,-3.6754,-3.6025,-3.5909,-3.5512,-3.48,-3.4849,-3.4849,-3.4767,-3.4849,-3.4849,-3.4767,-3.4849,-3.4849,-3.475,-3.4738,-3.5045,0.0,-3.54,0.0,0.0,0.0,0.0,0.0,0.0,0.0,0.0,-3.1023,-3.0874,-3.1467,-3.2017,-3.2658,-3.3314,-3.3833,-3.4167,-3.4167,-3.4134,-3.4167,-3.4153,-3.3688,-3.3373,-3.3373,-3.2861,-3.2495,-3.2585,-3.3021,-3.3387,-3.3402,-3.3746,-3.4037,-3.4153,-3.4283,-3.438,-3.438,-3.4341,-3.4022,-3.3456,-3.2904,-3.2553,-3.2524,-3.2582,-3.2481,-3.2614,-3.2614,-3.2571,-3.2585,-3.2658,-3.2568,-3.2481,-3.2556,-3.2524,-3.2582,-3.2669,-3.3035,-3.3891,-3.4182,-3.4356,-5.4216,-5.2435,-5.1943,-5.096,-4.9651,-4.9276,-4.8968,-4.8601,-4.7663,-4.6522,-4.5254,-4.4295,-4.3305,-4.2318,-4.1931,-4.1717,-4.1587,-4.0778,-4.0531,-4.0778,-4.0303,-4.0113,-4.0113,-4.0113,-4.0037,-3.9952,-3.9952,-3.9798,-3.9554,-3.9554,-3.9391,-3.91,-3.9116,-3.91,-3.91,0.0,0.0,0.0,-3.74,-3.6754,-3.6009,-3.5413,-3.475,-3.4078,-3.4584,0.0,-3.4071,-3.4568,-3.4618,-3.4054,-3.4568,0.0,0.0,0.0,0.0,0.0,0.0,0.0,0.0,0.0,0.0,0.0,-3.1161,-3.1071,-3.0997,-3.073,-3.0874,-3.1422,-3.1596,-3.1944,-3.2629,-3.2771,-3.2843,-3.2843,-3.2875,-3.289,-3.2843,-3.2759,-3.2701,-3.2687,-3.2539,-3.2513,-3.2452,-3.2643,-3.2701,-3.2716,-3.2803,-3.2861,-3.2887,-3.3746,-3.4337,-3.4385,-3.3935,-3.3412,-3.2803,-3.2539,-3.2396,-3.2481,-3.2481,-3.2452,-3.2423,-3.2469,-3.2483,-3.2469,-3.2481,-3.2483,-3.2452,-3.2481,-3.2408,-3.2498,-3.2466,-3.2553,-3.28,-3.2843,-3.2919,-5.3117,-5.1922,-5.0931,-5.0024,0.0,-4.8626,-4.8378,-4.8261,-4.7443,-4.6214,-4.4675,-4.4277,-4.3526,-4.2537,-4.23,-4.1952,-4.1481,-4.1001,-4.0666,-4.0434,-4.0221,-4.0113,-4.0113,-4.0113,-4.0054,-3.9901,-3.9884,-3.9772,-3.9501,-3.9484,-3.9265,-3.8758,-3.8742,-3.8742,-3.8758,-3.9133,-3.8752,-3.7665,-3.6936,-3.6191,-3.5495,-3.5446,-3.5081,-3.4409,-3.47,0.0,0.0,0.0,0.0,0.0,0.0,0.0,0.0,-3.4636,0.0,-3.5046,-3.4711,-3.4085,-3.3193,-3.2762,-3.2056,-3.0881,-3.0747,-3.0702,-3.0687,-3.0642,-3.0874,-3.1422,-3.1495,-3.1756,-3.2394,-3.2481,-3.2481,-3.2481,-3.2481,-3.2481,-3.2483,-3.2176,-3.1988,-3.199,-3.1743,-3.1555,-3.1555,-3.1859,-3.1988,-3.2017,-3.2292,-3.2466,-3.2571,-3.305,-3.3438,-3.347,-3.2919,-3.2411,-3.2077,-3.1729,-3.1584,-3.1555,-3.1555,-3.1569,-3.1555,-3.1555,-3.1569,-3.1555,-3.1555,-3.1569,-3.1569,-3.1555,-3.1569,-3.1555,-3.1555,-3.1555,-3.1569,-3.1801,-3.2104,-5.1958,-5.1463,-4.9843,-4.9122,-4.8919,-4.8055,-4.7699,-4.7624,-4.6848,0.0,0.0,-4.4168,-4.3643,-4.29,-4.2731,-4.2221,-4.1503,-4.1326,-4.0838,-4.0096,-4.0113,-4.0113,-4.0113,-4.0113,-4.0011,-3.9875,-3.9875,-3.972,-3.9475,-3.9475,-3.9123,-3.8444,-3.8411,-3.8411,-3.8427,-3.8858,-3.8493,-3.7334,-3.6704,-3.6108,-3.5512,-3.5827,-3.5694,-3.5098,-3.4965,-3.4899,-3.4899,-3.4899,-3.4899,-3.4899,-3.4899,-3.4899,-3.4899,-3.4739,-3.457,-3.4349,-3.3958,-3.324,-3.2213,-3.1921,-3.1451,-3.0672,-3.0612,-3.0612,-3.0612,-3.0612,-3.0816,-3.1308,-3.1351,-3.1584,-3.2121,-3.2179,-3.2179,-3.2164,-3.2179,-3.2164,-3.2121,-3.1714,-3.1351,-3.1293,-3.093,-3.0612,-3.067,-3.1047,-3.1321,-3.1424,-3.1758,-3.2147,-3.2208,-3.2396,-3.2571,-3.2396,-3.2004,-3.1555,-3.1308,-3.0988,-3.0627,-3.0714,-3.067,-3.0612,-3.0612,-3.0612,-3.0612,-3.0714,-3.0612,-3.0656,-3.0641,-3.0699,-3.0612,-3.0612,-3.0612,-3.0612,-3.0656,-3.0988,-3.1496,-5.183,-4.9903,-4.9407,-4.8794,-4.8136,-4.7819,-4.7699,-4.7645,-4.683,-4.5979,-4.5091,-4.4385,-4.3643,-4.2863,-4.2038,-4.1595,-4.1437,-4.0683,-4.0229,-4.0096,-4.0113,-4.0113,-4.0113,-4.0113,-3.9969,-3.9755,-3.9729,-3.9616,-3.9352,-3.9325,-3.9232,-3.9149,-3.9149,-3.9133,-3.9116,-3.8626,-3.8261,-3.8063,-3.7963,-3.7847,-3.7706,-3.6605,-3.5959,-3.5843,-3.5214,-3.4899,-3.4899,-3.4899,-3.4899,-3.4899,-3.4899,-3.4899,-3.4899,-3.4667,-3.4497,-3.4423,-3.362,-3.2895,-3.2308,-3.1709,-3.1161,-3.0657,-3.0612,-3.0612,-3.0612,-3.0612,-3.0641,-3.0713,-3.0772,-3.0757,-3.0874,-3.0932,-3.0961,-3.0932,-3.0903,-3.0888,-3.0946,-3.0859,-3.0742,-3.0786,-3.0685,-3.0612,-3.0627,-3.0714,-3.0801,-3.0786,-3.099,-3.0946,-3.1164,-3.1816,-3.2193,-3.1785,-3.1567,-3.1293,-3.0887,-3.0685,-3.0569,-3.0612,-3.0612,-3.0612,-3.0612,-3.0612,-3.0612,-3.0612,-3.0612,-3.0612,-3.0612,-3.0612,-3.0612,-3.0612,-3.0612,-3.0612,-3.0612,-3.0728,-3.083,-5.0602,-4.9553,-4.8841,-4.832,-4.7992,-4.7765,-4.7699,-4.7569,-4.6395,-4.5653,-4.5236,-4.4458,-4.3662,-4.2862,-4.2198,-4.1721,-4.1459,-4.0802,-4.0328,-4.0113,-4.0113,-4.0062,-3.9986,-4.0003,-3.9858,-3.9616,-3.959,-3.9484,-3.9299,-3.9315,-3.9116,-3.8742,-3.8709,-3.8692,-3.8692,-3.8758,-3.8791,-3.8775,-3.8411,-3.7814,-3.7011,-3.6754,-3.6224,-3.5429,-3.5048,-3.4899,-3.4899,-3.4899,-3.4899,-3.4899,-3.4899,-3.4851,-3.4691,-3.457,-3.4374,-3.4075,-3.3413,-3.2718,-3.2102,-3.1364,-3.0836,-3.0612,-3.0917,-3.109,-3.109,-3.0801,-3.0612,-3.0612,-3.0612,-3.0612,-3.0612,-3.0612,-3.0612,-3.0612,-3.0612,-3.0612,-3.0612,-3.0612,-3.0612,-3.0612,-3.0612,-3.0612,-3.0612,-3.0612,-3.0612,-3.0612,-3.0612,-3.0612,-3.0612,-3.1061,-3.1366,-3.1047,-3.0697,-3.0568,-3.0524,-3.0248,-3.0234,-3.0525,-3.0612,-3.0612,-3.0612,-3.0612,-3.0612,-3.0612,-3.0612,-3.0612,-3.0612,-3.0612,-3.0612,-3.0612,-3.0612,-3.0612,-3.0612,-3.0612,-3.0612,-4.9589,-4.9184,-4.8344,-4.797,-4.7929,-4.7762,-4.7699,-4.7536,-4.6015,-4.5291,-4.5164,-4.4258,-4.3462,-4.288,-4.2318,-4.1846,-4.1437,-4.0902,-4.0451,-4.0121,-4.0113,-4.0037,-3.9926,-3.9884,-3.9746,-3.9511,-3.9484,-3.9405,-3.9299,-3.9315,-3.9007,-3.851,-3.846,-3.8444,-3.8477,-3.899,-3.9315,-3.9282,-3.8725,-3.7897,-3.6804,-3.7152,-3.6721,-3.5512,-3.523,-3.5089,-3.4916,-3.4899,-3.4899,-3.4899,-3.4899,-3.4763,-3.4521,-3.4423,-3.4134,-3.3575,-3.3044,-3.2468,-3.1847,-3.119,-3.0888,-3.1048,-3.1467,-3.1712,-3.1714,-3.1308,-3.1018,-3.1048,-3.1106,-3.1077,-3.1106,-3.1092,-3.1018,-3.1033,-3.1018,-3.1106,-3.1048,-3.0887,-3.0785,-3.0816,-3.0699,-3.0612,-3.0612,-3.0612,-3.0612,-3.0612,-3.0612,-3.0612,-3.0612,-3.0612,-3.0612,-3.051,-3.0147,-3.0103,-3.0496,-3.0219,-3.0132,-3.0554,-3.0612,-3.0612,-3.0612,-3.0612,-3.0612,-3.0612,-3.0612,-3.0612,-3.0612,-3.0612,-3.0612,-3.0612,-3.0612,-3.0612,-3.0612,-3.0612,-3.0612,-4.9634,-4.8369,-4.8022,-4.784,-4.7759,-4.7699,-4.7699,-4.7482,-4.5997,-4.5291,-4.509,-4.3679,-4.2991,-4.2787,-4.1973,-4.1547,-4.1393,-4.0563,-4.0163,-4.0096,-4.0113,-4.0037,-3.9901,-3.9884,-3.9746,-3.9511,-3.9501,-3.9448,-3.9299,-3.9315,-3.9249,-3.9199,-3.9199,-3.9183,-3.9199,-3.9265,-3.9315,-3.9315,-3.9232,-3.9149,-3.8984,-3.8411,-3.7731,-3.6936,-3.6241,-3.5578,-3.4982,-3.4899,-3.4899,-3.4899,-3.4916,-3.478,-3.453,-3.4291,-3.3832,-3.3156,-3.2437,-3.1864,-3.1596,-3.1455,-3.1685,-3.2266,-3.2336,-3.2394,-3.2394,-3.2382,-3.2321,-3.2324,-3.2324,-3.2237,-3.2338,-3.228,-3.2208,-3.2164,-3.2208,-3.2338,-3.2193,-3.177,-3.1393,-3.1424,-3.0916,-3.0612,-3.0612,-3.0612,-3.0612,-3.0612,-3.0612,-3.0612,-3.0612,-3.0612,-3.0612,-3.0612,-3.051,-3.051,-3.0583,-3.0569,-3.0379,-3.0539,-3.0583,-3.0525,-3.0496,-3.0525,-3.0612,-3.0598,-3.0612,-3.0612,-3.0612,-3.0612,-3.0612,-3.0612,-3.0612,-3.0612,-3.0612,-3.0612,-3.0612,-4.8809,-4.8186,-4.7984,-4.7819,-4.7699,-4.7699,-4.7446,-4.6884,-4.578,-4.4879,-4.4078,-4.2963,-4.2478,-4.2438,-4.1785,-4.1348,-4.1065,-4.0402,-4.0113,-4.0113,-4.0113,-3.9986,-3.9781,-3.9781,-3.9642,-3.9405,-3.9379,-3.9369,-3.9299,-3.9315,-3.9315,-3.9315,-3.9315,-3.9315,-3.9315,-3.9315,-3.9315,-3.9315,-3.9315,-3.9315,-3.9232,-3.8576,-3.7864,-3.7119,-3.639,-3.5876,-3.5545,-3.5131,-3.4899,-3.4932,-3.5127,-3.5136,-3.4859,-3.4991,-3.4899,-3.4412,-3.3567,-3.2796,-3.2155,-3.2075,-3.2191,-3.2481,-3.2861,-3.3064,-3.3108,-3.3412,-3.3645,-3.3558,-3.293,-3.2481,-3.251,-3.2495,-3.2481,-3.2481,-3.2481,-3.2495,-3.2513,-3.1901,-3.1495,-3.1451,-3.0974,-3.0612,-3.0612,-3.0612,-3.0612,-3.0612,-3.0612,-3.0612,-3.0612,-3.0612,-3.0612,-3.0612,-3.0612,-3.0612,-3.0583,-3.0219,-3.0089,-3.0031,-3.0016,-3.0016,-3.0045,-3.0016,-3.0103,-3.0525,-3.0598,-3.0612,-3.0612,-3.0612,-3.0612,-3.0612,-3.0612,-3.0612,-3.0612,-3.0612,-3.0612,-4.8331,-4.8126,-4.7925,-4.7798,-4.7681,-4.7464,-4.6967,-4.6194,-4.5238,-4.4199,-4.3173,-4.237,-4.1927,-4.1782,-4.1455,-4.1134,-4.0754,-4.0303,-4.0113,-4.0113,-4.0113,-3.9961,-3.9729,-3.9703,-3.943,-3.9093,-3.9216,-3.9315,-3.9315,-3.9315,-3.9315,-3.9315,-3.9315,-3.9315,-3.9315,-3.9315,-3.9315,-3.9315,-3.9315,-3.9315,-3.9249,-3.8758,-3.8162,-3.745,-3.6862,-3.6522,-3.6307,-3.5704,-3.5357,-3.5374,-3.5594,-3.5591,-3.532,-3.5615,-3.5558,-3.4979,-3.4059,-3.3297,-3.2791,-3.2774,-3.2846,-3.3003,-3.3518,-3.3732,-3.379,-3.4138,-3.4351,-3.4312,-3.3572,-3.3079,-3.3003,-3.3017,-3.305,-3.3017,-3.305,-3.3003,-3.3003,-3.2307,-3.1785,-3.1698,-3.1105,-3.0612,-3.0612,-3.0612,-3.0612,-3.0612,-3.0612,-3.0612,-3.0612,-3.0612,-3.0612,-3.0612,-3.0612,-3.0612,-3.0569,-3.0306,-2.99,-2.961,-2.9639,-2.9653,-2.9595,-2.9595,-2.9842,-3.0452,-3.0539,-3.0612,-3.0612,-3.0612,-3.0612,-3.0612,-3.0612,-3.0612,-3.0612,-3.0612,-3.0612,-4.8703,-4.8026,-4.7804,-4.7699,-4.7645,-4.6882,-4.6275,-4.5684,-4.4207,-4.318,-4.263,-4.1881,-4.1276,-4.0896,-4.0832,-4.0808,-4.0707,-4.0303,-4.0113,-4.0113,-4.0113,-3.9944,-3.9703,-3.9703,-3.918,-3.837,-3.8791,-3.9166,-3.9249,-3.9299,-3.9315,-3.9315,-3.9315,-3.9315,-3.9315,-3.9315,-3.9315,-3.9315,-3.9315,-3.9315,-3.9299,-3.9249,-3.8841,-3.8228,-3.807,-3.7673,-3.7084,-3.6715,-3.6479,-3.6495,-3.6273,-3.6029,-3.5801,-3.5794,-3.5313,-3.415,-3.3189,-3.2914,-3.3373,-3.346,-3.3645,-3.4153,-3.424,-3.4356,-3.4283,-3.4356,-3.438,-3.4366,-3.4283,-3.4163,-3.4163,-3.4061,-3.4153,-3.4163,-3.4221,-3.4206,-3.424,-3.3064,-3.2542,-3.222,-3.1322,-3.0685,-3.0612,-3.0612,-3.0612,-3.0612,-3.0612,-3.0612,-3.0612,-3.0612,-3.0612,-3.0612,-3.0612,-3.0612,-3.0598,-3.0451,-3.019,-2.9711,-2.9421,-2.9479,-2.9566,-2.9668,-3.0001,-3.0351,-3.051,-3.0598,-3.0598,-3.0612,-3.0612,-3.0612,-3.0612,-3.0612,-3.0612,-3.0612,-3.0612,-4.8202,-4.7804,-4.772,-4.7699,-4.7567,-4.6521,-4.566,-4.4932,-4.3558,-4.2399,-4.1534,-4.1169,-4.0802,-4.0353,-4.0353,-4.0353,-4.0328,-4.0171,-4.0113,-4.0113,-4.0113,-3.9708,-3.905,-3.8991,-3.8479,-3.7658,-3.7765,-3.8129,-3.8626,-3.9067,-3.9315,-3.9315,-3.9315,-3.9315,-3.9315,-3.9315,-3.9315,-3.9315,-3.9315,-3.9315,-3.9315,-3.9315,-3.9166,-3.8874,-3.8444,-3.7975,-3.7521,-3.694,-3.6522,-3.6354,-3.648,-3.6533,-3.6458,-3.6395,-3.5904,-3.4855,-3.4406,-3.4182,-3.4089,-3.408,-3.4153,-3.437,-3.438,-3.438,-3.438,-3.438,-3.438,-3.438,-3.438,-3.438,-3.438,-3.438,-3.438,-3.438,-3.438,-3.438,-3.4182,-3.3311,-3.2481,-3.2324,-3.1395,-3.0641,-3.0656,-3.0612,-3.0612,-3.0612,-3.0612,-3.0627,-3.0612,-3.0612,-3.0612,-3.0612,-3.0612,-3.0612,-3.0612,-3.0612,-3.0336,-2.9479,-2.8999,-2.8753,-2.8739,-2.9087,-2.9421,-2.9958,-3.0234,-3.0583,-3.0612,-3.0612,-3.0612,-3.0612,-3.0612,-3.0612,-3.0612,-3.0612,-3.0612,-4.7866,-4.7663,-4.7428,-4.7482,-4.7473,-4.5774,-4.4777,-4.417,-4.275,-4.151,-4.0686,-4.0563,-4.0402,-4.0121,-4.0113,-4.0113,-4.0113,-4.0113,-4.0113,-4.0113,-4.0113,-3.9556,-3.8732,-3.8606,-3.792,-3.6962,-3.7019,-3.7582,-3.851,-3.905,-3.9299,-3.9315,-3.9315,-3.9315,-3.9315,-3.9315,-3.9315,-3.9315,-3.9315,-3.9315,-3.9315,-3.9315,-3.9315,-3.9249,-3.8791,-3.8395,-3.8051,-3.7486,-3.7053,-3.6803,-3.6958,-3.694,-3.6785,-3.6551,-3.607,-3.5332,-3.5037,-3.4787,-3.4481,-3.438,-3.4414,-3.438,-3.438,-3.438,-3.438,-3.438,-3.438,-3.438,-3.438,-3.438,-3.438,-3.438,-3.438,-3.438,-3.438,-3.438,-3.4322,-3.347,-3.2817,-3.2437,-3.183,-3.1221,-3.099,-3.1135,-3.1033,-3.0699,-3.0757,-3.0829,-3.0656,-3.0612,-3.0612,-3.0612,-3.0612,-3.0612,-3.0612,-3.0612,-3.0365,-2.9552,-2.916,-2.8695,-2.8448,-2.8724,-2.9044,-2.9581,-3.0016,-3.0423,-3.0612,-3.0612,-3.0612,-3.0612,-3.0612,-3.0612,-3.0612,-3.0612,-3.0612,-4.7804,-4.7536,-4.6848,-4.6843,-4.6994,-4.465,-4.3616,-4.3453,-4.1719,-4.0624,-4.0204,-4.0095,-4.0061,-4.0096,-4.0011,-4.0045,-4.0113,-4.018,-4.0163,-4.0113,-4.0113,-3.9522,-3.8522,-3.8472,-3.7728,-3.6307,-3.682,-3.788,-3.9166,-3.9348,-3.9398,-3.9332,-3.9315,-3.9315,-3.9315,-3.9315,-3.9315,-3.9315,-3.9315,-3.9315,-3.9315,-3.9315,-3.9315,-3.9315,-3.9249,-3.9038,-3.8739,-3.8446,-3.8068,-3.7787,-3.756,-3.7224,-3.6661,-3.6165,-3.5705,-3.5169,-3.4702,-3.4448,-3.4414,-3.438,-3.438,-3.438,-3.438,-3.438,-3.438,-3.438,-3.438,-3.438,-3.438,-3.438,-3.438,-3.438,-3.438,-3.438,-3.438,-3.438,-3.4298,-3.3833,-3.3209,-3.2658,-3.2324,-3.2208,-3.1859,-3.1932,-3.1859,-3.1208,-3.1119,-3.125,-3.083,-3.0685,-3.0612,-3.0612,-3.0612,-3.0612,-3.0612,-3.0569,-3.019,-2.9813,-2.961,-2.9276,-2.9073,-2.916,-2.929,-2.9697,-3.0161,-3.0554,-3.0612,-3.0612,-3.0612,-3.0612,-3.0612,-3.0612,-3.0612,-3.0612,-3.0612,-4.6987,-4.6776,-4.6015,-4.5616,-4.5355,-4.3655,-4.2816,-4.2454,-4.0967,-4.0229,-4.0011,-3.9571,-3.9622,-3.9893,-3.9605,-3.9631,-4.013,-4.0578,-4.062,-4.0214,-4.013,-3.9337,-3.812,-3.7869,-3.7478,-3.6978,-3.7516,-3.8344,-3.9249,-3.9829,-3.9829,-3.9415,-3.9332,-3.9315,-3.9365,-3.9315,-3.9315,-3.9315,-3.9315,-3.9315,-3.9315,-3.9315,-3.9315,-3.9315,-3.9315,-3.9056,-3.856,-3.8448,-3.8119,-3.7655,-3.7524,-3.7089,-3.6274,-3.5672,-3.5187,-3.4702,-3.4515,-3.438,-3.438,-3.438,-3.438,-3.438,-3.438,-3.438,-3.438,-3.438,-3.438,-3.438,-3.438,-3.438,-3.438,-3.438,-3.438,-3.438,-3.438,-3.438,-3.4356,-3.3877,-3.3209,-3.2658,-3.2481,-3.2379,-3.2278,-3.2481,-3.2365,-3.1932,-3.1714,-3.1467,-3.125,-3.0872,-3.0612,-3.0612,-3.0612,-3.0612,-3.0612,-3.0612,-3.0423,-3.0118,-2.9943,-2.9784,-2.9595,-2.9566,-2.9653,-2.9813,-3.0248,-3.0496,-3.0554,-3.0612,-3.0612,-3.0612,-3.0612,-3.0612,-3.0612,-3.0612,-3.0612,-4.6583,-4.6357,-4.5129,-4.4614,-4.4367,-4.2761,-4.2021,-4.1802,-4.0652,-4.0113,-3.9994,-3.9639,-3.9825,-4.029,-4.002,-4.024,-4.0899,-4.1354,-4.1304,-4.095,-4.0925,-3.9961,-3.8413,-3.7903,-3.8043,-3.838,-3.8791,-3.9371,-4.0067,-4.0498,-4.0531,-4.015,-4.0067,-4.01,-4.0017,-3.9829,-3.973,-3.968,-3.9448,-3.9315,-3.9315,-3.9315,-3.9315,-3.9315,-3.9315,-3.9002,-3.8448,-3.8391,-3.8123,-3.7583,-3.7315,-3.6769,-3.5959,-3.5479,-3.4938,-3.4534,-3.438,-3.438,-3.438,-3.438,-3.438,-3.438,-3.438,-3.438,-3.438,-3.438,-3.438,-3.438,-3.438,-3.438,-3.438,-3.438,-3.438,-3.438,-3.438,-3.438,-3.4356,-3.408,-3.3732,-3.3383,-3.3296,-3.3122,-3.2948,-3.3137,-3.2916,-3.2611,-3.2367,-3.2046,-3.1874,-3.1337,-3.1076,-3.0814,-3.0714,-3.0685,-3.0627,-3.0612,-3.0612,-3.0438,-3.0248,-3.0074,-2.9929,-3.0016,-3.0132,-3.0016,-3.0277,-3.0321,-3.0423,-3.0554,-3.0612,-3.0612,-3.0612,-3.0612,-3.0612,-3.0612,-3.0612,-4.6447,-4.615,-4.4244,-4.3765,-4.389,-4.183,-4.1257,-4.1584,-4.0627,-4.0113,-4.0079,-4.0028,-4.0426,-4.1052,-4.0984,-4.1356,-4.2185,-4.223,-4.2247,-4.2277,-4.2243,-4.1418,-3.9754,-3.8742,-3.8984,-4.0111,-4.0343,-4.0746,-4.1326,-4.1425,-4.1413,-4.1259,-4.1193,-4.1331,-4.1127,-4.0729,-4.0409,-4.0227,-3.9713,-3.9431,-3.9332,-3.9315,-3.9315,-3.9315,-3.9245,-3.8958,-3.8476,-3.8307,-3.802,-3.748,-3.6907,-3.6383,-3.5896,-3.5415,-3.4854,-3.4414,-3.438,-3.438,-3.438,-3.438,-3.438,-3.438,-3.438,-3.438,-3.438,-3.438,-3.438,-3.438,-3.438,-3.438,-3.438,-3.438,-3.438,-3.438,-3.438,-3.438,-3.438,-3.437,-3.424,-3.4283,-3.4322,-3.4196,-3.3587,-3.3964,-3.3674,-3.318,-3.3093,-3.2933,-3.2556,-3.2004,-3.1567,-3.1264,-3.0901,-3.0699,-3.0612,-3.0612,-3.0612,-3.0569,-3.0438,-3.0365,-3.0249,-3.0351,-3.0438,-3.0306,-3.0234,-3.0263,-3.0321,-3.0525,-3.0612,-3.0612,-3.0612,-3.0612,-3.0582,-3.0538,-3.0357,-4.5938,-4.4979,-4.3867,-4.2776,-4.1818,-4.1017,-4.0724,-4.0576,-4.029,-4.0113,-4.0113,-4.0113,-4.0536,-4.117,-4.1238,-4.1593,-4.2337,-4.2841,-4.3078,-4.3189,-4.3613,-4.2499,-4.0672,-3.9548,-3.9785,-4.1011,-4.1243,-4.1508,-4.2187,-4.2208,-4.1972,-4.1442,-4.1513,-4.1491,-4.1375,-4.1276,-4.0862,-4.0475,-4.026,-3.9812,-3.9365,-3.9315,-3.9315,-3.9272,-3.9094,-3.8794,-3.8391,-3.7963,-3.7494,-3.6938,-3.6383,-3.5896,-3.5429,-3.4953,-3.4568,-3.4448,-3.438,-3.438,-3.438,-3.438,-3.438,-3.438,-3.438,-3.438,-3.438,-3.438,-3.438,-3.438,-3.438,-3.438,-3.438,-3.438,-3.438,-3.438,-3.438,-3.438,-3.438,-3.438,-3.438,-3.438,-3.438,-3.4283,-3.4225,-3.4225,-3.4254,-3.3891,-3.363,-3.3518,-3.3093,-3.2382,-3.1814,-3.1424,-3.1061,-3.0786,-3.0612,-3.0612,-3.0612,-3.0612,-3.0583,-3.0583,-3.0496,-3.051,-3.0554,-3.0539,-3.0467,-3.0452,-3.0496,-3.0598,-3.0612,-3.0612,-3.0612,-3.0612,-3.0417,-3.0326,-3.0007,-4.5721,-4.4942,-4.3408,-4.2381,-4.1623,-4.0861,-4.0694,-4.0832,-4.035,-4.0299,-4.0451,-4.0214,-4.0705,-4.161,-4.1677,-4.2286,-4.3217,-4.3635,-4.3821,-4.3905,-4.4091,-4.3367,-4.2128,-4.1139,-4.1259,-4.2204,-4.2307,-4.2555,-4.2886,-4.2953,-4.2688,-4.2456,-4.2307,-4.2336,-4.2357,-4.1943,-4.1524,-4.0912,-4.0547,-4.0061,-3.9365,-3.9315,-3.9315,-3.9272,-3.9094,-3.8821,-3.8408,-3.7817,-3.7255,-3.6708,-3.618,-3.5705,-3.5219,-3.4687,-3.4414,-3.438,-3.438,-3.438,-3.438,-3.438,-3.438,-3.438,-3.438,-3.438,-3.438,-3.438,-3.438,-3.438,-3.438,-3.438,-3.438,-3.438,-3.438,-3.438,-3.438,-3.438,-3.438,-3.438,-3.438,-3.438,-3.438,-3.438,-3.438,-3.438,-3.438,-3.4327,-3.4066,-3.3964,-3.3746,-3.2861,-3.2237,-3.199,-3.1714,-3.1496,-3.1424,-3.1424,-3.1366,-3.1279,-3.1048,-3.0959,-3.0801,-3.0743,-3.0612,-3.0612,-3.0612,-3.0612,-3.0612,-3.0612,-3.0612,-3.0612,-3.0612,-3.0538,-3.0387,-2.9931,-2.9623,-4.5717,-4.5364,-4.3088,-4.246,-4.255,-4.1027,-4.1018,-4.1839,-4.0857,-4.0663,-4.1102,-4.0713,-4.139,-4.2405,-4.2608,-4.3284,-4.4496,-4.43,-4.4356,-4.4299,-4.4241,-4.3822,-4.3469,-4.2709,-4.2721,-4.33,-4.3565,-4.3515,-4.3466,-4.3532,-4.3565,-4.3383,-4.3433,-4.3532,-4.3267,-4.2853,-4.2241,-4.1558,-4.0895,-4.0293,-3.963,-3.9415,-3.9315,-3.9272,-3.911,-3.8794,-3.8307,-3.773,-3.7119,-3.66,-3.6149,-3.564,-3.5169,-3.4601,-3.4448,-3.438,-3.438,-3.438,-3.438,-3.438,-3.438,-3.438,-3.438,-3.438,-3.438,-3.438,-3.438,-3.438,-3.438,-3.438,-3.438,-3.438,-3.438,-3.438,-3.438,-3.438,-3.438,-3.438,-3.438,-3.438,-3.438,-3.438,-3.438,-3.438,-3.438,-3.438,-3.4269,-3.4225,-3.4037,-3.3441,-3.3108,-3.3082,-3.2745,-3.2411,-3.2382,-3.2382,-3.2295,-3.2179,-3.1801,-3.1555,-3.1177,-3.0988,-3.0728,-3.0612,-3.0612,-3.0612,-3.0612,-3.0612,-3.0612,-3.0612,-3.0612,-3.0538,-3.0372,-2.9639,-2.9188,-4.5823,-4.4476,-4.3955,-4.3203,-4.2336,-4.1425,-4.1474,-4.2262,-4.1373,-4.1373,-4.2016,-4.2439,-4.2777,-4.3183,-4.3623,-4.4344,-4.4564,-4.4525,-4.444,-4.4184,-4.4155,-4.3923,-4.37,-4.3396,-4.3449,-4.3615,-4.3615,-4.3615,-4.3615,-4.3615,-4.3615,-4.3615,-4.3615,-4.3615,-4.3549,-4.3383,-4.2986,-4.2274,-4.1558,-4.0862,-4.0177,-3.9613,-3.9348,-3.9288,-3.8898,-3.8448,-3.796,-3.7284,-3.6646,-3.6196,-3.5928,-3.5479,-3.4787,-3.4481,-3.4414,-3.438,-3.438,-3.438,-3.438,-3.438,-3.438,-3.438,-3.438,-3.438,-3.438,-3.438,-3.438,-3.438,-3.438,-3.438,-3.438,-3.438,-3.438,-3.438,-3.438,-3.438,-3.438,-3.438,-3.438,-3.438,-3.438,-3.438,-3.438,-3.438,-3.438,-3.438,-3.438,-3.438,-3.4182,-3.3862,-3.3761,-3.3707,-3.3369,-3.2991,-3.2991,-3.2962,-3.2904,-3.2803,-3.2483,-3.2121,-3.1729,-3.1337,-3.1076,-3.083,-3.0612,-3.0612,-3.0612,-3.0612,-3.0612,-3.0612,-3.0568,-3.0372,-3.0054,-2.9345,-2.8698,-4.5598,-4.4699,-4.4085,-4.3639,-4.3237,-4.2236,-4.2337,-4.2997,-4.2151,-4.2134,-4.2675,-4.2929,-4.3054,-4.3409,-4.3842,-4.4181,-4.4564,-4.4598,-4.4429,-4.4155,-4.4097,-4.3923,-4.3658,-4.3615,-4.3615,-4.3615,-4.3615,-4.3615,-4.3615,-4.3615,-4.3615,-4.3615,-4.3615,-4.3615,-4.3615,-4.3598,-4.3168,-4.2572,-4.2125,-4.1591,-4.0878,-4.021,-3.9564,-3.9373,-3.9033,-3.8694,-3.8151,-3.7224,-3.6507,-3.5991,-3.5672,-3.5234,-3.4568,-3.438,-3.438,-3.438,-3.438,-3.438,-3.438,-3.438,-3.438,-3.438,-3.438,-3.438,-3.438,-3.438,-3.438,-3.438,-3.438,-3.438,-3.438,-3.438,-3.438,-3.438,-3.438,-3.438,-3.438,-3.438,-3.438,-3.438,-3.438,-3.438,-3.438,-3.438,-3.438,-3.438,-3.438,-3.438,-3.438,-3.4153,-3.4095,-3.3964,-3.3732,-3.3543,-3.3543,-3.3499,-3.3412,-3.3282,-3.305,-3.2672,-3.228,-3.1874,-3.1482,-3.1206,-3.0945,-3.0627,-3.0612,-3.0612,-3.0612,-3.0598,-3.0477,-3.0176,-2.9732,-2.9093,-2.8454,-4.5267,-4.511,-4.4017,-4.3978,-4.4327,-4.3081,-4.3217,-4.4225,-4.3081,-4.2895,-4.3403,-4.2878,-4.3267,-4.3555,-4.369,-4.4045,-4.4418,-4.4514,-4.4355,-4.4126,-4.4056,-4.3864,-4.3658,-4.3615,-4.3615,-4.3615,-4.3615,-4.3615,-4.3615,-4.3615,-4.3615,-4.3615,-4.3615,-4.3615,-4.3615,-4.3582,-4.3333,-4.2804,-4.2506,-4.2175,-4.1574,-4.0895,-4.0216,-3.9561,-3.9397,-3.8978,-3.8178,-3.7178,-3.6352,-3.5913,-3.5382,-3.4887,-3.4549,-3.438,-3.438,-3.438,-3.438,-3.438,-3.438,-3.438,-3.438,-3.438,-3.438,-3.438,-3.438,-3.438,-3.438,-3.438,-3.438,-3.438,-3.438,-3.438,-3.438,-3.438,-3.438,-3.438,-3.438,-3.438,-3.438,-3.438,-3.438,-3.438,-3.438,-3.438,-3.438,-3.438,-3.438,-3.438,-3.438,-3.4366,-3.4298,-3.4254,-3.4037,-3.3949,-3.3949,-3.392,-3.3848,-3.3746,-3.3572,-3.3325,-3.2916,-3.2643,-3.2266,-3.17,-3.1351,-3.1032,-3.0757,-3.0699,-3.0685,-3.0627,-3.0312,-2.9886,-2.9376,-2.8839,-2.8203,-4.5072,-4.472,-4.449,-4.4496,-4.4462,-4.3606,-4.3741,-4.435,-4.3606,-4.369,-4.4265,-4.4259,-4.4175,-4.4344,-4.4395,-4.4513,-4.4525,-4.444,-4.427,-4.4068,-4.3998,-4.3822,-4.3658,-4.3615,-4.3615,-4.3615,-4.3615,-4.3615,-4.3615,-4.3615,-4.3615,-4.3615,-4.3615,-4.3615,-4.3615,-4.3598,-4.3549,-4.3234,-4.287,-4.2489,-4.2208,-4.1678,-4.0877,-4.0005,-3.974,-3.9095,-3.8006,-3.683,-3.5991,-3.5817,-3.5019,-3.4601,-3.4414,-3.438,-3.438,-3.438,-3.438,-3.438,-3.438,-3.438,-3.438,-3.438,-3.438,-3.438,-3.438,-3.438,-3.438,-3.438,-3.438,-3.438,-3.438,-3.438,-3.438,-3.438,-3.438,-3.438,-3.438,-3.438,-3.438,-3.438,-3.438,-3.438,-3.438,-3.438,-3.438,-3.438,-3.438,-3.438,-3.438,-3.438,-3.4351,-3.437,-3.4322,-3.4293,-3.4293,-3.4264,-3.424,-3.4196,-3.4095,-3.408,-3.3761,-3.3514,-3.3108,-3.2614,-3.1973,-3.1526,-3.1235,-3.1003,-3.0961,-3.1047,-3.0387,-2.9648,-2.9288,-2.8895,-2.7952,-4.4814,-4.4598,-4.4598,-4.4598,-4.453,-4.4198,-4.4231,-4.4513,-4.4198,-4.4231,-4.4513,-4.4598,-4.4598,-4.4598,-4.4598,-4.4525,-4.444,-4.4367,-4.4184,-4.4027,-4.3927,-4.3793,-4.3628,-4.3615,-4.3615,-4.3615,-4.3615,-4.3615,-4.3615,-4.3615,-4.3615,-4.3615,-4.3615,-4.3615,-4.3615,-4.3615,-4.3615,-4.3482,-4.3251,-4.3052,-4.3052,-4.2622,-4.1923,-4.0893,-4.0221,-3.9577,-3.8584,-3.6801,-3.5959,-3.5689,-3.4938,-3.4501,-3.438,-3.438,-3.438,-3.438,-3.438,-3.438,-3.438,-3.438,-3.438,-3.438,-3.438,-3.438,-3.438,-3.438,-3.438,-3.438,-3.438,-3.438,-3.438,-3.438,-3.438,-3.438,-3.438,-3.438,-3.438,-3.438,-3.438,-3.438,-3.438,-3.438,-3.438,-3.438,-3.438,-3.438,-3.438,-3.438,-3.438,-3.438,-3.438,-3.438,-3.438,-3.438,-3.438,-3.438,-3.438,-3.438,-3.438,-3.438,-3.4341,-3.3993,-3.3891,-3.3659,-3.2959,-3.2049,-3.1959,-3.1814,-3.1685,-3.1401,-3.0835,-3.0211,-2.9602,-2.8884,-2.798,-4.4598,-4.4598,-4.4598,-4.4598,-4.4598,-4.4598,-4.4581,-4.4598,-4.4581,-4.4564,-4.4598,-4.4598,-4.4598,-4.457,-4.4542,-4.444,-4.431,-4.4253,-4.4085,-4.3939,-4.3839,-4.3734,-4.3645,-4.3615,-4.3615,-4.3615,-4.3615,-4.3615,-4.3615,-4.3615,-4.3615,-4.3615,-4.3615,-4.3615,-4.3615,-4.3615,-4.3615,-4.3615,-4.3615,-4.3615,-4.3615,-4.3532,-4.2973,-4.1704,-4.1043,-4.0456,-3.9422,-3.7499,-3.6438,-3.5931,-3.517,-3.438,-3.438,-3.438,-3.438,-3.438,-3.438,-3.438,-3.438,-3.438,-3.438,-3.438,-3.438,-3.438,-3.438,-3.438,-3.438,-3.438,-3.438,-3.438,-3.438,-3.438,-3.438,-3.438,-3.438,-3.438,-3.438,-3.438,-3.438,-3.438,-3.438,-3.438,-3.438,-3.438,-3.438,-3.438,-3.438,-3.438,-3.438,-3.438,-3.438,-3.438,-3.438,-3.438,-3.438,-3.438,-3.438,-3.438,-3.438,-3.438,-3.438,-3.4327,-3.4221,-3.4105,-3.3379,-3.2577,-3.2616,-3.2364,-3.1811,-3.1393,-3.1175,-3.0561,-2.9596,-2.8948,-2.8231,-4.4598,-4.4598,-4.4598,-4.4598,-4.4598,-4.4598,-4.4598,-4.4598,-4.4598,-4.4598,-4.4598,-4.4598,-4.4598,-4.457,-4.444,-4.4338,-4.4224,-4.4114,-4.3969,-4.3868,-4.3734,-4.3658,-4.3598,-4.3615,-4.3615,-4.3615,-4.3615,-4.3615,-4.3615,-4.3615,-4.3615,-4.3615,-4.3615,-4.3615,-4.3615,-4.3615,-4.3615,-4.3615,-4.3615,-4.3615,-4.3615,-4.3598,-4.3013,-4.2325,-4.1802,-4.1211,-3.9945,-3.8216,-3.7132,-3.6572,-3.5248,-3.4491,-3.438,-3.438,-3.438,-3.438,-3.438,-3.438,-3.438,-3.438,-3.438,-3.438,-3.438,-3.438,-3.438,-3.438,-3.438,-3.438,-3.438,-3.438,-3.438,-3.438,-3.438,-3.438,-3.438,-3.438,-3.438,-3.438,-3.438,-3.438,-3.438,-3.438,-3.438,-3.438,-3.438,-3.438,-3.438,-3.438,-3.438,-3.438,-3.438,-3.438,-3.438,-3.438,-3.438,-3.438,-3.438,-3.438,-3.438,-3.438,-3.438,-3.438,-3.438,-3.4105,-3.3464,-3.3109,-3.2992,-3.2554,-3.1797,-3.1316,-3.1055,-3.0255,-2.9263,-2.8772,-2.853,-4.4598,-4.4598,-4.4598,-4.4598,-4.4598,-4.4598,-4.4598,-4.4598,-4.4598,-4.4598,-4.4598,-4.4598,-4.4598,-4.457,-4.4514,-4.4355,-4.4212,-4.4039,-4.3881,-4.3763,-4.3628,-4.3615,-4.3615,-4.3615,-4.3615,-4.3615,-4.3615,-4.3615,-4.3615,-4.3615,-4.3615,-4.3615,-4.3615,-4.3615,-4.3615,-4.3615,-4.3615,-4.3615,-4.3615,-4.3615,-4.3615,-4.3565,-4.3373,-4.2954,-4.2427,-4.1539,-4.0338,-3.8887,-3.7478,-3.6673,-3.5385,-3.4796,-3.4516,-3.438,-3.438,-3.438,-3.438,-3.438,-3.438,-3.438,-3.438,-3.438,-3.438,-3.438,-3.438,-3.438,-3.438,-3.438,-3.438,-3.438,-3.438,-3.438,-3.438,-3.438,-3.438,-3.438,-3.438,-3.438,-3.438,-3.438,-3.438,-3.438,-3.438,-3.438,-3.438,-3.438,-3.438,-3.438,-3.438,-3.438,-3.438,-3.438,-3.438,-3.438,-3.438,-3.438,-3.438,-3.438,-3.438,-3.438,-3.438,-3.438,-3.438,-3.438,-3.4037,-3.3695,-3.3368,-3.27,-3.1889,-3.1365,-3.0887,-3.0237,-2.9624,-2.945,-2.9265,-4.4598,-4.4598,-4.4598,-4.4598,-4.4598,-4.4598,-4.4598,-4.4598,-4.4598,-4.4598,-4.4598,-4.4598,-4.4598,-4.457,-4.4514,-4.4355,-4.4114,-4.4068,-4.3864,-4.3687,-4.3615,-4.3615,-4.3615,-4.3615,-4.3615,-4.3615,-4.3615,-4.3615,-4.3615,-4.3615,-4.3615,-4.3615,-4.3615,-4.3615,-4.3615,-4.3615,-4.3615,-4.3615,-4.3615,-4.3615,-4.3615,-4.3615,-4.3598,-4.3357,-4.2848,-4.199,-4.0928,-3.9608,-3.8124,-3.6671,-3.5732,-3.5058,-3.4545,-3.438,-3.438,-3.438,-3.438,-3.438,-3.438,-3.438,-3.438,-3.438,-3.438,-3.438,-3.438,-3.438,-3.438,-3.438,-3.438,-3.438,-3.438,-3.438,-3.438,-3.438,-3.438,-3.438,-3.438,-3.438,-3.438,-3.438,-3.438,-3.438,-3.438,-3.438,-3.438,-3.438,-3.438,-3.438,-3.438,-3.438,-3.438,-3.438,-3.438,-3.438,-3.438,-3.438,-3.438,-3.438,-3.438,-3.438,-3.438,-3.438,-3.438,-3.438,-3.4264,-3.3512,-3.2723,-3.2374,-3.1988,-3.1299,-3.074,-3.0589,-3.0252,-3.0037,-2.9793,-4.4598,-4.4598,-4.4598,-4.4598,-4.4598,-4.4598,-4.4598,-4.4598,-4.4598,-4.4598,-4.4598,-4.4598,-4.4598,-4.457,-4.444,-4.4298,-4.4097,-4.3969,-4.3805,-4.3658,-4.3615,-4.3615,-4.3615,-4.3615,-4.3615,-4.3615,-4.3615,-4.3615,-4.3615,-4.3615,-4.3615,-4.3615,-4.3615,-4.3615,-4.3615,-4.3615,-4.3615,-4.3615,-4.3615,-4.3615,-4.3615,-4.3615,-4.3615,-4.3615,-4.3443,-4.2953,-4.1724,-4.0427,-3.8772,-3.7045,-3.6049,-3.5131,-3.4588,-3.4395,-3.438,-3.438,-3.438,-3.438,-3.438,-3.438,-3.438,-3.438,-3.438,-3.438,-3.438,-3.438,-3.438,-3.438,-3.438,-3.438,-3.438,-3.438,-3.438,-3.438,-3.438,-3.438,-3.438,-3.438,-3.438,-3.438,-3.438,-3.438,-3.438,-3.438,-3.438,-3.438,-3.438,-3.438,-3.438,-3.438,-3.438,-3.438,-3.438,-3.438,-3.438,-3.438,-3.438,-3.438,-3.438,-3.438,-3.438,-3.438,-3.438,-3.4113,-3.3874,-3.2995,-3.2182,-3.1928,-3.1563,-3.102,-3.0582,-3.0305,-3.0165,-2.9921,-2.9818,-4.4598,-4.4598,-4.4598,-4.4598,-4.4598,-4.4598,-4.4598,-4.4598,-4.4598,-4.4598,-4.4598,-4.4598,-4.4598,-4.457,-4.4514,-4.4327,-4.4126,-4.4039,-4.3835,-4.3687,-4.3615,-4.3615,-4.3615,-4.3615,-4.3615,-4.3615,-4.3615,-4.3615,-4.3615,-4.3615,-4.3615,-4.3615,-4.3615,-4.3615,-4.3615,-4.3615,-4.3615,-4.3615,-4.3615,-4.3615,-4.3615,-4.3615,-4.3615,-4.3615,-4.3615,-4.274,-4.1432,-4.0847,-3.9062,-3.7317,-3.626,-3.5421,-3.4632,-3.4486,-3.438,-3.438,-3.438,-3.438,-3.438,-3.438,-3.438,-3.438,-3.438,-3.438,-3.438,-3.438,-3.438,-3.438,-3.438,-3.438,-3.438,-3.438,-3.438,-3.438,-3.438,-3.438,-3.438,-3.438,-3.438,-3.438,-3.438,-3.438,-3.438,-3.438,-3.438,-3.438,-3.438,-3.438,-3.438,-3.438,-3.438,-3.438,-3.438,-3.438,-3.438,-3.438,-3.438,-3.438,-3.438,-3.438,-3.438,-3.438,-3.4346,-3.3977,-3.3569,-3.284,-3.2218,-3.1709,-3.1132,-3.052,-3.0165,-2.9921,-2.9818,-2.9779,-2.9779,-4.4598,-4.4598,-4.4598,-4.4598,-4.4598,-4.4598,-4.4598,-4.4598,-4.4598,-4.4598,-4.4598,-4.4598,-4.4598,-4.457,-4.4497,-4.4355,-4.4126,-4.401,-4.3835,-4.3687,-4.3615,-4.3615,-4.3615,-4.3615,-4.3615,-4.3615,-4.3615,-4.3615,-4.3615,-4.3615,-4.3615,-4.3615,-4.3615,-4.3615,-4.3615,-4.3615,-4.3615,-4.3615,-4.3615,-4.3615,-4.3615,-4.3615,-4.3615,-4.3539,-4.3402,-4.2553,-4.1363,-4.0554,-3.9217,-3.7547,-3.6387,-3.577,-3.5053,-3.4545,-3.4443,-3.4395,-3.4395,-3.4409,-3.4395,-3.438,-3.438,-3.438,-3.438,-3.438,-3.438,-3.4395,-3.438,-3.438,-3.438,-3.4395,-3.4424,-3.438,-3.438,-3.438,-3.438,-3.438,-3.438,-3.438,-3.438,-3.438,-3.438,-3.438,-3.438,-3.438,-3.438,-3.438,-3.438,-3.438,-3.438,-3.438,-3.438,-3.438,-3.438,-3.438,-3.438,-3.438,-3.438,-3.438,-3.438,-3.438,-3.438,-3.438,-3.438,-3.4147,-3.3604,-3.2826,-3.2074,-3.1355,-3.0646,-2.996,-2.9818,-2.9779,-2.9779,-2.9779,-2.9779,-4.4598,-4.4598,-4.4598,-4.4598,-4.4598,-4.4598,-4.4598,-4.4598,-4.4598,-4.4598,-4.4598,-4.4598,-4.457,-4.4542,-4.4395,-4.4224,-4.4068,-4.3969,-4.3793,-4.3658,-4.3615,-4.3615,-4.3615,-4.3615,-4.3615,-4.3615,-4.3615,-4.3615,-4.3615,-4.3615,-4.3615,-4.3615,-4.3615,-4.3615,-4.3615,-4.3615,-4.3615,-4.3615,-4.3615,-4.3615,-4.3615,-4.3615,-4.3615,-4.3509,-4.3035,-4.2157,-4.1264,-4.0366,-3.9098,-3.7607,-3.6619,-3.5981,-3.5465,-3.482,-3.4617,-3.4646,-3.4603,-3.4559,-3.4486,-3.4472,-3.4574,-3.4617,-3.4719,-3.4762,-3.4574,-3.453,-3.4661,-3.4878,-3.4719,-3.4617,-3.4516,-3.4496,-3.4598,-3.4661,-3.4719,-3.4603,-3.4632,-3.438,-3.438,-3.438,-3.438,-3.438,-3.438,-3.438,-3.438,-3.438,-3.438,-3.438,-3.438,-3.438,-3.438,-3.438,-3.438,-3.438,-3.438,-3.438,-3.438,-3.438,-3.438,-3.438,-3.438,-3.438,-3.4332,-3.4216,-3.3416,-3.2398,-3.1613,-3.091,-3.0292,-2.9818,-2.9818,-2.9779,-2.9779,-2.9779,-2.9779,-4.4598,-4.4598,-4.4598,-4.4598,-4.4598,-4.4598,-4.4598,-4.4598,-4.4598,-4.4598,-4.4598,-4.4598,-4.4514,-4.4412,-4.431,-4.4167,-4.3969,-4.3939,-4.3793,-4.3628,-4.3615,-4.3615,-4.3615,-4.3615,-4.3615,-4.3615,-4.3615,-4.3615,-4.3615,-4.3615,-4.3615,-4.3615,-4.3615,-4.3615,-4.3615,-4.3615,-4.3615,-4.3615,-4.3615,-4.3615,-4.3615,-4.3615,-4.3568,-4.3539,-4.2789,-4.1901,-4.0982,-4.0104,-3.8964,-3.7652,-3.6787,-3.6272,-3.5909,-3.5401,-3.5256,-3.5488,-3.5633,-3.5677,-3.5662,-3.5662,-3.5459,-3.5343,-3.5343,-3.5517,-3.5633,-3.5677,-3.5677,-3.559,-3.5473,-3.5503,-3.5706,-3.5691,-3.572,-3.5633,-3.5561,-3.5247,-3.5058,-3.4617,-3.438,-3.438,-3.438,-3.4486,-3.4516,-3.4395,-3.438,-3.438,-3.438,-3.438,-3.438,-3.438,-3.438,-3.438,-3.438,-3.438,-3.438,-3.438,-3.438,-3.438,-3.438,-3.438,-3.438,-3.438,-3.4045,-3.3811,-3.2875,-3.1942,-3.1182,-3.0508,-3.0113,-2.9779,-2.9779,-2.9779,-2.9779,-2.9779,-2.9779,-4.4598,-4.4598,-4.4598,-4.4598,-4.4598,-4.4598,-4.4598,-4.4598,-4.4598,-4.4598,-4.457,-4.4542,-4.444,-4.431,-4.4167,-4.4097,-4.3898,-4.3793,-4.3763,-4.3598,-4.3615,-4.3615,-4.3615,-4.3615,-4.3615,-4.3615,-4.3615,-4.3615,-4.3615,-4.3615,-4.3615,-4.3615,-4.3615,-4.3615,-4.3615,-4.3615,-4.3615,-4.3615,-4.3615,-4.3615,-4.3568,-4.3462,-4.3312,-4.2912,-4.2205,-4.1313,-4.0523,-3.9677,-3.8809,-3.7762,-3.7106,-3.6664,-3.6475,-3.6185,-3.5952,-3.6185,-3.6286,-3.6272,-3.6214,-3.6562,-3.6344,-3.617,-3.6301,-3.6272,-3.6286,-3.6156,-3.6185,-3.6199,-3.6344,-3.633,-3.6344,-3.6373,-3.6359,-3.6257,-3.6098,-3.5784,-3.5604,-3.5212,-3.5067,-3.4994,-3.4951,-3.4907,-3.4719,-3.4486,-3.438,-3.438,-3.438,-3.4424,-3.4453,-3.4395,-3.4395,-3.438,-3.438,-3.438,-3.438,-3.438,-3.438,-3.438,-3.438,-3.438,-3.438,-3.438,-3.3845,-3.3332,-3.2577,-3.1796,-3.0784,-3.0126,-2.9882,-2.9779,-2.9779,-2.9779,-2.9779,-2.9779,-2.9779,-4.4564,-4.4581,-4.4547,-4.4462,-4.4496,-4.4429,-4.453,-4.4581,-4.457,-4.457,-4.457,-4.4384,-4.4281,-4.4224,-4.4027,-4.3898,-4.3839,-4.3687,-4.3628,-4.3598,-4.3615,-4.3615,-4.3615,-4.3615,-4.3615,-4.3615,-4.3615,-4.3615,-4.3615,-4.3615,-4.3615,-4.3615,-4.3615,-4.3615,-4.3615,-4.3615,-4.3615,-4.3615,-4.3615,-4.3615,-4.3568,-4.3295,-4.2974,-4.2412,-4.1526,-4.069,-3.9909,-3.9088,-3.8657,-3.806,-3.7652,-3.7426,-3.7099,-3.6678,-3.646,-3.6402,-3.6489,-3.6548,-3.6664,-3.7143,-3.7259,-3.7085,-3.678,-3.6519,-3.6519,-3.6707,-3.678,-3.6751,-3.678,-3.6635,-3.6533,-3.6591,-3.6635,-3.6562,-3.6489,-3.6359,-3.633,-3.617,-3.6083,-3.6025,-3.5981,-3.5836,-3.5415,-3.5096,-3.4873,-3.498,-3.5053,-3.5009,-3.4936,-3.4472,-3.4457,-3.438,-3.438,-3.438,-3.438,-3.4428,-3.438,-3.438,-3.438,-3.438,-3.438,-3.4298,-3.3894,-3.3332,-3.2541,-3.1599,-3.0495,-2.9998,-2.9856,-2.9779,-2.9779,-2.9779,-2.9779,-2.9779,-2.9779,-4.3741,-4.369,-4.3166,-4.2973,-4.3031,-4.3521,-4.4045,-4.4536,-4.4468,-4.444,-4.4587,-4.427,-4.4184,-4.4126,-4.3969,-4.3822,-4.3734,-4.3628,-4.3615,-4.3615,-4.3615,-4.3615,-4.3615,-4.3615,-4.3615,-4.3615,-4.3615,-4.3615,-4.3615,-4.3615,-4.3615,-4.3615,-4.3615,-4.3615,-4.3615,-4.3615,-4.3615,-4.3568,-4.3568,-4.3568,-4.3479,-4.3235,-4.2758,-4.2013,-4.1062,-4.0259,-3.952,-3.8767,-3.8389,-3.8175,-3.7659,-3.7447,-3.7883,-3.7404,-3.7114,-3.7622,-3.768,-3.7694,-3.768,-3.781,-3.7897,-3.7868,-3.7651,-3.7709,-3.7651,-3.7535,-3.7506,-3.7418,-3.7375,-3.7317,-3.7302,-3.7317,-3.7317,-3.7288,-3.7172,-3.7012,-3.6939,-3.678,-3.6693,-3.662,-3.6606,-3.6417,-3.5996,-3.5807,-3.5627,-3.572,-3.572,-3.5619,-3.5444,-3.5009,-3.4791,-3.4777,-3.4574,-3.4632,-3.4472,-3.4443,-3.4428,-3.438,-3.438,-3.438,-3.438,-3.4264,-3.3928,-3.3227,-3.2218,-3.1182,-3.0075,-2.983,-2.9779,-2.9779,-2.9779,-2.9779,-2.9779,-2.9779,-2.9779,-4.325,-4.2929,-4.2489,-4.2303,-4.2371,-4.2777,-4.3267,-4.3724,-4.4198,-4.4468,-4.444,-4.4212,-4.4085,-4.3998,-4.3852,-4.3687,-4.3645,-4.3615,-4.3615,-4.3615,-4.3615,-4.3615,-4.3615,-4.3615,-4.3615,-4.3615,-4.3615,-4.3615,-4.3615,-4.3615,-4.3615,-4.3615,-4.3615,-4.3615,-4.3615,-4.3615,-4.3509,-4.3492,-4.3462,-4.3492,-4.3295,-4.3021,-4.2412,-4.1608,-4.0588,-3.9929,-3.9124,-3.8412,-3.8277,-3.8202,-3.7752,-3.781,-3.8159,-3.7854,-3.7723,-3.8101,-3.8101,-3.8086,-3.8072,-3.8115,-3.8188,-3.8202,-3.8202,-3.8144,-3.813,-3.8014,-3.8043,-3.8028,-3.8101,-3.8144,-3.8173,-3.8188,-3.8173,-3.8144,-3.7912,-3.768,-3.7491,-3.7302,-3.7186,-3.7099,-3.6968,-3.6823,-3.662,-3.6475,-3.6251,-3.6141,-3.6069,-3.6054,-3.5952,-3.572,-3.5561,-3.5517,-3.5154,-3.4927,-3.4733,-3.4559,-3.4472,-3.4443,-3.438,-3.438,-3.438,-3.4162,-3.3825,-3.2875,-3.1733,-3.0822,-2.9934,-2.983,-2.9779,-2.9779,-2.9779,-2.9779,-2.9779,-2.9779,-2.9779,-4.2828,-4.2202,-4.2151,-4.2049,-4.2219,-4.2286,-4.2405,-4.2557,-4.3967,-4.4418,-4.4209,-4.4093,-4.3998,-4.3898,-4.3734,-4.3645,-4.3615,-4.3615,-4.3615,-4.3615,-4.3615,-4.3615,-4.3615,-4.3615,-4.3615,-4.3615,-4.3615,-4.3615,-4.3615,-4.3615,-4.3615,-4.3615,-4.3615,-4.3615,-4.3615,-4.3615,-4.3509,-4.3402,-4.3372,-4.3372,-4.3021,-4.2601,-4.19,-4.069,-4.0015,-3.9463,-3.8583,-3.8202,-3.8202,-3.8202,-3.8188,-3.8159,-3.8159,-3.8159,-3.8173,-3.8188,-3.8202,-3.8202,-3.8202,-3.8202,-3.8202,-3.8202,-3.8202,-3.8202,-3.8202,-3.8202,-3.8202,-3.8202,-3.8202,-3.8202,-3.8202,-3.8202,-3.8202,-3.8202,-3.8072,-3.7955,-3.7883,-3.7752,-3.7723,-3.7636,-3.752,-3.7375,-3.7317,-3.7172,-3.707,-3.6707,-3.6649,-3.6678,-3.6606,-3.6504,-3.6257,-3.6199,-3.5778,-3.5372,-3.5116,-3.4893,-3.4588,-3.4486,-3.4486,-3.438,-3.438,-3.4079,-3.3722,-3.2662,-3.1563,-3.0746,-3.0075,-2.9895,-2.9779,-2.9779,-2.9779,-2.9779,-2.9804,-2.9867,-2.9829,-4.1627,-4.1407,-4.0874,-4.0942,-4.1508,-4.2049,-4.2527,-4.3069,-4.3962,-4.3985,-4.3569,-4.3639,-4.3793,-4.3839,-4.3704,-4.3615,-4.3615,-4.3615,-4.3615,-4.3615,-4.3615,-4.3615,-4.3615,-4.3615,-4.3615,-4.3615,-4.3615,-4.3615,-4.3615,-4.3615,-4.3615,-4.3615,-4.3568,-4.3539,-4.3539,-4.3539,-4.3402,-4.3204,-4.3143,-4.2943,-4.2585,-4.2238,-4.1607,-4.0638,-3.9945,-3.9262,-3.856,-3.8202,-3.8202,-3.8202,-3.8202,-3.8202,-3.8202,-3.8202,-3.8202,-3.8202,-3.8202,-3.8202,-3.8202,-3.8202,-3.8202,-3.8202,-3.8202,-3.8202,-3.8202,-3.8202,-3.8202,-3.8202,-3.8202,-3.8202,-3.8202,-3.8202,-3.8202,-3.8202,-3.8202,-3.8202,-3.8202,-3.8202,-3.8202,-3.813,-3.8028,-3.7955,-3.7897,-3.7854,-3.7796,-3.7767,-3.7796,-3.7781,-3.768,-3.752,-3.6939,-3.6736,-3.6359,-3.5967,-3.5662,-3.5378,-3.5096,-3.482,-3.4762,-3.4583,-3.4438,-3.3894,-3.3381,-3.2448,-3.1466,-3.0709,-3.0101,-2.9856,-2.9779,-2.9779,-2.9917,-2.998,-3.0093,-3.0181,-3.0043,-4.1001,-4.073,-4.0646,-4.0586,-4.0754,-4.143,-4.1721,-4.1839,-4.2713,-4.2908,-4.273,-4.3302,-4.3763,-4.3809,-4.3645,-4.3615,-4.3615,-4.3615,-4.3615,-4.3615,-4.3615,-4.3615,-4.3615,-4.3615,-4.3615,-4.3615,-4.3615,-4.3615,-4.3615,-4.3615,-4.3615,-4.3602,-4.3525,-4.3435,-4.3388,-4.3281,-4.3146,-4.2898,-4.2743,-4.2397,-4.1981,-4.1655,-4.1209,-4.0363,-3.9677,-3.9023,-3.8598,-3.8202,-3.8202,-3.8202,-3.8202,-3.8202,-3.8202,-3.8202,-3.8202,-3.8202,-3.8202,-3.8202,-3.8202,-3.8202,-3.8202,-3.8202,-3.8202,-3.8202,-3.8202,-3.8202,-3.8202,-3.8202,-3.8202,-3.8202,-3.8202,-3.8202,-3.8202,-3.8202,-3.8202,-3.8202,-3.8202,-3.8202,-3.8202,-3.8173,-3.8115,-3.8115,-3.8072,-3.8057,-3.8014,-3.8014,-3.8159,-3.8173,-3.8188,-3.8202,-3.7694,-3.7317,-3.6939,-3.6736,-3.6548,-3.6141,-3.5735,-3.543,-3.5111,-3.5082,-3.494,-3.3872,-3.2967,-3.2218,-3.1466,-3.0709,-3.0203,-3.0023,-2.983,-2.9779,-2.9993,-3.0218,-3.0357,-3.0557,-3.062,-4.0654,-4.018,-4.0713,-4.0568,-4.0069,-4.0675,-4.0697,-4.0371,-4.1355,-4.1988,-4.2287,-4.3373,-4.3667,-4.3674,-4.3615,-4.3615,-4.3615,-4.3615,-4.3615,-4.3615,-4.3615,-4.3615,-4.3615,-4.3615,-4.3615,-4.3615,-4.3615,-4.3615,-4.3615,-4.3615,-4.3631,-4.3605,-4.3487,-4.3321,-4.3152,-4.2981,-4.2859,-4.243,-4.2077,-4.1634,-4.1288,-4.1024,-4.0566,-3.9975,-3.9328,-3.8797,-3.8389,-3.8202,-3.8202,-3.8202,-3.8202,-3.8202,-3.8202,-3.8202,-3.8202,-3.8202,-3.8202,-3.8202,-3.8202,-3.8202,-3.8202,-3.8202,-3.8202,-3.8202,-3.8202,-3.8202,-3.8202,-3.8202,-3.8202,-3.8202,-3.8202,-3.8231,-3.8231,-3.8246,-3.8246,-3.8217,-3.8217,-3.8217,-3.8231,-3.8217,-3.8202,-3.8202,-3.8202,-3.8202,-3.8202,-3.8202,-3.8202,-3.8202,-3.8202,-3.8202,-3.7984,-3.7781,-3.7578,-3.7418,-3.723,-3.6896,-3.6373,-3.6011,-3.5735,-3.5691,-3.5284,-3.384,-3.2775,-3.2218,-3.1466,-3.0824,-3.0509,-3.0356,-3.0151,-3.0136,-3.0156,-3.047,-3.0846,-3.106,-3.1361,-4.001,-3.9798,-3.9949,-3.9889,-3.9847,-4.0551,-4.0996,-4.1438,-4.2149,-4.2812,-4.3107,-4.3359,-4.3628,-4.3615,-4.3615,-4.3615,-4.3615,-4.3615,-4.3615,-4.3615,-4.3615,-4.3615,-4.3615,-4.3615,-4.3615,-4.3631,-4.3648,-4.3631,-4.3747,-4.3714,-4.3866,-4.4235,-4.4365,-4.4151,-4.3871,-4.3554,-4.2977,-4.2343,-4.1909,-4.1629,-4.0842,-4.0524,-4.0181,-3.9651,-3.9177,-3.8723,-3.8389,-3.824,-3.8202,-3.8202,-3.8202,-3.8202,-3.8202,-3.8202,-3.8202,-3.8202,-3.8202,-3.8202,-3.8202,-3.8202,-3.8202,-3.8202,-3.8202,-3.8202,-3.8202,-3.8202,-3.8202,-3.8202,-3.8202,-3.8202,-3.8217,-3.8304,-3.8333,-3.8362,-3.8376,-3.8289,-3.8246,-3.8275,-3.8289,-3.8246,-3.8202,-3.8202,-3.8202,-3.8202,-3.8202,-3.8202,-3.8202,-3.8202,-3.8202,-3.8202,-3.8202,-3.8115,-3.8028,-3.7723,-3.7389,-3.7389,-3.6997,-3.6635,-3.6315,-3.6199,-3.5332,-3.3428,-3.2499,-3.2291,-3.1729,-3.1057,-3.0842,-3.0624,-3.11,-3.1084,-3.0678,-3.0721,-3.1173,-3.1612,-3.1938]},{"header":{"parameterUnit":"m.s-1","parameterCategory":1,"la1":31.0,"la2":29.5877,"lo1":-88.7671,"lo2":-86.6584,"dy":0.0162,"dx":0.0185,"nx":115,"ny":88,"refTime":"2023-02-26T18:00:00:Z","depth":0,"parameterNumber":3,"parameterNumberName":"V-component_of_WINDS"},"data":[0.0,0.0,0.0,0.0,0.0,0.0,0.0,0.0,0.0,0.0,0.0,0.0,0.0,0.0,0.0,0.0,0.0,0.0,0.0,0.0,0.0,0.0,0.0,0.0,0.0,0.0,0.0,0.0,0.0,0.0,0.0,0.0,0.0,0.0,0.0,0.0,0.0,0.0,0.0,0.0,0.0,0.0,0.0,0.0,0.0,0.0,0.0,0.0,0.0,0.0,0.0,0.0,0.0,0.0,0.0,0.0,0.0,0.0,0.0,0.0,0.0,0.0,0.0,0.0,0.0,0.0,0.0,0.0,0.0,0.0,0.0,0.0,0.0,0.0,0.0,0.0,0.0,0.0,0.0,0.0,0.0,0.0,0.0,0.0,0.0,0.0,0.0,0.0,0.0,0.0,0.0,0.0,0.0,0.0,0.0,0.0,0.0,0.0,0.0,0.0,0.0,0.0,0.0,0.0,0.0,0.0,0.0,0.0,0.0,0.0,0.0,0.0,0.0,0.0,0.0,0.0,0.0,0.0,0.0,0.0,0.0,0.0,0.0,0.0,0.0,0.0,0.0,0.0,0.0,0.0,0.0,0.0,0.0,0.0,0.0,0.0,0.0,0.0,0.0,0.0,0.0,0.0,0.0,0.0,0.0,0.0,0.0,0.0,0.0,0.0,0.0,0.0,0.0,0.0,0.0,0.0,0.0,0.0,0.0,0.0,0.0,0.0,0.0,0.0,0.0,0.0,0.0,0.0,0.0,0.0,0.0,0.0,0.0,0.0,0.0,0.0,0.0,0.0,0.0,0.0,0.0,0.0,0.0,0.0,0.0,0.0,0.0,0.0,0.0,0.0,0.0,0.0,0.0,0.0,0.0,0.0,0.0,0.0,0.0,0.0,0.0,0.0,0.0,0.0,0.0,0.0,0.0,0.0,0.0,0.0,0.0,0.0,0.0,0.0,0.0,0.0,0.0,0.0,0.0,0.0,0.0,0.0,0.0,0.0,0.0,0.0,0.0,0.0,0.0,0.0,0.0,0.0,0.0,0.0,0.0,0.0,0.0,0.0,0.0,0.0,0.0,0.0,0.0,0.0,0.0,0.0,0.0,0.0,0.0,0.0,0.0,0.0,0.0,0.0,0.0,0.0,0.0,0.0,0.0,0.0,0.0,0.0,0.0,0.0,0.0,0.0,0.0,0.0,0.0,0.0,0.0,0.0,0.0,0.0,0.0,0.0,0.0,0.0,0.0,0.0,0.0,0.0,0.0,0.0,0.0,0.0,0.0,0.0,0.0,0.0,0.0,0.0,0.0,0.0,0.0,0.0,0.0,0.0,0.0,0.0,0.0,0.0,0.0,0.0,0.0,0.0,0.0,0.0,0.0,0.0,0.0,0.0,0.0,0.0,0.0,0.0,0.0,0.0,0.0,0.0,0.0,0.0,0.0,0.0,0.0,0.0,0.0,0.0,0.0,0.0,0.0,0.0,0.0,0.0,0.0,0.0,0.0,0.0,0.0,0.0,0.0,0.0,0.0,0.0,0.0,0.0,0.0,0.0,0.0,0.0,0.0,0.0,0.0,0.0,0.0,0.0,0.0,0.0,0.0,0.0,0.0,0.0,0.0,0.0,0.0,0.0,0.0,0.0,0.0,0.0,0.0,0.0,0.0,0.0,0.0,0.0,0.0,0.0,0.0,0.0,0.0,0.0,0.0,0.0,0.0,0.0,0.0,0.0,0.0,0.0,0.0,0.0,0.0,0.0,0.0,0.0,0.0,0.0,0.0,0.0,0.0,0.0,0.0,0.0,0.0,0.0,0.0,0.0,0.0,0.0,0.0,0.0,0.0,0.0,0.0,0.0,0.0,0.0,0.0,0.0,0.0,0.0,0.0,0.0,0.0,0.0,0.0,0.0,0.0,0.0,0.0,0.0,0.0,0.0,0.0,0.0,0.0,0.0,0.0,0.0,0.0,0.0,0.0,0.0,0.0,0.0,0.0,0.0,0.0,0.0,0.0,0.0,0.0,0.0,0.0,0.0,0.0,0.0,0.0,0.0,0.0,0.0,0.0,0.0,0.0,0.0,0.0,0.0,0.0,0.0,0.0,0.0,0.0,0.0,0.0,0.0,0.0,0.0,0.0,0.0,0.0,0.0,0.0,0.0,0.0,0.0,0.0,0.0,0.0,0.0,0.0,0.0,0.0,0.0,0.0,0.0,0.0,0.0,0.0,0.0,0.0,0.0,0.0,0.0,0.0,0.0,0.0,0.0,0.0,0.0,0.0,0.0,0.0,0.0,0.0,0.0,0.0,0.0,0.0,0.0,0.0,0.0,0.0,0.0,0.0,0.0,0.0,0.0,0.0,0.0,0.0,0.0,0.0,0.0,0.0,0.0,0.0,0.0,0.0,0.0,0.0,0.0,0.0,0.0,0.0,0.0,0.0,0.0,0.0,0.0,0.0,0.0,0.0,0.0,0.0,0.0,0.0,0.0,0.0,0.0,0.0,0.0,0.0,0.0,0.0,0.0,0.0,0.0,0.0,0.0,0.0,0.0,0.0,0.0,0.0,0.0,0.0,0.0,0.0,0.0,0.0,0.0,0.0,0.0,0.0,0.0,0.0,0.0,0.0,0.0,0.0,0.0,0.0,0.0,0.0,0.0,0.0,0.0,0.0,0.0,0.0,0.0,0.0,0.0,0.0,0.0,0.0,0.0,0.0,0.0,0.0,0.0,0.0,0.0,0.0,0.0,0.0,0.0,0.0,0.0,0.0,0.0,0.0,0.0,0.0,0.0,0.0,0.0,0.0,0.0,0.0,0.0,0.0,0.0,0.0,0.0,0.0,0.0,0.0,0.0,0.0,0.0,0.0,0.0,0.0,0.0,0.0,0.0,0.0,0.0,0.0,0.0,0.0,0.0,0.0,0.0,0.0,0.0,0.0,0.0,0.0,0.0,0.0,0.0,0.0,0.0,0.0,0.0,0.0,0.0,0.0,0.0,0.0,0.0,0.0,0.0,0.0,0.0,0.0,0.0,0.0,0.0,0.0,0.0,0.0,0.0,0.0,0.0,0.0,0.0,0.0,0.0,0.0,0.0,0.0,0.0,0.0,0.0,0.0,0.0,0.0,0.0,0.0,0.0,0.0,0.0,0.0,0.0,0.0,0.0,0.0,0.0,0.0,0.0,0.0,0.0,0.0,0.0,0.0,0.0,0.0,0.0,0.0,0.0,0.0,0.0,0.0,0.0,0.0,0.0,0.0,0.0,0.0,0.0,0.0,0.0,0.0,0.0,0.0,0.0,0.0,0.0,0.0,0.0,0.0,0.0,0.0,0.0,0.0,0.0,0.0,0.0,0.0,0.0,0.0,0.0,0.0,0.0,0.0,0.0,0.0,0.0,0.0,0.0,0.0,0.0,0.0,0.0,0.0,0.0,0.0,0.0,0.0,0.0,0.0,0.0,0.0,0.0,0.0,0.0,0.0,0.0,0.0,0.0,0.0,0.0,0.0,0.0,0.0,0.0,0.0,0.0,0.0,0.0,0.0,0.0,0.0,0.0,0.0,0.0,0.0,0.0,0.0,0.0,0.0,0.0,0.0,0.0,0.0,0.0,0.0,0.0,0.0,0.0,0.0,0.0,0.0,0.0,0.0,0.0,0.0,0.0,0.0,0.0,0.0,0.0,0.0,0.0,0.0,0.0,0.0,0.0,0.0,0.0,0.0,0.0,0.0,0.0,0.0,0.0,0.0,0.0,0.0,0.0,0.0,0.0,0.0,0.0,0.0,0.0,0.0,0.0,0.0,0.0,0.0,0.0,0.0,0.0,0.0,0.0,0.0,0.0,0.0,0.0,0.0,0.0,0.0,0.0,0.0,0.0,0.0,0.0,0.0,0.0,0.0,0.0,0.0,0.0,0.0,0.0,0.0,0.0,0.0,0.0,0.0,0.0,0.0,0.0,0.0,0.0,0.0,0.0,0.0,0.0,0.0,0.0,0.0,0.0,0.0,0.0,0.0,0.0,0.0,0.0,0.0,0.0,0.0,0.0,0.0,0.0,0.0,0.0,0.0,0.0,0.0,0.0,0.0,0.0,0.0,0.0,0.0,0.0,0.0,0.0,0.0,0.0,0.0,0.0,0.0,0.0,0.0,0.0,0.0,0.0,0.0,0.0,0.0,0.0,0.0,0.0,0.0,0.0,0.0,0.0,0.0,0.0,0.0,0.0,0.0,0.0,0.0,0.0,0.0,0.0,0.0,0.0,0.0,0.0,0.0,0.0,0.0,0.0,0.0,0.0,0.0,0.0,-1.413,0.0,0.0,0.0,0.0,0.0,0.0,0.0,0.0,0.0,0.0,0.0,0.0,0.0,0.0,0.0,0.0,0.0,0.0,0.0,0.0,0.0,0.0,0.0,0.0,0.0,0.0,0.0,0.0,0.0,0.0,0.0,0.0,0.0,0.0,0.0,0.0,0.0,0.0,0.0,0.0,0.0,0.0,0.0,0.0,0.0,0.0,0.0,0.0,0.0,0.0,0.0,0.0,0.0,0.0,0.0,0.0,0.0,0.0,0.0,0.0,0.0,0.0,0.0,0.0,0.0,0.0,0.0,0.0,0.0,0.0,0.0,0.0,0.0,0.0,0.0,0.0,0.0,0.0,0.0,0.0,0.0,0.0,0.0,0.0,0.0,0.0,0.0,0.0,0.0,0.0,0.0,0.0,0.0,0.0,0.0,0.0,0.0,0.0,0.0,0.0,0.0,0.0,0.0,0.0,0.0,0.0,0.0,0.0,0.0,0.0,-1.444,-1.4243,-1.4243,-1.4208,-1.4088,0.0,0.0,0.0,0.0,0.0,0.0,0.0,0.0,0.0,0.0,0.0,0.0,0.0,0.0,0.0,0.0,0.0,0.0,0.0,0.0,0.0,0.0,0.0,0.0,0.0,0.0,0.0,0.0,0.0,0.0,0.0,0.0,0.0,0.0,0.0,0.0,0.0,0.0,0.0,0.0,0.0,0.0,0.0,0.0,0.0,0.0,0.0,0.0,0.0,0.0,0.0,0.0,0.0,0.0,0.0,0.0,0.0,0.0,0.0,0.0,0.0,0.0,0.0,0.0,0.0,0.0,0.0,0.0,0.0,0.0,0.0,0.0,0.0,0.0,0.0,0.0,0.0,0.0,0.0,0.0,0.0,0.0,0.0,0.0,0.0,0.0,0.0,0.0,0.0,0.0,0.0,0.0,0.0,0.0,0.0,0.0,0.0,0.0,0.0,0.0,0.0,0.0,0.0,0.0,0.0,0.0,0.0,0.0,0.0,0.0,0.0,0.0,-1.4088,-1.4124,-1.4166,0.0,0.0,0.0,0.0,0.0,0.0,0.0,0.0,0.0,0.0,0.0,0.0,0.0,0.0,0.0,0.0,0.0,0.0,0.0,0.0,0.0,0.0,0.0,0.0,0.0,0.0,0.0,0.0,0.0,0.0,0.0,0.0,0.0,0.0,0.0,0.0,0.0,0.0,0.0,0.0,0.0,0.0,0.0,0.0,0.0,0.0,0.0,0.0,0.0,0.0,0.0,0.0,0.0,0.0,0.0,0.0,0.0,0.0,0.0,0.0,0.0,0.0,0.0,0.0,0.0,0.0,0.0,0.0,0.0,0.0,0.0,0.0,0.0,0.0,0.0,0.0,0.0,0.0,0.0,0.0,0.0,0.0,0.0,0.0,0.0,0.0,0.0,0.0,0.0,0.0,0.0,0.0,0.0,0.0,0.0,0.0,0.0,0.0,0.0,0.0,0.0,0.0,0.0,0.0,0.0,0.0,0.0,0.0,0.0,0.0,-1.413,-1.4088,-1.4088,0.0,-1.4356,0.0,0.0,0.0,0.0,0.0,0.0,0.0,0.0,0.0,0.0,0.0,0.0,0.0,0.0,0.0,0.0,0.0,0.0,0.0,0.0,0.0,0.0,0.0,0.0,0.0,0.0,0.0,0.0,0.0,0.0,0.0,0.0,0.0,0.0,0.0,0.0,0.0,0.0,0.0,0.0,0.0,0.0,0.0,0.0,0.0,0.0,0.0,0.0,0.0,0.0,0.0,0.0,0.0,0.0,0.0,0.0,0.0,0.0,0.0,0.0,0.0,0.0,0.0,0.0,0.0,0.0,0.0,0.0,0.0,0.0,0.0,0.0,0.0,0.0,0.0,0.0,0.0,0.0,0.0,0.0,0.0,0.0,0.0,0.0,0.0,0.0,0.0,0.0,0.0,0.0,0.0,0.0,0.0,0.0,0.0,0.0,0.0,0.0,0.0,0.0,0.0,0.0,0.0,0.0,0.0,0.0,0.0,0.0,0.0,0.0,-1.4088,-1.4088,-1.4088,-1.4208,0.0,0.0,0.0,0.0,0.0,0.0,0.0,0.0,0.0,0.0,0.0,0.0,0.0,0.0,0.0,0.0,0.0,0.0,0.0,0.0,0.0,0.0,0.0,0.0,0.0,0.0,0.0,0.0,0.0,0.0,0.0,0.0,0.0,0.0,0.0,0.0,0.0,0.0,0.0,0.0,0.0,0.0,0.0,0.0,0.0,0.0,0.0,0.0,0.0,0.0,0.0,0.0,0.0,0.0,0.0,0.0,0.0,0.0,0.0,0.0,0.0,0.0,0.0,0.0,0.0,0.0,0.0,0.0,0.0,0.0,0.0,0.0,0.0,0.0,0.0,0.0,0.0,0.0,0.0,0.0,0.0,0.0,0.0,0.0,0.0,0.0,0.0,0.0,0.0,0.0,0.0,0.0,0.0,0.0,0.0,0.0,0.0,0.0,0.0,0.0,0.0,0.0,0.0,0.0,0.0,0.0,0.0,0.0,0.0,0.0,-1.4286,-1.4166,-1.4088,-1.4088,-1.4208,-1.4398,0.0,0.0,0.0,0.0,0.0,0.0,0.0,0.0,0.0,0.0,0.0,0.0,0.0,0.0,0.0,0.0,0.0,0.0,0.0,0.0,0.0,0.0,0.0,0.0,0.0,0.0,0.0,0.0,0.0,0.0,0.0,0.0,0.0,0.0,0.0,0.0,0.0,0.0,0.0,0.0,0.0,0.0,0.0,0.0,0.0,0.0,0.0,0.0,0.0,0.0,0.0,0.0,0.0,0.0,0.0,0.0,0.0,0.0,0.0,0.0,0.0,0.0,0.0,0.0,0.0,0.0,0.0,0.0,0.0,0.0,0.0,0.0,0.0,0.0,0.0,0.0,0.0,0.0,0.0,0.0,0.0,0.0,0.0,0.0,0.0,0.0,0.0,0.0,0.0,0.0,0.0,0.0,0.0,0.0,0.0,0.0,0.0,0.0,0.0,0.0,0.0,0.0,0.0,0.0,0.0,0.0,0.0,0.0,-1.4692,-1.4482,-1.4279,-1.413,-1.4088,-1.4201,0.0,0.0,0.0,0.0,0.0,0.0,0.0,0.0,0.0,0.0,0.0,0.0,0.0,0.0,0.0,0.0,0.0,0.0,0.0,0.0,0.0,0.0,0.0,0.0,0.0,0.0,0.0,0.0,0.0,0.0,0.0,0.0,0.0,0.0,0.0,0.0,0.0,0.0,0.0,0.0,0.0,0.0,0.0,0.0,0.0,0.0,0.0,0.0,0.0,0.0,0.0,0.0,0.0,0.0,0.0,0.0,0.0,0.0,0.0,0.0,0.0,0.0,0.0,0.0,0.0,0.0,0.0,0.0,0.0,0.0,0.0,0.0,0.0,0.0,0.0,0.0,0.0,0.0,0.0,0.0,0.0,0.0,0.0,0.0,0.0,0.0,0.0,0.0,0.0,0.0,0.0,0.0,0.0,0.0,0.0,0.0,0.0,0.0,0.0,0.0,0.0,0.0,0.0,0.0,0.0,0.0,0.0,0.0,0.0,-1.4692,-1.4363,-1.4166,-1.4088,-1.4088,-1.4124,0.0,0.0,0.0,0.0,0.0,0.0,0.0,0.0,0.0,0.0,0.0,0.0,0.0,0.0,0.0,0.0,0.0,0.0,0.0,0.0,0.0,0.0,0.0,0.0,0.0,0.0,0.0,0.0,0.0,0.0,0.0,0.0,0.0,0.0,0.0,0.0,0.0,0.0,0.0,0.0,0.0,0.0,0.0,0.0,0.0,0.0,0.0,0.0,0.0,0.0,0.0,0.0,0.0,0.0,0.0,0.0,0.0,0.0,0.0,0.0,0.0,0.0,0.0,0.0,0.0,0.0,0.0,0.0,0.0,0.0,0.0,0.0,0.0,0.0,0.0,0.0,0.0,0.0,0.0,0.0,0.0,0.0,0.0,0.0,0.0,0.0,0.0,0.0,0.0,0.0,0.0,0.0,0.0,0.0,0.0,0.0,0.0,0.0,0.0,0.0,0.0,0.0,0.0,0.0,0.0,0.0,0.0,0.0,0.0,-1.4761,0.0,-1.4275,-1.4405,-1.4275,-1.4271,0.0,0.0,0.0,0.0,0.0,0.0,0.0,0.0,0.0,0.0,0.0,0.0,0.0,0.0,0.0,0.0,0.0,0.0,0.0,0.0,0.0,0.0,0.0,0.0,0.0,0.0,0.0,0.0,0.0,0.0,0.0,0.0,0.0,0.0,0.0,0.0,0.0,0.0,0.0,0.0,0.0,0.0,0.0,0.0,0.0,0.0,0.0,0.0,0.0,0.0,0.0,0.0,0.0,0.0,0.0,0.0,0.0,0.0,0.0,0.0,0.0,0.0,0.0,0.0,0.0,0.0,0.0,0.0,0.0,0.0,0.0,0.0,0.0,0.0,0.0,0.0,0.0,0.0,0.0,0.0,0.0,0.0,0.0,0.0,0.0,0.0,0.0,0.0,0.0,0.0,0.0,0.0,0.0,0.0,0.0,0.0,0.0,0.0,0.0,0.0,0.0,0.0,0.0,0.0,0.0,0.0,0.0,0.0,-1.5057,-1.49,-1.466,-1.4663,-1.4981,-1.4676,-1.4623,0.0,0.0,0.0,0.0,0.0,0.0,0.0,0.0,0.0,0.0,0.0,0.0,0.0,0.0,0.0,0.0,0.0,0.0,0.0,0.0,0.0,0.0,0.0,0.0,0.0,0.0,0.0,0.0,0.0,0.0,0.0,0.0,0.0,0.0,0.0,0.0,0.0,0.0,0.0,0.0,0.0,0.0,0.0,0.0,0.0,0.0,0.0,0.0,0.0,0.0,0.0,0.0,0.0,0.0,0.0,0.0,0.0,0.0,0.0,0.0,0.0,0.0,0.0,0.0,0.0,0.0,0.0,0.0,0.0,0.0,0.0,0.0,0.0,0.0,0.0,0.0,0.0,0.0,0.0,0.0,0.0,0.0,0.0,0.0,0.0,0.0,0.0,0.0,0.0,0.0,0.0,0.0,0.0,0.0,0.0,0.0,0.0,0.0,0.0,0.0,0.0,0.0,0.0,0.0,0.0,0.0,0.0,0.0,0.0,-1.463,-1.4961,-1.5077,-1.5015,-1.5258,-1.53,0.0,0.0,0.0,0.0,0.0,0.0,0.0,0.0,0.0,0.0,0.0,0.0,0.0,0.0,0.0,0.0,0.0,0.0,0.0,0.0,0.0,0.0,0.0,0.0,0.0,0.0,0.0,0.0,0.0,0.0,0.0,0.0,0.0,0.0,0.0,0.0,0.0,0.0,0.0,0.0,0.0,0.0,0.0,0.0,0.0,0.0,0.0,0.0,0.0,0.0,0.0,0.0,0.0,0.0,0.0,0.0,0.0,0.0,0.0,0.0,0.0,0.0,0.0,0.0,0.0,0.0,0.0,0.0,0.0,0.0,0.0,0.0,0.0,0.0,0.0,0.0,0.0,0.0,0.0,0.0,0.0,0.0,0.0,0.0,0.0,0.0,0.0,0.0,0.0,0.0,0.0,0.0,0.0,0.0,0.0,0.0,0.0,0.0,0.0,0.0,0.0,0.0,0.0,0.0,0.0,0.0,0.0,0.0,0.0,-1.5693,-1.615,-1.6421,-1.6491,-1.6504,-1.6364,-1.6084,0.0,0.0,0.0,0.0,0.0,0.0,0.0,0.0,0.0,0.0,0.0,0.0,0.0,0.0,0.0,0.0,0.0,0.0,0.0,0.0,0.0,0.0,0.0,0.0,0.0,0.0,0.0,0.0,0.0,0.0,0.0,0.0,0.0,0.0,0.0,0.0,0.0,0.0,0.0,0.0,0.0,0.0,0.0,0.0,0.0,0.0,0.0,0.0,0.0,0.0,0.0,0.0,0.0,0.0,0.0,0.0,0.0,0.0,0.0,0.0,0.0,0.0,0.0,0.0,0.0,0.0,0.0,0.0,0.0,0.0,0.0,0.0,0.0,0.0,0.0,0.0,0.0,0.0,0.0,0.0,0.0,0.0,0.0,0.0,0.0,0.0,0.0,0.0,0.0,0.0,0.0,0.0,0.0,0.0,0.0,0.0,0.0,0.0,0.0,0.0,0.0,0.0,0.0,0.0,0.0,0.0,0.0,0.0,-1.7739,-1.8133,-1.8543,-1.8896,-1.8154,-1.7648,0.0,0.0,0.0,0.0,0.0,0.0,0.0,0.0,0.0,0.0,0.0,0.0,0.0,0.0,0.0,0.0,0.0,0.0,0.0,0.0,0.0,0.0,0.0,0.0,0.0,0.0,0.0,0.0,0.0,0.0,0.0,0.0,0.0,0.0,0.0,0.0,0.0,0.0,0.0,0.0,0.0,0.0,0.0,0.0,0.0,0.0,0.0,0.0,0.0,0.0,0.0,0.0,0.0,0.0,0.0,0.0,0.0,0.0,0.0,0.0,0.0,0.0,0.0,0.0,0.0,0.0,0.0,0.0,0.0,0.0,0.0,0.0,0.0,0.0,0.0,0.0,0.0,0.0,0.0,0.0,0.0,0.0,0.0,0.0,0.0,0.0,0.0,0.0,0.0,0.0,0.0,0.0,0.0,0.0,0.0,0.0,0.0,0.0,0.0,0.0,0.0,0.0,0.0,0.0,0.0,0.0,0.0,0.0,0.0,-1.9595,-2.0829,-2.0728,-1.9083,-1.9145,-1.8871,0.0,0.0,0.0,0.0,0.0,0.0,0.0,0.0,0.0,0.0,0.0,0.0,0.0,0.0,0.0,0.0,0.0,0.0,0.0,0.0,0.0,0.0,0.0,0.0,0.0,0.0,0.0,0.0,0.0,0.0,0.0,0.0,0.0,0.0,0.0,0.0,0.0,0.0,0.0,0.0,0.0,0.0,0.0,0.0,0.0,0.0,0.0,0.0,0.0,0.0,0.0,0.0,0.0,0.0,0.0,0.0,0.0,0.0,0.0,0.0,0.0,0.0,0.0,0.0,0.0,0.0,0.0,0.0,0.0,0.0,0.0,0.0,0.0,0.0,0.0,0.0,0.0,0.0,0.0,0.0,0.0,0.0,0.0,0.0,0.0,0.0,0.0,0.0,0.0,0.0,0.0,0.0,0.0,0.0,0.0,0.0,0.0,0.0,0.0,0.0,0.0,0.0,0.0,0.0,0.0,0.0,0.0,0.0,-1.9618,-2.0433,-2.2175,-2.2324,-2.0737,-2.0785,-2.0417,0.0,0.0,0.0,0.0,0.0,0.0,0.0,0.0,0.0,0.0,0.0,0.0,0.0,0.0,0.0,0.0,0.0,0.0,0.0,0.0,0.0,0.0,0.0,0.0,0.0,0.0,0.0,0.0,0.0,0.0,0.0,0.0,0.0,0.0,0.0,0.0,0.0,0.0,0.0,0.0,0.0,0.0,0.0,0.0,0.0,0.0,0.0,0.0,0.0,0.0,0.0,0.0,0.0,0.0,0.0,0.0,0.0,0.0,0.0,0.0,0.0,0.0,0.0,0.0,0.0,0.0,0.0,0.0,0.0,0.0,0.0,0.0,0.0,0.0,0.0,0.0,0.0,0.0,0.0,0.0,0.0,0.0,0.0,0.0,0.0,0.0,0.0,0.0,0.0,0.0,0.0,0.0,0.0,0.0,0.0,0.0,0.0,0.0,0.0,0.0,0.0,0.0,0.0,0.0,0.0,0.0,0.0,0.0,-2.0142,-2.083,-2.2637,-2.3457,-2.3149,-2.2564,-2.2015,0.0,0.0,0.0,0.0,0.0,0.0,0.0,0.0,0.0,0.0,0.0,0.0,0.0,0.0,0.0,0.0,0.0,0.0,0.0,0.0,0.0,0.0,0.0,0.0,0.0,0.0,0.0,0.0,0.0,0.0,0.0,0.0,0.0,0.0,0.0,0.0,0.0,0.0,0.0,0.0,0.0,0.0,0.0,0.0,0.0,0.0,0.0,0.0,0.0,0.0,0.0,0.0,0.0,0.0,0.0,0.0,0.0,0.0,0.0,0.0,0.0,0.0,0.0,0.0,0.0,0.0,0.0,0.0,0.0,0.0,0.0,0.0,0.0,0.0,0.0,0.0,0.0,0.0,0.0,0.0,0.0,0.0,0.0,0.0,0.0,0.0,0.0,0.0,0.0,0.0,0.0,0.0,0.0,0.0,0.0,0.0,0.0,0.0,0.0,0.0,0.0,0.0,0.0,0.0,0.0,0.0,0.0,0.0,-2.0574,-2.1481,-2.2864,-2.3559,-2.3486,-2.3282,-2.2869,0.0,0.0,0.0,0.0,0.0,0.0,0.0,0.0,0.0,0.0,0.0,0.0,0.0,0.0,0.0,0.0,0.0,0.0,0.0,0.0,0.0,0.0,0.0,0.0,0.0,0.0,0.0,0.0,0.0,0.0,0.0,0.0,0.0,0.0,0.0,0.0,0.0,0.0,0.0,0.0,0.0,0.0,0.0,0.0,0.0,0.0,0.0,0.0,-2.9373,0.0,0.0,0.0,0.0,0.0,0.0,0.0,0.0,0.0,0.0,0.0,0.0,0.0,0.0,0.0,0.0,0.0,0.0,0.0,0.0,0.0,0.0,0.0,0.0,0.0,0.0,0.0,0.0,0.0,0.0,0.0,0.0,0.0,0.0,0.0,0.0,0.0,0.0,0.0,0.0,0.0,0.0,0.0,0.0,0.0,0.0,0.0,0.0,0.0,0.0,0.0,0.0,0.0,0.0,0.0,0.0,0.0,0.0,0.0,-2.0663,-2.1679,-2.3397,-2.4373,-2.4495,-2.5027,-2.4618,0.0,0.0,0.0,0.0,0.0,0.0,0.0,0.0,0.0,0.0,0.0,0.0,0.0,0.0,0.0,0.0,0.0,0.0,0.0,0.0,0.0,0.0,0.0,0.0,0.0,0.0,0.0,0.0,0.0,0.0,0.0,0.0,0.0,0.0,0.0,0.0,0.0,0.0,0.0,0.0,0.0,0.0,0.0,0.0,0.0,0.0,0.0,0.0,0.0,0.0,0.0,0.0,0.0,0.0,0.0,0.0,0.0,0.0,0.0,0.0,0.0,0.0,0.0,0.0,0.0,0.0,0.0,0.0,0.0,0.0,0.0,0.0,0.0,0.0,0.0,0.0,0.0,0.0,0.0,0.0,0.0,0.0,0.0,0.0,0.0,0.0,0.0,0.0,0.0,0.0,0.0,0.0,0.0,0.0,0.0,0.0,0.0,0.0,0.0,0.0,0.0,0.0,0.0,0.0,0.0,0.0,0.0,-2.0061,-2.091,-2.2,-2.4183,-2.5434,-2.5646,-2.6773,-2.6418,-2.4569,0.0,0.0,0.0,0.0,0.0,0.0,0.0,0.0,0.0,0.0,0.0,0.0,0.0,0.0,0.0,0.0,0.0,0.0,0.0,0.0,0.0,0.0,0.0,0.0,0.0,0.0,0.0,0.0,0.0,0.0,0.0,0.0,0.0,0.0,0.0,0.0,0.0,0.0,-2.8779,-2.9249,0.0,0.0,0.0,0.0,0.0,0.0,0.0,0.0,-3.13,0.0,0.0,0.0,0.0,0.0,0.0,0.0,0.0,0.0,0.0,0.0,0.0,0.0,0.0,0.0,0.0,0.0,0.0,0.0,0.0,0.0,0.0,0.0,0.0,0.0,0.0,0.0,0.0,0.0,0.0,0.0,0.0,0.0,0.0,0.0,0.0,0.0,0.0,0.0,0.0,0.0,0.0,0.0,0.0,0.0,0.0,0.0,0.0,0.0,0.0,0.0,0.0,0.0,0.0,0.0,0.0,-1.984,-2.1219,-2.2371,-2.3195,-2.5175,-2.6194,-2.6304,-2.7075,-2.7049,-2.6052,0.0,0.0,0.0,0.0,0.0,0.0,0.0,0.0,0.0,0.0,0.0,0.0,0.0,0.0,0.0,0.0,0.0,0.0,0.0,0.0,0.0,0.0,0.0,0.0,0.0,0.0,0.0,0.0,0.0,0.0,0.0,0.0,0.0,0.0,0.0,0.0,0.0,0.0,0.0,-3.0627,-3.0864,0.0,0.0,0.0,0.0,0.0,0.0,0.0,0.0,-3.2694,0.0,0.0,0.0,0.0,0.0,0.0,0.0,0.0,0.0,0.0,0.0,0.0,0.0,0.0,0.0,0.0,0.0,0.0,0.0,0.0,0.0,0.0,0.0,0.0,0.0,0.0,0.0,0.0,0.0,0.0,0.0,0.0,0.0,0.0,0.0,0.0,0.0,0.0,0.0,0.0,0.0,0.0,0.0,0.0,0.0,0.0,0.0,0.0,0.0,0.0,0.0,0.0,0.0,0.0,0.0,-2.0636,-2.1712,-2.2852,-2.4069,-2.586,-2.6982,-2.7276,-2.7901,-2.7979,0.0,0.0,0.0,0.0,0.0,0.0,0.0,0.0,0.0,0.0,0.0,0.0,0.0,0.0,0.0,0.0,0.0,0.0,0.0,0.0,0.0,0.0,0.0,0.0,0.0,0.0,0.0,0.0,0.0,0.0,0.0,0.0,0.0,0.0,0.0,0.0,0.0,0.0,0.0,0.0,-3.1926,-3.2183,-3.2314,0.0,0.0,0.0,0.0,0.0,0.0,-3.2609,-3.2991,0.0,0.0,0.0,0.0,0.0,0.0,0.0,0.0,0.0,0.0,0.0,0.0,0.0,0.0,0.0,0.0,0.0,0.0,0.0,0.0,0.0,0.0,0.0,0.0,0.0,0.0,0.0,0.0,0.0,0.0,0.0,0.0,0.0,0.0,0.0,0.0,0.0,0.0,0.0,0.0,0.0,0.0,0.0,0.0,0.0,0.0,0.0,0.0,0.0,0.0,0.0,0.0,0.0,0.0,0.0,-2.1401,-2.2201,-2.3307,-2.4605,-2.6491,-2.7678,-2.8069,-2.8588,-2.85,0.0,0.0,0.0,0.0,0.0,0.0,0.0,0.0,0.0,0.0,0.0,0.0,0.0,0.0,0.0,0.0,0.0,0.0,0.0,0.0,0.0,0.0,0.0,0.0,0.0,0.0,0.0,0.0,0.0,0.0,0.0,0.0,0.0,0.0,0.0,0.0,0.0,0.0,0.0,0.0,0.0,-3.3502,-3.3984,-3.3612,0.0,0.0,0.0,0.0,-3.3105,-3.3526,0.0,0.0,0.0,0.0,0.0,0.0,0.0,0.0,0.0,0.0,0.0,0.0,0.0,0.0,0.0,0.0,0.0,0.0,0.0,0.0,0.0,0.0,0.0,0.0,0.0,0.0,0.0,0.0,0.0,0.0,0.0,0.0,0.0,0.0,0.0,0.0,0.0,0.0,0.0,0.0,0.0,0.0,0.0,0.0,0.0,0.0,0.0,0.0,0.0,0.0,0.0,0.0,0.0,0.0,0.0,0.0,-2.1821,-2.3365,-2.4282,-2.469,-2.7146,-2.8373,-2.8048,-2.8469,-2.815,0.0,0.0,0.0,0.0,0.0,0.0,0.0,0.0,0.0,0.0,0.0,0.0,0.0,0.0,0.0,0.0,0.0,0.0,0.0,0.0,0.0,0.0,0.0,0.0,0.0,0.0,0.0,0.0,0.0,0.0,0.0,0.0,0.0,0.0,0.0,0.0,0.0,0.0,0.0,0.0,0.0,-3.4555,-3.4359,-3.4536,-3.4026,0.0,0.0,-3.3642,-3.3273,-3.5367,0.0,0.0,0.0,0.0,0.0,0.0,0.0,0.0,0.0,0.0,0.0,0.0,0.0,0.0,0.0,0.0,0.0,0.0,0.0,0.0,0.0,0.0,0.0,0.0,0.0,0.0,0.0,0.0,0.0,0.0,0.0,0.0,0.0,0.0,0.0,0.0,0.0,0.0,0.0,0.0,0.0,0.0,0.0,0.0,0.0,0.0,0.0,0.0,0.0,0.0,0.0,0.0,0.0,0.0,0.0,-2.1151,-2.2076,-2.3769,-2.4832,-2.5286,-2.7307,-2.8195,-2.7911,-2.8227,-2.7778,0.0,0.0,0.0,0.0,0.0,0.0,0.0,0.0,0.0,0.0,0.0,0.0,0.0,0.0,0.0,0.0,0.0,0.0,0.0,0.0,0.0,0.0,0.0,0.0,0.0,0.0,0.0,0.0,0.0,0.0,0.0,0.0,0.0,0.0,0.0,0.0,0.0,0.0,0.0,0.0,0.0,0.0,-3.4607,-3.4991,0.0,0.0,0.0,-3.4955,-3.5018,0.0,0.0,0.0,0.0,0.0,0.0,0.0,0.0,0.0,0.0,0.0,0.0,0.0,0.0,0.0,0.0,0.0,0.0,0.0,0.0,0.0,0.0,0.0,0.0,0.0,0.0,0.0,0.0,0.0,0.0,0.0,0.0,0.0,0.0,0.0,0.0,0.0,0.0,0.0,0.0,0.0,0.0,0.0,0.0,0.0,0.0,0.0,0.0,0.0,0.0,0.0,0.0,0.0,0.0,0.0,0.0,0.0,-2.2359,-2.3752,-2.4809,-2.5602,-2.7053,-2.7723,-2.7552,-2.7713,0.0,0.0,0.0,0.0,0.0,0.0,0.0,0.0,0.0,0.0,0.0,0.0,0.0,0.0,0.0,0.0,0.0,0.0,0.0,0.0,0.0,0.0,0.0,0.0,0.0,0.0,0.0,-2.8959,0.0,0.0,0.0,0.0,0.0,0.0,0.0,0.0,0.0,0.0,0.0,0.0,0.0,0.0,-3.4904,-3.4886,-3.5481,-3.5692,0.0,0.0,-3.5926,-3.6086,-3.5806,-3.5593,0.0,0.0,0.0,0.0,0.0,0.0,0.0,0.0,0.0,0.0,0.0,0.0,0.0,0.0,0.0,0.0,0.0,0.0,0.0,0.0,0.0,0.0,0.0,0.0,0.0,0.0,0.0,0.0,0.0,0.0,0.0,0.0,0.0,0.0,0.0,0.0,0.0,0.0,0.0,0.0,0.0,0.0,0.0,0.0,0.0,0.0,0.0,0.0,0.0,0.0,0.0,0.0,0.0,0.0,-2.1383,-2.2807,-2.3345,-2.4118,-2.5213,-2.6364,-2.6975,-2.6992,-2.6975,-2.6462,0.0,0.0,0.0,0.0,0.0,0.0,0.0,0.0,0.0,0.0,0.0,0.0,0.0,0.0,0.0,0.0,0.0,0.0,0.0,0.0,0.0,0.0,0.0,0.0,0.0,0.0,0.0,0.0,0.0,0.0,0.0,0.0,0.0,0.0,0.0,0.0,0.0,0.0,0.0,0.0,0.0,-3.5226,-3.5399,-3.6183,-3.6537,0.0,-3.6388,-3.64,-3.5409,-3.7117,-3.7604,-3.4656,0.0,0.0,0.0,0.0,0.0,0.0,0.0,0.0,0.0,0.0,0.0,0.0,0.0,0.0,0.0,0.0,0.0,0.0,0.0,0.0,0.0,0.0,0.0,0.0,0.0,0.0,0.0,0.0,0.0,0.0,0.0,0.0,0.0,0.0,0.0,0.0,0.0,0.0,0.0,0.0,0.0,0.0,0.0,0.0,0.0,0.0,0.0,0.0,0.0,0.0,0.0,0.0,0.0,-2.1463,-2.2453,-2.3446,-2.4371,-2.5214,-2.629,-2.6778,-2.6492,-2.6747,-2.6302,0.0,0.0,0.0,0.0,0.0,0.0,0.0,0.0,0.0,0.0,0.0,0.0,0.0,0.0,0.0,0.0,0.0,0.0,0.0,0.0,0.0,0.0,0.0,0.0,0.0,0.0,0.0,0.0,-2.9576,-2.9711,-2.983,0.0,0.0,0.0,0.0,0.0,0.0,0.0,0.0,0.0,0.0,-3.4242,-3.4492,-3.5248,0.0,0.0,-3.568,-3.562,-3.5024,-3.5593,-3.568,-3.4507,-3.3851,0.0,0.0,0.0,0.0,0.0,0.0,0.0,0.0,0.0,0.0,0.0,0.0,0.0,0.0,0.0,0.0,0.0,0.0,0.0,0.0,0.0,0.0,0.0,0.0,0.0,0.0,0.0,0.0,0.0,0.0,0.0,0.0,0.0,0.0,0.0,0.0,0.0,0.0,0.0,0.0,0.0,0.0,0.0,0.0,0.0,0.0,0.0,0.0,0.0,0.0,0.0,0.0,-2.145,-2.2328,-2.3314,-2.4265,-2.5183,-2.5972,-2.63,-2.6115,-2.629,-2.5895,0.0,0.0,0.0,0.0,0.0,0.0,0.0,0.0,0.0,0.0,0.0,0.0,0.0,0.0,0.0,0.0,0.0,0.0,0.0,0.0,0.0,0.0,0.0,0.0,0.0,0.0,0.0,0.0,-2.9891,-2.9888,-2.9474,0.0,0.0,0.0,0.0,0.0,0.0,0.0,0.0,0.0,0.0,-3.3283,-3.3502,-3.4192,-3.4715,-3.4817,-3.4842,-3.4808,-3.4715,-3.4486,-3.4239,-3.4014,0.0,0.0,0.0,0.0,0.0,0.0,0.0,0.0,0.0,0.0,0.0,0.0,0.0,0.0,0.0,0.0,0.0,0.0,0.0,0.0,0.0,0.0,0.0,0.0,0.0,0.0,0.0,-1.5605,0.0,0.0,-1.5418,0.0,0.0,0.0,0.0,0.0,0.0,0.0,0.0,0.0,0.0,0.0,0.0,0.0,0.0,0.0,0.0,0.0,0.0,0.0,0.0,0.0,0.0,-2.1253,-2.2574,-2.2829,-2.3689,-2.5158,-2.523,-2.5458,-2.5865,-2.5458,-2.5132,-2.4904,0.0,0.0,0.0,0.0,0.0,0.0,0.0,0.0,0.0,0.0,0.0,0.0,0.0,0.0,0.0,0.0,0.0,0.0,0.0,0.0,0.0,0.0,0.0,0.0,0.0,0.0,-3.0583,-3.0672,-3.0289,0.0,0.0,0.0,0.0,0.0,0.0,0.0,0.0,0.0,-3.1,-3.1901,-3.2563,-3.2704,-3.322,-3.3702,-3.3979,-3.4053,-3.4111,-3.4305,-3.4363,-3.4015,0.0,0.0,0.0,0.0,0.0,0.0,0.0,0.0,0.0,0.0,0.0,0.0,0.0,0.0,0.0,0.0,0.0,0.0,0.0,0.0,0.0,0.0,0.0,0.0,0.0,0.0,0.0,-1.5606,-1.5826,0.0,0.0,0.0,0.0,0.0,0.0,0.0,0.0,0.0,0.0,0.0,-1.9726,-2.0786,0.0,0.0,0.0,0.0,0.0,0.0,0.0,0.0,0.0,0.0,0.0,0.0,-2.147,-2.2737,-2.2981,-2.3773,-2.5148,-2.5189,-2.5261,-2.544,-2.5261,-2.491,-2.4268,0.0,0.0,0.0,0.0,0.0,0.0,0.0,0.0,0.0,0.0,0.0,0.0,0.0,0.0,0.0,0.0,0.0,0.0,0.0,0.0,0.0,0.0,0.0,0.0,0.0,-3.0419,0.0,0.0,0.0,0.0,0.0,0.0,0.0,0.0,0.0,0.0,-3.0043,-3.0157,-3.0412,-3.1493,-3.2332,-3.2351,-3.3164,-3.369,0.0,0.0,0.0,0.0,0.0,0.0,0.0,0.0,0.0,0.0,0.0,0.0,0.0,0.0,-3.3643,-3.2896,-3.2652,-3.2492,-3.2286,0.0,0.0,0.0,0.0,0.0,0.0,0.0,0.0,0.0,0.0,0.0,0.0,0.0,0.0,-1.6095,-1.6319,-1.6326,0.0,0.0,0.0,0.0,0.0,0.0,0.0,0.0,-1.9077,-1.9835,-2.0823,-2.1772,-2.2294,0.0,-2.3225,-2.3215,0.0,0.0,0.0,0.0,0.0,0.0,0.0,0.0,-2.1706,-2.2869,-2.3103,-2.3774,-2.4879,-2.4952,-2.4952,-2.4952,-2.4952,-2.4633,-2.3908,-2.4033,-2.3971,0.0,0.0,0.0,0.0,0.0,0.0,0.0,0.0,0.0,0.0,0.0,0.0,0.0,0.0,0.0,0.0,0.0,0.0,0.0,0.0,0.0,0.0,0.0,-3.0533,0.0,0.0,0.0,0.0,0.0,0.0,0.0,0.0,0.0,-3.0228,-3.0253,-3.0302,-3.0367,-3.116,-3.1829,-3.2081,0.0,0.0,0.0,0.0,0.0,0.0,0.0,-3.2605,-3.2414,-3.2478,-3.2697,-3.3153,-3.3542,-3.3852,-3.3852,0.0,0.0,-3.3119,-3.2909,-3.276,-3.2539,-3.3102,-3.3587,-3.3587,-3.4018,-3.4397,0.0,0.0,0.0,0.0,-1.6095,0.0,0.0,0.0,-1.6521,-1.6651,0.0,-1.691,0.0,0.0,0.0,0.0,-1.6514,-1.6868,0.0,0.0,-1.9492,-2.0357,-2.1722,-2.2467,-2.2838,-2.2847,-2.3484,-2.3797,-2.3747,-2.2924,0.0,0.0,0.0,0.0,0.0,0.0,-2.1971,-2.2879,-2.3134,-2.3639,-2.4476,-2.4507,-2.4497,-2.4487,-2.4466,-2.4281,-2.3867,-2.4166,-2.4053,-2.3215,-2.3618,0.0,0.0,0.0,0.0,0.0,0.0,0.0,0.0,0.0,0.0,0.0,0.0,0.0,0.0,0.0,0.0,0.0,0.0,0.0,0.0,-3.0223,0.0,0.0,0.0,0.0,0.0,0.0,0.0,0.0,0.0,-3.0609,-3.0457,-3.0817,-3.1097,-3.0901,0.0,0.0,0.0,0.0,-3.058,-3.1385,-3.1073,-3.0877,-3.1058,-3.1137,-3.1326,-3.1749,0.0,0.0,-3.279,-3.355,-3.4079,-3.4092,-3.3829,-3.3493,-3.3196,-3.3333,-3.3326,-3.2829,-3.3182,-3.3561,-3.3626,-3.4018,-3.4397,-1.5713,0.0,0.0,0.0,0.0,-1.6603,-1.6797,-1.689,-1.7015,-1.7094,-1.7194,-1.7194,0.0,0.0,0.0,0.0,0.0,0.0,-1.9426,-2.0953,-2.1373,-2.1961,-2.274,-2.3232,-2.345,-2.3329,-2.3624,-2.3894,-2.4046,-2.3488,-2.2959,-2.2513,0.0,0.0,0.0,0.0,-2.2357,-2.3082,-2.3515,-2.396,-2.4497,-2.4507,-2.4385,-2.4074,-2.3743,-2.336,-2.2915,-2.3018,-2.2967,-2.2708,-2.2811,0.0,0.0,0.0,0.0,0.0,0.0,0.0,0.0,0.0,0.0,0.0,0.0,0.0,0.0,0.0,0.0,0.0,0.0,0.0,-2.9865,-3.0134,-3.037,0.0,0.0,0.0,0.0,0.0,0.0,0.0,0.0,0.0,-3.0798,-3.07,-3.0612,0.0,0.0,-3.0987,-3.1183,-3.1352,-3.1458,-3.1301,-3.1491,0.0,-3.1218,-3.1498,-3.1858,-3.218,-3.2353,-3.2655,-3.3307,-3.3595,-3.374,-3.374,-3.3664,-3.347,-3.2945,-3.2907,-3.2881,-3.2764,-3.3169,-3.3574,-3.3613,-3.4018,-3.4397,-1.7454,-1.6909,-1.6968,-1.7021,-1.7037,-1.7264,-1.7448,-1.7529,-1.7487,-1.7523,-1.7516,-1.7384,-1.7286,-1.7286,-1.7286,0.0,0.0,0.0,-1.9803,-2.115,-2.1828,-2.2501,-2.3091,-2.3493,-2.3624,-2.3493,-2.3711,-2.3937,-2.4196,-2.3931,-2.343,-2.2768,0.0,-2.1961,-2.1637,-2.2078,-2.2609,-2.3184,-2.3681,-2.4095,-2.4476,-2.4332,-2.4064,-2.3619,-2.3329,-2.3049,-2.278,-2.277,-2.2687,-2.2501,-2.2501,-2.2625,0.0,0.0,0.0,0.0,0.0,0.0,0.0,0.0,0.0,0.0,0.0,-2.8522,-2.8712,0.0,0.0,0.0,-2.862,-2.9142,-2.9735,-3.0105,0.0,0.0,0.0,0.0,0.0,0.0,0.0,-3.0698,-3.0773,-3.0849,-3.0986,-3.0723,-3.0623,-3.0791,-3.097,-3.1107,-3.1311,0.0,-3.1329,-3.1227,-3.1304,-3.1265,-3.0932,-3.115,-3.1484,-3.1966,-3.2436,-3.279,-3.3143,-3.3234,-3.3234,-3.3234,-3.3234,-3.3117,-3.2751,-3.2672,-3.2672,-3.2685,-3.2973,-3.3221,-3.3234,-3.3692,-3.4084,-1.9092,-1.8546,-1.786,-1.7867,-1.8288,-1.8089,-1.8095,-1.8313,-1.7999,-1.7838,-1.7746,-1.7494,-1.7394,-1.7419,-1.7419,0.0,-1.7552,-1.8565,-1.9513,-2.0376,-2.1382,-2.228,-2.3091,-2.3363,-2.346,-2.346,-2.3667,-2.3884,-2.4153,-2.4163,-2.3852,-2.3246,-2.2811,-2.2366,-2.1911,-2.2315,-2.278,-2.3246,-2.3701,-2.4064,-2.4373,-2.3991,-2.3546,-2.3091,-2.307,-2.3049,-2.3029,-2.3049,-2.2863,-2.2418,-2.2418,-2.2428,-2.2387,0.0,0.0,0.0,0.0,0.0,0.0,0.0,0.0,0.0,0.0,0.0,0.0,0.0,0.0,0.0,-2.8764,0.0,-2.9375,-3.0147,0.0,0.0,0.0,-3.0444,-3.0444,-3.0609,-3.0736,-3.0736,0.0,0.0,-3.1024,-3.0836,-3.0892,-3.141,-3.1254,-3.1316,-3.1829,-3.1061,-3.0624,-3.1125,-3.0791,-3.0457,-3.0547,-3.056,-3.0765,-3.141,-3.2085,-3.2502,-3.2607,-3.262,-3.2633,-3.262,-3.262,-3.2581,-3.2555,-3.2463,-3.2555,-3.2489,-3.2633,-3.2698,-3.2751,-3.3156,-3.3509,-1.9686,-1.9125,-1.874,-1.8482,-1.84,-1.8506,-1.8621,-1.8642,-1.8328,-1.8043,-1.7808,-1.7735,-1.7985,-1.8427,-1.8419,-1.8834,-1.955,-2.0548,-2.1105,-2.1418,-2.2325,-2.2862,-2.3101,-2.3188,-2.3188,-2.3178,-2.3232,-2.3484,-2.3884,-2.3884,-2.3835,-2.3732,-2.3608,-2.3143,-2.2377,-2.2791,-2.3256,-2.3701,-2.3867,-2.3795,-2.3505,-2.306,-2.2604,-2.2149,-2.2139,-2.1963,-2.1631,-2.1952,-2.1921,-2.1487,-2.1776,-2.1807,-2.1466,-2.2108,0.0,0.0,0.0,0.0,0.0,0.0,0.0,0.0,0.0,-2.8097,-2.8064,0.0,-2.7741,0.0,-2.8221,-2.8961,-2.9849,-3.0103,0.0,0.0,-3.0874,-3.0874,-3.0874,-3.0911,-3.0949,-3.0911,-3.0986,-3.1024,-3.1024,-3.0949,-3.0963,-3.1107,-3.0968,-3.0867,-3.0984,-3.0968,-3.0913,-3.1005,-3.0927,-3.0874,-3.081,-3.0861,-3.0887,-3.1081,-3.13,-3.1535,-3.1915,-3.2006,-3.2006,-3.2006,-3.2019,-3.185,-3.147,-3.1392,-3.1392,-3.1495,-3.2084,-3.2672,-3.2685,-3.2803,-3.2894,-1.9853,-1.9578,-1.9384,-1.9174,-1.901,-1.8886,-1.8926,-1.8972,-1.8503,-1.8203,-1.8021,-1.768,-1.7777,-1.8102,-1.8149,-1.865,-1.9604,-2.0602,-2.1284,-2.1739,-2.2643,-2.3101,-2.3101,-2.3101,-2.3101,-2.3101,-2.3101,-2.3353,-2.3797,-2.3797,-2.3843,-2.3888,-2.3877,-2.3619,-2.3183,-2.336,-2.3515,-2.3608,-2.3567,-2.339,-2.2894,-2.2625,-2.2273,-2.1828,-2.1807,-2.1683,-2.1424,-2.1673,-2.1683,-2.1445,-2.1662,-2.1683,-2.1445,-2.1977,-2.2582,0.0,0.0,0.0,0.0,0.0,0.0,0.0,0.0,0.0,0.0,0.0,-2.7641,-2.7889,-2.8438,-2.9144,-3.0009,-3.0322,-3.0647,-3.0947,-3.1024,-3.1024,-3.1024,-3.0764,-3.0607,-3.0607,-3.0385,-3.0265,-3.0228,-3.0451,-3.0607,-3.0607,-3.073,-3.0849,-3.0849,-3.0949,-3.1024,-3.1024,-3.1024,-3.0882,-3.066,-3.0385,-3.0228,-3.0228,-3.0228,-3.0346,-3.0647,-3.0699,-3.0699,-3.0699,-3.0712,-3.0607,-3.0294,-3.0228,-3.0215,-3.0307,-3.0712,-3.1313,-3.1823,-3.194,-3.198,-1.9793,-1.9698,-1.9697,-1.9703,-1.9654,-1.917,-1.9109,-1.9301,-1.8694,-1.8379,-1.8262,-1.7662,-1.7416,-1.7512,-1.7598,-1.8141,-1.9018,-2.0104,-2.0962,-2.1739,-2.2643,-2.3101,-2.3101,-2.3101,-2.3101,-2.3144,-2.3144,-2.3396,-2.3841,-2.3841,-2.3917,-2.3971,-2.396,-2.396,-2.396,-2.4002,-2.3732,-2.3277,-2.3215,-2.2967,-2.2511,-2.2439,-2.219,-2.1745,-2.1776,-2.1776,-2.1725,-2.1776,-2.1776,-2.1725,-2.1776,-2.1776,-2.1714,-2.1918,-2.2272,0.0,-2.3376,0.0,0.0,0.0,0.0,0.0,0.0,0.0,0.0,-2.7689,-2.7738,-2.8333,-2.8891,-2.9405,-2.9931,-3.0464,-3.0764,-3.0764,-3.0802,-3.0764,-3.0751,-3.0333,-2.9983,-2.9983,-2.9588,-2.9323,-2.934,-2.9732,-2.9996,-3.0009,-3.0385,-3.0647,-3.0751,-3.0869,-3.1024,-3.1024,-3.0921,-3.0634,-3.0124,-2.9627,-2.9375,-2.9349,-2.9401,-2.931,-2.9366,-2.9366,-2.9327,-2.934,-2.9405,-2.9388,-2.931,-2.9314,-2.9349,-2.9401,-2.948,-2.9745,-3.0516,-3.0777,-3.0934,-1.9733,-1.9085,-1.9292,-1.9244,-1.9059,-1.9162,-1.9413,-1.9698,-1.9257,-1.8796,-1.8284,-1.7896,-1.7993,-1.8565,-1.933,-1.9786,-2.0059,-2.1739,-2.2236,-2.1739,-2.2687,-2.3101,-2.3101,-2.3101,-2.3232,-2.3416,-2.3416,-2.3677,-2.412,-2.412,-2.4198,-2.4373,-2.4383,-2.4373,-2.4373,0.0,0.0,0.0,-2.337,-2.2967,-2.2501,-2.2128,-2.1714,-2.1242,-2.1611,0.0,-2.129,-2.16,-2.1631,-2.128,-2.16,0.0,0.0,0.0,0.0,0.0,0.0,0.0,0.0,0.0,0.0,0.0,-2.7207,-2.7369,-2.7424,-2.7488,-2.7738,-2.8355,-2.8512,-2.8826,-2.9379,-2.9572,-2.9637,-2.9637,-2.9601,-2.9614,-2.9637,-2.9497,-2.9444,-2.9431,-2.9362,-2.9274,-2.9284,-2.9392,-2.9444,-2.9457,-2.9536,-2.9588,-2.9676,-3.0385,-3.0985,-3.096,-3.0555,-3.0085,-2.9536,-2.9362,-2.917,-2.931,-2.931,-2.9284,-2.9258,-2.9235,-2.9248,-2.9235,-2.931,-2.9248,-2.9284,-2.931,-2.9244,-2.9261,-2.9297,-2.9375,-2.9598,-2.9637,-2.964,-1.9267,-1.8898,-1.9042,-1.9015,0.0,-1.9216,-1.9362,-1.9499,-1.9228,-1.8672,-1.805,-1.7889,-1.7918,-1.8056,-1.8557,-1.9285,-2.0232,-2.123,-2.1908,-2.2413,-2.2872,-2.3101,-2.3101,-2.3101,-2.3242,-2.3503,-2.3493,-2.3721,-2.4206,-2.4196,-2.418,-2.4219,-2.4209,-2.4209,-2.4219,-2.4394,-2.4156,-2.3536,-2.308,-2.2615,-2.218,-2.2149,-2.1921,-2.1449,-2.1683,0.0,0.0,0.0,0.0,0.0,0.0,0.0,0.0,-2.1748,0.0,-2.2705,-2.3248,-2.4089,-2.524,-2.5828,-2.6425,-2.7201,-2.7323,-2.7403,-2.739,-2.7469,-2.7738,-2.8355,-2.842,-2.8656,-2.9231,-2.931,-2.931,-2.931,-2.931,-2.931,-2.9248,-2.9035,-2.8865,-2.8804,-2.8582,-2.8412,-2.8412,-2.8686,-2.8865,-2.8891,-2.914,-2.9297,-2.9327,-2.9758,-3.0173,-3.0137,-2.964,-2.9183,-2.8882,-2.8569,-2.8438,-2.8412,-2.8412,-2.8425,-2.8412,-2.8412,-2.8425,-2.8412,-2.8412,-2.8425,-2.8425,-2.8412,-2.8425,-2.8412,-2.8412,-2.8412,-2.8425,-2.8634,-2.897,-1.8911,-1.8731,-1.8884,-1.8856,-1.884,-1.9172,-1.9272,-1.9302,-1.8928,0.0,0.0,-1.7845,-1.7633,-1.7333,-1.7645,-1.8688,-2.0187,-2.0548,-2.1543,-2.3091,-2.3101,-2.3101,-2.3101,-2.3101,-2.3276,-2.3547,-2.3547,-2.3807,-2.4249,-2.4249,-2.4151,-2.4022,-2.4002,-2.4002,-2.4012,-2.4281,-2.4053,-2.3329,-2.2936,-2.2563,-2.219,-2.2387,-2.2304,-2.1932,-2.1849,-2.1807,-2.1807,-2.1807,-2.1807,-2.1807,-2.1807,-2.1807,-2.1807,-2.2025,-2.2289,-2.2628,-2.3176,-2.4095,-2.5452,-2.5849,-2.6449,-2.7436,-2.7503,-2.7503,-2.7503,-2.7503,-2.7686,-2.819,-2.8229,-2.8438,-2.8922,-2.8974,-2.8974,-2.8961,-2.8974,-2.8961,-2.8922,-2.8556,-2.8229,-2.8177,-2.785,-2.7503,-2.7555,-2.7954,-2.8263,-2.8294,-2.8595,-2.9009,-2.9,-2.917,-2.9327,-2.917,-2.8817,-2.8412,-2.819,-2.7902,-2.7516,-2.7594,-2.7555,-2.7503,-2.7503,-2.7503,-2.7503,-2.7594,-2.7503,-2.7542,-2.7529,-2.7581,-2.7503,-2.7503,-2.7503,-2.7503,-2.7542,-2.7902,-2.836,-1.8865,-1.8163,-1.8657,-1.873,-1.8538,-1.9078,-1.9272,-1.925,-1.8921,-1.8577,-1.8218,-1.7933,-1.7633,-1.7372,-1.9047,-1.9951,-2.0322,-2.1917,-2.2818,-2.3091,-2.3101,-2.3101,-2.3101,-2.3101,-2.3309,-2.3711,-2.3754,-2.398,-2.4411,-2.4454,-2.4456,-2.4404,-2.4404,-2.4394,-2.4383,-2.4136,-2.3908,-2.3784,-2.3722,-2.365,-2.3618,-2.2873,-2.247,-2.2397,-2.2004,-2.1807,-2.1807,-2.1807,-2.1807,-2.1807,-2.1807,-2.1807,-2.1807,-2.2138,-2.2402,-2.2515,-2.3596,-2.4564,-2.5299,-2.6139,-2.685,-2.7423,-2.7503,-2.7503,-2.7503,-2.7503,-2.7529,-2.7654,-2.7646,-2.7633,-2.7738,-2.779,-2.7816,-2.779,-2.7764,-2.7751,-2.7803,-2.7725,-2.768,-2.7659,-2.7568,-2.7503,-2.7516,-2.7594,-2.7673,-2.7659,-2.7842,-2.7803,-2.7999,-2.8647,-2.8987,-2.8682,-2.8486,-2.8177,-2.7811,-2.7568,-2.7464,-2.7503,-2.7503,-2.7503,-2.7503,-2.7503,-2.7503,-2.7503,-2.7503,-2.7503,-2.7503,-2.7503,-2.7503,-2.7503,-2.7503,-2.7503,-2.7503,-2.7607,-2.7699,-1.8355,-1.8097,-1.8443,-1.8548,-1.8422,-1.9056,-1.9272,-1.928,-1.8745,-1.8445,-1.8277,-1.7962,-1.7585,-1.7426,-1.8788,-1.9733,-2.0277,-2.1695,-2.2643,-2.3101,-2.3101,-2.3188,-2.3319,-2.3329,-2.3537,-2.398,-2.4024,-2.4196,-2.4497,-2.4507,-2.4383,-2.4209,-2.4188,-2.4178,-2.4178,-2.4219,-2.424,-2.4229,-2.4002,-2.3629,-2.3183,-2.2967,-2.2635,-2.2139,-2.1901,-2.1807,-2.1807,-2.1807,-2.1807,-2.1807,-2.1807,-2.1883,-2.2101,-2.2289,-2.259,-2.3038,-2.3888,-2.4767,-2.5592,-2.6552,-2.7222,-2.7503,-2.7777,-2.7994,-2.7994,-2.7673,-2.7503,-2.7503,-2.7503,-2.7503,-2.7503,-2.7503,-2.7503,-2.7503,-2.7503,-2.7503,-2.7503,-2.7503,-2.7503,-2.7503,-2.7503,-2.7503,-2.7503,-2.7503,-2.7503,-2.7503,-2.7503,-2.7503,-2.7503,-2.7968,-2.8242,-2.7954,-2.77,-2.7523,-2.7484,-2.7236,-2.7223,-2.7425,-2.7503,-2.7503,-2.7503,-2.7503,-2.7503,-2.7503,-2.7503,-2.7503,-2.7503,-2.7503,-2.7503,-2.7503,-2.7503,-2.7503,-2.7503,-2.7503,-2.7503,-1.811,-1.8023,-1.8376,-1.8534,-1.8639,-1.9116,-1.9272,-1.9206,-1.8591,-1.8299,-1.8247,-1.7882,-1.756,-1.7434,-1.8565,-1.9513,-2.0322,-2.1463,-2.2422,-2.3047,-2.3101,-2.3232,-2.346,-2.3493,-2.3764,-2.4153,-2.4196,-2.4325,-2.4497,-2.4507,-2.4374,-2.4064,-2.4033,-2.4022,-2.4043,-2.4364,-2.4507,-2.4487,-2.4198,-2.3681,-2.2998,-2.3215,-2.2946,-2.219,-2.2014,-2.1873,-2.1818,-2.1807,-2.1807,-2.1807,-2.1807,-2.1987,-2.2365,-2.2515,-2.2916,-2.3728,-2.4396,-2.5253,-2.637,-2.7233,-2.7751,-2.7894,-2.8333,-2.8616,-2.8556,-2.819,-2.7928,-2.7894,-2.7947,-2.7921,-2.7947,-2.7934,-2.7928,-2.7881,-2.7928,-2.7947,-2.7894,-2.7811,-2.7719,-2.7686,-2.7581,-2.7503,-2.7503,-2.7503,-2.7503,-2.7503,-2.7503,-2.7503,-2.7503,-2.7503,-2.7503,-2.7411,-2.7144,-2.7105,-2.7398,-2.721,-2.7131,-2.7451,-2.7503,-2.7503,-2.7503,-2.7503,-2.7503,-2.7503,-2.7503,-2.7503,-2.7503,-2.7503,-2.7503,-2.7503,-2.7503,-2.7503,-2.7503,-2.7503,-2.7503,-1.8496,-1.8144,-1.8615,-1.9026,-1.9175,-1.9272,-1.9272,-1.9184,-1.8584,-1.8299,-1.8275,-1.7647,-1.7369,-1.7559,-1.9239,-2.0096,-2.0413,-2.2138,-2.3013,-2.3091,-2.3101,-2.3232,-2.3503,-2.3493,-2.3764,-2.4153,-2.4206,-2.4292,-2.4497,-2.4507,-2.4466,-2.4435,-2.4435,-2.4425,-2.4435,-2.4476,-2.4507,-2.4507,-2.4456,-2.4404,-2.4301,-2.4002,-2.3577,-2.308,-2.2646,-2.2232,-2.1859,-2.1807,-2.1807,-2.1807,-2.1818,-2.1997,-2.2424,-2.2751,-2.3361,-2.4311,-2.5229,-2.6442,-2.7954,-2.826,-2.8529,-2.9052,-2.9179,-2.9231,-2.9231,-2.9157,-2.9166,-2.9104,-2.9104,-2.9026,-2.9118,-2.9065,-2.9,-2.8961,-2.9,-2.9118,-2.8987,-2.8669,-2.8328,-2.8294,-2.7837,-2.7503,-2.7503,-2.7503,-2.7503,-2.7503,-2.7503,-2.7503,-2.7503,-2.7503,-2.7503,-2.7503,-2.7411,-2.7411,-2.7477,-2.7464,-2.7353,-2.7438,-2.7477,-2.7425,-2.7398,-2.7425,-2.7503,-2.749,-2.7503,-2.7503,-2.7503,-2.7503,-2.7503,-2.7503,-2.7503,-2.7503,-2.7503,-2.7503,-2.7503,-1.8249,-1.8076,-1.866,-1.9078,-1.9272,-1.9272,-1.9169,-1.8942,-1.8496,-1.8532,-1.8824,-1.8403,-1.8195,-1.8288,-1.9596,-2.0503,-2.115,-2.2511,-2.3101,-2.3101,-2.3101,-2.3319,-2.3667,-2.3667,-2.3937,-2.4325,-2.4368,-2.4421,-2.4497,-2.4507,-2.4507,-2.4507,-2.4507,-2.4507,-2.4507,-2.4507,-2.4507,-2.4507,-2.4507,-2.4507,-2.4456,-2.4105,-2.366,-2.3194,-2.2739,-2.2418,-2.2211,-2.1952,-2.1807,-2.1828,-2.2325,-2.2817,-2.3237,-2.388,-2.4493,-2.5174,-2.6226,-2.7458,-2.8825,-2.8943,-2.9048,-2.931,-2.9588,-2.9771,-2.981,-3.0085,-3.0294,-3.0215,-2.9715,-2.931,-2.9336,-2.9323,-2.931,-2.931,-2.931,-2.9323,-2.9274,-2.8786,-2.842,-2.8381,-2.7889,-2.7503,-2.7503,-2.7503,-2.7503,-2.7503,-2.7503,-2.7503,-2.7503,-2.7503,-2.7503,-2.7503,-2.7503,-2.7503,-2.7477,-2.721,-2.7092,-2.704,-2.7027,-2.7027,-2.7053,-2.7027,-2.7105,-2.7425,-2.749,-2.7503,-2.7503,-2.7503,-2.7503,-2.7503,-2.7503,-2.7503,-2.7503,-2.7503,-2.7503,-1.819,-1.8233,-1.8757,-1.913,-1.9264,-1.9177,-1.9155,-1.9134,-1.8738,-1.8989,-1.9618,-1.9309,-1.9384,-1.965,-2.0331,-2.1015,-2.1784,-2.2687,-2.3101,-2.3101,-2.3101,-2.3363,-2.3754,-2.3797,-2.3986,-2.431,-2.4445,-2.4507,-2.4507,-2.4507,-2.4507,-2.4507,-2.4507,-2.4507,-2.4507,-2.4507,-2.4507,-2.4507,-2.4507,-2.4507,-2.4466,-2.4219,-2.3846,-2.3401,-2.309,-2.2822,-2.2687,-2.2473,-2.2363,-2.2373,-2.3115,-2.3725,-2.4161,-2.4765,-2.5422,-2.618,-2.7335,-2.8439,-2.9461,-2.951,-2.9575,-2.9781,-3.0113,-3.0372,-3.0424,-3.0738,-3.0998,-3.0895,-3.0228,-2.9784,-2.9781,-2.9794,-2.9758,-2.9794,-2.9758,-2.9781,-2.9781,-2.9153,-2.8682,-2.8603,-2.8007,-2.7503,-2.7503,-2.7503,-2.7503,-2.7503,-2.7503,-2.7503,-2.7503,-2.7503,-2.7503,-2.7503,-2.7503,-2.7503,-2.7464,-2.7288,-2.6922,-2.6719,-2.6745,-2.6758,-2.6706,-2.6706,-2.687,-2.7359,-2.7438,-2.7503,-2.7503,-2.7503,-2.7503,-2.7503,-2.7503,-2.7503,-2.7503,-2.7503,-2.7503,-1.8695,-1.8496,-1.9011,-1.9272,-1.925,-1.9001,-1.9345,-1.9983,-1.9509,-1.9792,-2.0505,-2.0258,-2.0692,-2.1516,-2.1596,-2.1641,-2.1872,-2.2687,-2.3101,-2.3101,-2.3101,-2.3353,-2.3797,-2.3797,-2.3833,-2.3918,-2.424,-2.4414,-2.4466,-2.4497,-2.4507,-2.4507,-2.4507,-2.4507,-2.4507,-2.4507,-2.4507,-2.4507,-2.4507,-2.4507,-2.4497,-2.4466,-2.4271,-2.3888,-2.3846,-2.3598,-2.3286,-2.3503,-2.369,-2.37,-2.418,-2.4646,-2.501,-2.5122,-2.5893,-2.7347,-2.8535,-2.9441,-2.9983,-3.0061,-3.0294,-3.0751,-3.083,-3.0934,-3.0869,-3.0934,-3.1024,-3.1011,-3.0869,-3.0828,-3.0828,-3.0736,-3.0751,-3.0828,-3.088,-3.0867,-3.083,-2.9771,-2.9301,-2.9074,-2.8203,-2.7568,-2.7503,-2.7503,-2.7503,-2.7503,-2.7503,-2.7503,-2.7503,-2.7503,-2.7503,-2.7503,-2.7503,-2.7503,-2.749,-2.7419,-2.7183,-2.6752,-2.6491,-2.6601,-2.668,-2.6771,-2.7013,-2.7268,-2.7411,-2.749,-2.749,-2.7503,-2.7503,-2.7503,-2.7503,-2.7503,-2.7503,-2.7503,-2.7503,-1.8745,-1.9011,-1.922,-1.9272,-1.9339,-1.9568,-1.9794,-1.9946,-2.0138,-2.0622,-2.122,-2.1203,-2.1695,-2.2599,-2.2599,-2.2599,-2.2643,-2.296,-2.3101,-2.3101,-2.3101,-2.3215,-2.3406,-2.3428,-2.3407,-2.3474,-2.3598,-2.3826,-2.4136,-2.4352,-2.4507,-2.4507,-2.4507,-2.4507,-2.4507,-2.4507,-2.4507,-2.4507,-2.4507,-2.4507,-2.4507,-2.4507,-2.4414,-2.4291,-2.4022,-2.396,-2.4019,-2.3875,-2.3945,-2.4234,-2.4955,-2.5462,-2.5706,-2.6564,-2.7675,-2.8924,-2.9516,-3.0043,-3.0559,-3.0686,-3.0751,-3.0947,-3.1024,-3.1024,-3.1024,-3.1024,-3.1024,-3.1024,-3.1024,-3.1024,-3.1024,-3.1024,-3.1024,-3.1024,-3.1024,-3.1024,-3.0777,-2.9993,-2.931,-2.9104,-2.8268,-2.7529,-2.7542,-2.7503,-2.7503,-2.7503,-2.7503,-2.7516,-2.7503,-2.7503,-2.7503,-2.7503,-2.7503,-2.7503,-2.7503,-2.7503,-2.7255,-2.6485,-2.6054,-2.589,-2.5876,-2.619,-2.6432,-2.6974,-2.7223,-2.7477,-2.7503,-2.7503,-2.7503,-2.7503,-2.7503,-2.7503,-2.7503,-2.7503,-2.7503,-1.8855,-1.9257,-1.9162,-1.9184,-1.9361,-1.9725,-2.0053,-2.0304,-2.0793,-2.1437,-2.2033,-2.2138,-2.2511,-2.3047,-2.3101,-2.3101,-2.3101,-2.3101,-2.3101,-2.3101,-2.3101,-2.3126,-2.3215,-2.3197,-2.3124,-2.304,-2.3132,-2.3484,-2.4064,-2.4342,-2.4497,-2.4507,-2.4507,-2.4507,-2.4507,-2.4507,-2.4507,-2.4507,-2.4507,-2.4507,-2.4507,-2.4507,-2.4507,-2.4466,-2.424,-2.4284,-2.4711,-2.4577,-2.47,-2.5176,-2.5878,-2.641,-2.6726,-2.7794,-2.8949,-2.9845,-3.019,-3.0508,-3.0911,-3.1024,-3.0986,-3.1024,-3.1024,-3.1024,-3.1024,-3.1024,-3.1024,-3.1024,-3.1024,-3.1024,-3.1024,-3.1024,-3.1024,-3.1024,-3.1024,-3.1024,-3.0972,-3.0137,-2.9549,-2.9271,-2.866,-2.8111,-2.7842,-2.7973,-2.7881,-2.7581,-2.7633,-2.7758,-2.7542,-2.7503,-2.7503,-2.7503,-2.7503,-2.7503,-2.7503,-2.7503,-2.7281,-2.6608,-2.6255,-2.5837,-2.5615,-2.5863,-2.6151,-2.6634,-2.7027,-2.7333,-2.7503,-2.7503,-2.7503,-2.7503,-2.7503,-2.7503,-2.7503,-2.7503,-2.7503,-1.9011,-1.9206,-1.8928,-1.9045,-1.9346,-1.9472,-2.0107,-2.1135,-2.1544,-2.223,-2.2862,-2.2974,-2.2955,-2.3091,-2.3042,-2.3062,-2.3101,-2.314,-2.313,-2.3101,-2.3101,-2.3106,-2.3146,-2.3116,-2.295,-2.2687,-2.3008,-2.367,-2.4414,-2.4528,-2.4559,-2.4518,-2.4507,-2.4507,-2.4507,-2.4507,-2.4507,-2.4507,-2.4507,-2.4507,-2.4507,-2.4507,-2.4507,-2.4507,-2.4466,-2.4691,-2.5158,-2.5568,-2.592,-2.6397,-2.6853,-2.7482,-2.8068,-2.8767,-2.9367,-3.0037,-3.0634,-3.0949,-3.0986,-3.1024,-3.1024,-3.1024,-3.1024,-3.1024,-3.1024,-3.1024,-3.1024,-3.1024,-3.1024,-3.1024,-3.1024,-3.1024,-3.1024,-3.1024,-3.1024,-3.1024,-3.0882,-3.0464,-2.9902,-2.9405,-2.9104,-2.9,-2.8686,-2.8752,-2.8686,-2.8038,-2.802,-2.8137,-2.7699,-2.7568,-2.7503,-2.7503,-2.7503,-2.7503,-2.7503,-2.7464,-2.7183,-2.6844,-2.6661,-2.6418,-2.6177,-2.6255,-2.6373,-2.6798,-2.7157,-2.7451,-2.7503,-2.7503,-2.7503,-2.7503,-2.7503,-2.7503,-2.7503,-2.7503,-2.7503,-1.8686,-1.8899,-1.8591,-1.8895,-1.9662,-2.0068,-2.0883,-2.1865,-2.2417,-2.2818,-2.3042,-2.2789,-2.2818,-2.2974,-2.2808,-2.2881,-2.311,-2.3428,-2.3393,-2.3159,-2.311,-2.2998,-2.2792,-2.2754,-2.2798,-2.305,-2.3443,-2.396,-2.4466,-2.4828,-2.4828,-2.4569,-2.4518,-2.4507,-2.4538,-2.4507,-2.4507,-2.4507,-2.4507,-2.4507,-2.4507,-2.4507,-2.4507,-2.4507,-2.4507,-2.4882,-2.5644,-2.5812,-2.626,-2.6921,-2.7138,-2.7696,-2.8661,-2.9406,-2.9986,-3.0634,-3.0874,-3.1024,-3.1024,-3.1024,-3.1024,-3.1024,-3.1024,-3.1024,-3.1024,-3.1024,-3.1024,-3.1024,-3.1024,-3.1024,-3.1024,-3.1024,-3.1024,-3.1024,-3.1024,-3.1024,-3.0934,-3.0503,-2.9902,-2.9405,-2.931,-2.9218,-2.9127,-2.931,-2.9205,-2.8752,-2.8556,-2.8333,-2.8137,-2.7798,-2.7503,-2.7503,-2.7503,-2.7503,-2.7503,-2.7503,-2.7333,-2.7118,-2.6961,-2.6817,-2.6648,-2.6621,-2.6758,-2.6844,-2.7236,-2.7398,-2.7451,-2.7503,-2.7503,-2.7503,-2.7503,-2.7503,-2.7503,-2.7503,-2.7503,-1.8644,-1.8788,-1.8693,-1.911,-1.987,-2.0683,-2.1468,-2.2226,-2.2824,-2.3101,-2.3033,-2.2828,-2.2935,-2.3262,-2.3105,-2.3232,-2.3613,-2.3996,-2.3967,-2.3643,-2.3569,-2.3363,-2.3024,-2.3,-2.337,-2.3866,-2.424,-2.4602,-2.5037,-2.5306,-2.5326,-2.5088,-2.5037,-2.5057,-2.5006,-2.4828,-2.4766,-2.4735,-2.459,-2.4507,-2.4507,-2.4507,-2.4507,-2.4507,-2.4507,-2.4967,-2.5812,-2.5895,-2.6324,-2.7056,-2.7423,-2.8087,-2.9055,-2.9639,-3.0305,-3.0823,-3.1024,-3.1024,-3.1024,-3.1024,-3.1024,-3.1024,-3.1024,-3.1024,-3.1024,-3.1024,-3.1024,-3.1024,-3.1024,-3.1024,-3.1024,-3.1024,-3.1024,-3.1024,-3.1024,-3.1024,-3.0934,-3.0686,-3.0372,-3.0059,-2.998,-2.9823,-2.9666,-2.9836,-2.9702,-2.9428,-2.9144,-2.8917,-2.8699,-2.8216,-2.7981,-2.7745,-2.7594,-2.7568,-2.7516,-2.7503,-2.7503,-2.7346,-2.7236,-2.7079,-2.6889,-2.7027,-2.7131,-2.7027,-2.7262,-2.7301,-2.7333,-2.7451,-2.7503,-2.7503,-2.7503,-2.7503,-2.7503,-2.7503,-2.7503,-1.8825,-1.8881,-1.918,-1.9542,-2.0118,-2.1198,-2.1879,-2.2344,-2.2869,-2.3101,-2.3081,-2.3052,-2.334,-2.3701,-2.3662,-2.3877,-2.4355,-2.4628,-2.4638,-2.447,-2.445,-2.4275,-2.3827,-2.38,-2.4301,-2.5003,-2.5148,-2.5461,-2.5823,-2.5885,-2.5941,-2.5782,-2.574,-2.5889,-2.5699,-2.5451,-2.5189,-2.5075,-2.4755,-2.458,-2.4518,-2.4507,-2.4507,-2.4507,-2.4583,-2.4999,-2.577,-2.6021,-2.6437,-2.7231,-2.7938,-2.8554,-2.9133,-2.9716,-3.0432,-3.0986,-3.1024,-3.1024,-3.1024,-3.1024,-3.1024,-3.1024,-3.1024,-3.1024,-3.1024,-3.1024,-3.1024,-3.1024,-3.1024,-3.1024,-3.1024,-3.1024,-3.1024,-3.1024,-3.1024,-3.1024,-3.1024,-3.0947,-3.083,-3.0869,-3.0972,-3.079,-3.0241,-3.0581,-3.032,-2.9876,-2.9797,-2.9653,-2.9314,-2.8817,-2.8486,-2.815,-2.7824,-2.7581,-2.7503,-2.7503,-2.7503,-2.7464,-2.7346,-2.7281,-2.7177,-2.7268,-2.7346,-2.7288,-2.7223,-2.7249,-2.7301,-2.7425,-2.7503,-2.7503,-2.7503,-2.7503,-2.7536,-2.7556,-2.7756,-1.9087,-1.9499,-1.9359,-2.006,-2.1135,-2.158,-2.2169,-2.284,-2.3027,-2.3101,-2.3101,-2.3101,-2.3344,-2.3769,-2.3809,-2.4014,-2.4443,-2.4859,-2.4996,-2.4998,-2.5435,-2.5096,-2.4499,-2.4354,-2.4861,-2.5627,-2.5771,-2.5937,-2.6361,-2.6438,-2.6227,-2.5896,-2.6003,-2.5927,-2.5854,-2.5792,-2.5533,-2.523,-2.5096,-2.4817,-2.4538,-2.4507,-2.4507,-2.454,-2.4786,-2.5253,-2.5895,-2.652,-2.7179,-2.7898,-2.8554,-2.9133,-2.9729,-3.0317,-3.0785,-3.0949,-3.1024,-3.1024,-3.1024,-3.1024,-3.1024,-3.1024,-3.1024,-3.1024,-3.1024,-3.1024,-3.1024,-3.1024,-3.1024,-3.1024,-3.1024,-3.1024,-3.1024,-3.1024,-3.1024,-3.1024,-3.1024,-3.1024,-3.1024,-3.1024,-3.1024,-3.0869,-3.0817,-3.0817,-3.0843,-3.0516,-3.0281,-3.0113,-2.9797,-2.9157,-2.8708,-2.8294,-2.7968,-2.7659,-2.7503,-2.7503,-2.7503,-2.7503,-2.7477,-2.7477,-2.7398,-2.7411,-2.7451,-2.7438,-2.7372,-2.7359,-2.7398,-2.749,-2.7503,-2.7503,-2.7503,-2.7503,-2.7689,-2.7789,-2.8105,-1.9702,-2.0068,-2.0415,-2.1188,-2.2189,-2.2244,-2.279,-2.3456,-2.3237,-2.3208,-2.3296,-2.3159,-2.3442,-2.4023,-2.4062,-2.4414,-2.4951,-2.532,-2.5428,-2.5477,-2.5972,-2.5929,-2.5564,-2.5458,-2.5782,-2.6372,-2.6501,-2.6656,-2.6864,-2.6905,-2.6739,-2.6594,-2.6501,-2.6455,-2.6532,-2.6273,-2.5947,-2.5564,-2.5337,-2.4972,-2.4538,-2.4507,-2.4507,-2.454,-2.4786,-2.5211,-2.5906,-2.6727,-2.7505,-2.8167,-2.8779,-2.9367,-2.9947,-3.0621,-3.0986,-3.1024,-3.1024,-3.1024,-3.1024,-3.1024,-3.1024,-3.1024,-3.1024,-3.1024,-3.1024,-3.1024,-3.1024,-3.1024,-3.1024,-3.1024,-3.1024,-3.1024,-3.1024,-3.1024,-3.1024,-3.1024,-3.1024,-3.1024,-3.1024,-3.1024,-3.1024,-3.1024,-3.1024,-3.1024,-3.1024,-3.0908,-3.0673,-3.0581,-3.0385,-2.9588,-2.9026,-2.8804,-2.8556,-2.836,-2.8294,-2.8294,-2.8242,-2.8164,-2.7894,-2.7876,-2.7673,-2.762,-2.7503,-2.7503,-2.7503,-2.7503,-2.7503,-2.7503,-2.7503,-2.7503,-2.7503,-2.7556,-2.7723,-2.8157,-2.8481,-2.0534,-2.0793,-2.1955,-2.2695,-2.3103,-2.3153,-2.3563,-2.4095,-2.353,-2.3477,-2.373,-2.3506,-2.3896,-2.4482,-2.46,-2.499,-2.5625,-2.577,-2.5868,-2.5964,-2.6255,-2.6461,-2.6703,-2.6558,-2.676,-2.7123,-2.7289,-2.7258,-2.7226,-2.7268,-2.7289,-2.7175,-2.7206,-2.7268,-2.7102,-2.6843,-2.6459,-2.5968,-2.5554,-2.5117,-2.4704,-2.4569,-2.4507,-2.454,-2.4796,-2.5253,-2.6021,-2.685,-2.7655,-2.8275,-2.8819,-2.9445,-3.0037,-3.0748,-3.0949,-3.1024,-3.1024,-3.1024,-3.1024,-3.1024,-3.1024,-3.1024,-3.1024,-3.1024,-3.1024,-3.1024,-3.1024,-3.1024,-3.1024,-3.1024,-3.1024,-3.1024,-3.1024,-3.1024,-3.1024,-3.1024,-3.1024,-3.1024,-3.1024,-3.1024,-3.1024,-3.1024,-3.1024,-3.1024,-3.1024,-3.1024,-3.0856,-3.0817,-3.0647,-3.0111,-2.981,-2.9722,-2.9483,-2.9183,-2.9157,-2.9157,-2.9078,-2.8974,-2.8634,-2.8412,-2.8072,-2.7902,-2.7607,-2.7503,-2.7503,-2.7503,-2.7503,-2.7503,-2.7503,-2.7503,-2.7503,-2.7556,-2.7709,-2.8436,-2.8871,-2.1612,-2.2845,-2.3126,-2.3579,-2.4013,-2.3796,-2.3945,-2.4339,-2.3887,-2.3887,-2.4258,-2.4502,-2.4697,-2.4932,-2.5185,-2.5538,-2.5664,-2.5771,-2.5917,-2.6352,-2.64,-2.6784,-2.7109,-2.7117,-2.7216,-2.732,-2.732,-2.732,-2.732,-2.732,-2.732,-2.732,-2.732,-2.732,-2.7278,-2.7175,-2.6926,-2.648,-2.5968,-2.5533,-2.5044,-2.4693,-2.4528,-2.455,-2.52,-2.5812,-2.6456,-2.74,-2.8247,-2.8791,-2.9094,-2.9639,-3.0508,-3.0911,-3.0986,-3.1024,-3.1024,-3.1024,-3.1024,-3.1024,-3.1024,-3.1024,-3.1024,-3.1024,-3.1024,-3.1024,-3.1024,-3.1024,-3.1024,-3.1024,-3.1024,-3.1024,-3.1024,-3.1024,-3.1024,-3.1024,-3.1024,-3.1024,-3.1024,-3.1024,-3.1024,-3.1024,-3.1024,-3.1024,-3.1024,-3.1024,-3.1024,-3.1024,-3.0777,-3.049,-3.0398,-3.0283,-3.0045,-2.9706,-2.9706,-2.968,-2.9627,-2.9536,-2.9248,-2.8922,-2.8569,-2.8216,-2.7981,-2.7699,-2.7503,-2.7503,-2.7503,-2.7503,-2.7503,-2.7503,-2.7523,-2.7709,-2.8026,-2.8712,-2.9331,-2.2921,-2.3767,-2.4123,-2.4564,-2.4837,-2.4385,-2.4443,-2.4824,-2.4336,-2.4326,-2.4639,-2.4785,-2.492,-2.5125,-2.5312,-2.5508,-2.5664,-2.5684,-2.5975,-2.64,-2.6496,-2.6784,-2.7214,-2.732,-2.732,-2.732,-2.732,-2.732,-2.732,-2.732,-2.732,-2.732,-2.732,-2.732,-2.732,-2.7309,-2.704,-2.6667,-2.6387,-2.5989,-2.5544,-2.5065,-2.4662,-2.4783,-2.553,-2.6284,-2.6282,-2.7482,-2.8395,-2.9015,-2.9406,-2.996,-3.0785,-3.1024,-3.1024,-3.1024,-3.1024,-3.1024,-3.1024,-3.1024,-3.1024,-3.1024,-3.1024,-3.1024,-3.1024,-3.1024,-3.1024,-3.1024,-3.1024,-3.1024,-3.1024,-3.1024,-3.1024,-3.1024,-3.1024,-3.1024,-3.1024,-3.1024,-3.1024,-3.1024,-3.1024,-3.1024,-3.1024,-3.1024,-3.1024,-3.1024,-3.1024,-3.1024,-3.1024,-3.0751,-3.0699,-3.0581,-3.0372,-3.0202,-3.0202,-3.0163,-3.0085,-2.9967,-2.9758,-2.9418,-2.9065,-2.8699,-2.8347,-2.8098,-2.7863,-2.7516,-2.7503,-2.7503,-2.7503,-2.749,-2.7623,-2.7894,-2.8338,-2.8967,-2.9594,-2.4196,-2.4365,-2.4967,-2.5391,-2.5528,-2.4873,-2.4951,-2.5469,-2.4873,-2.4766,-2.5059,-2.4756,-2.498,-2.5146,-2.5225,-2.543,-2.5644,-2.583,-2.6062,-2.6448,-2.6602,-2.688,-2.7214,-2.732,-2.732,-2.732,-2.732,-2.732,-2.732,-2.732,-2.732,-2.732,-2.732,-2.732,-2.732,-2.7299,-2.7143,-2.6812,-2.6625,-2.6418,-2.5978,-2.5554,-2.513,-2.5143,-2.583,-2.6353,-2.6485,-2.751,-2.8593,-2.9081,-2.9755,-3.0394,-3.0836,-3.1024,-3.1024,-3.1024,-3.1024,-3.1024,-3.1024,-3.1024,-3.1024,-3.1024,-3.1024,-3.1024,-3.1024,-3.1024,-3.1024,-3.1024,-3.1024,-3.1024,-3.1024,-3.1024,-3.1024,-3.1024,-3.1024,-3.1024,-3.1024,-3.1024,-3.1024,-3.1024,-3.1024,-3.1024,-3.1024,-3.1024,-3.1024,-3.1024,-3.1024,-3.1024,-3.1024,-3.1011,-3.0882,-3.0843,-3.0647,-3.0568,-3.0568,-3.0542,-3.0477,-3.0385,-3.0228,-3.0006,-2.9702,-2.9392,-2.9052,-2.8543,-2.8229,-2.7941,-2.7633,-2.7581,-2.7568,-2.7516,-2.7776,-2.8176,-2.868,-2.9219,-2.9915,-2.4599,-2.543,-2.5557,-2.5625,-2.5606,-2.5176,-2.5254,-2.5605,-2.5176,-2.5225,-2.5557,-2.5489,-2.544,-2.5538,-2.5567,-2.5635,-2.5771,-2.5917,-2.6207,-2.6544,-2.6699,-2.6986,-2.7214,-2.732,-2.732,-2.732,-2.732,-2.732,-2.732,-2.732,-2.732,-2.732,-2.732,-2.732,-2.732,-2.7309,-2.7278,-2.7081,-2.6853,-2.6615,-2.6438,-2.6107,-2.5729,-2.5609,-2.6303,-2.6494,-2.6798,-2.7943,-2.9015,-2.9199,-3.0241,-3.0748,-3.0986,-3.1024,-3.1024,-3.1024,-3.1024,-3.1024,-3.1024,-3.1024,-3.1024,-3.1024,-3.1024,-3.1024,-3.1024,-3.1024,-3.1024,-3.1024,-3.1024,-3.1024,-3.1024,-3.1024,-3.1024,-3.1024,-3.1024,-3.1024,-3.1024,-3.1024,-3.1024,-3.1024,-3.1024,-3.1024,-3.1024,-3.1024,-3.1024,-3.1024,-3.1024,-3.1024,-3.1024,-3.1024,-3.0998,-3.0947,-3.0972,-3.0945,-3.0945,-3.0919,-3.083,-3.079,-3.0699,-3.0686,-3.0398,-3.0176,-2.981,-2.9366,-2.8852,-2.8386,-2.8124,-2.7915,-2.7816,-2.7954,-2.8213,-2.8568,-2.9352,-3.0119,-3.0706,-2.5226,-2.5684,-2.5684,-2.5684,-2.5645,-2.5518,-2.5537,-2.5635,-2.5518,-2.5537,-2.5635,-2.5684,-2.5684,-2.5684,-2.5684,-2.5771,-2.5917,-2.6004,-2.6352,-2.6651,-2.6853,-2.7034,-2.7262,-2.732,-2.732,-2.732,-2.732,-2.732,-2.732,-2.732,-2.732,-2.732,-2.732,-2.732,-2.732,-2.732,-2.732,-2.7237,-2.7092,-2.6967,-2.6967,-2.6698,-2.6451,-2.6178,-2.6496,-2.6758,-2.6892,-2.8174,-2.9055,-2.9355,-3.0305,-3.0861,-3.1024,-3.1024,-3.1024,-3.1024,-3.1024,-3.1024,-3.1024,-3.1024,-3.1024,-3.1024,-3.1024,-3.1024,-3.1024,-3.1024,-3.1024,-3.1024,-3.1024,-3.1024,-3.1024,-3.1024,-3.1024,-3.1024,-3.1024,-3.1024,-3.1024,-3.1024,-3.1024,-3.1024,-3.1024,-3.1024,-3.1024,-3.1024,-3.1024,-3.1024,-3.1024,-3.1024,-3.1024,-3.1024,-3.1024,-3.1024,-3.1024,-3.1024,-3.1024,-3.1024,-3.1024,-3.1024,-3.1024,-3.1024,-3.0921,-3.0607,-3.0516,-3.0307,-2.9742,-2.9175,-2.8839,-2.8708,-2.8529,-2.8523,-2.9134,-2.9753,-3.0387,-3.1043,-3.1626,-2.5684,-2.5684,-2.5684,-2.5684,-2.5684,-2.5684,-2.5674,-2.5684,-2.5674,-2.5664,-2.5684,-2.5684,-2.5684,-2.5732,-2.5781,-2.5917,-2.61,-2.6197,-2.6554,-2.6794,-2.6996,-2.7129,-2.7272,-2.732,-2.732,-2.732,-2.732,-2.732,-2.732,-2.732,-2.732,-2.732,-2.732,-2.732,-2.732,-2.732,-2.732,-2.732,-2.732,-2.732,-2.732,-2.7268,-2.6983,-2.625,-2.6845,-2.7096,-2.7157,-2.8321,-2.9114,-2.9553,-3.0305,-3.1024,-3.1024,-3.1024,-3.1024,-3.1024,-3.1024,-3.1024,-3.1024,-3.1024,-3.1024,-3.1024,-3.1024,-3.1024,-3.1024,-3.1024,-3.1024,-3.1024,-3.1024,-3.1024,-3.1024,-3.1024,-3.1024,-3.1024,-3.1024,-3.1024,-3.1024,-3.1024,-3.1024,-3.1024,-3.1024,-3.1024,-3.1024,-3.1024,-3.1024,-3.1024,-3.1024,-3.1024,-3.1024,-3.1024,-3.1024,-3.1024,-3.1024,-3.1024,-3.1024,-3.1024,-3.1024,-3.1024,-3.1024,-3.1024,-3.1024,-3.0908,-3.088,-3.0775,-3.0788,-3.0246,-2.9887,-2.9526,-2.9406,-2.9596,-3.0303,-3.0896,-3.1393,-3.1939,-3.2548,-2.5684,-2.5684,-2.5684,-2.5684,-2.5684,-2.5684,-2.5684,-2.5684,-2.5684,-2.5684,-2.5684,-2.5684,-2.5684,-2.5732,-2.5917,-2.6052,-2.6245,-2.6506,-2.6747,-2.6948,-2.7129,-2.7214,-2.7309,-2.732,-2.732,-2.732,-2.732,-2.732,-2.732,-2.732,-2.732,-2.732,-2.732,-2.732,-2.732,-2.732,-2.732,-2.732,-2.732,-2.732,-2.732,-2.7309,-2.7139,-2.7094,-2.7147,-2.7406,-2.7775,-2.8733,-2.9339,-2.988,-3.0573,-3.0988,-3.1024,-3.1024,-3.1024,-3.1024,-3.1024,-3.1024,-3.1024,-3.1024,-3.1024,-3.1024,-3.1024,-3.1024,-3.1024,-3.1024,-3.1024,-3.1024,-3.1024,-3.1024,-3.1024,-3.1024,-3.1024,-3.1024,-3.1024,-3.1024,-3.1024,-3.1024,-3.1024,-3.1024,-3.1024,-3.1024,-3.1024,-3.1024,-3.1024,-3.1024,-3.1024,-3.1024,-3.1024,-3.1024,-3.1024,-3.1024,-3.1024,-3.1024,-3.1024,-3.1024,-3.1024,-3.1024,-3.1024,-3.1024,-3.1024,-3.1024,-3.1024,-3.0979,-3.107,-3.1078,-3.0631,-3.0357,-3.0306,-3.0774,-3.1533,-3.1952,-3.2286,-3.288,-3.3553,-2.5684,-2.5684,-2.5684,-2.5684,-2.5684,-2.5684,-2.5684,-2.5684,-2.5684,-2.5684,-2.5684,-2.5684,-2.5684,-2.5732,-2.583,-2.6062,-2.6304,-2.6592,-2.689,-2.7081,-2.7262,-2.732,-2.732,-2.732,-2.732,-2.732,-2.732,-2.732,-2.732,-2.732,-2.732,-2.732,-2.732,-2.732,-2.732,-2.732,-2.732,-2.732,-2.732,-2.732,-2.732,-2.7289,-2.73,-2.7233,-2.7224,-2.769,-2.8508,-2.9237,-2.9878,-3.0433,-3.11,-3.1262,-3.1078,-3.1024,-3.1024,-3.1024,-3.1024,-3.1024,-3.1024,-3.1024,-3.1024,-3.1024,-3.1024,-3.1024,-3.1024,-3.1024,-3.1024,-3.1024,-3.1024,-3.1024,-3.1024,-3.1024,-3.1024,-3.1024,-3.1024,-3.1024,-3.1024,-3.1024,-3.1024,-3.1024,-3.1024,-3.1024,-3.1024,-3.1024,-3.1024,-3.1024,-3.1024,-3.1024,-3.1024,-3.1024,-3.1024,-3.1024,-3.1024,-3.1024,-3.1024,-3.1024,-3.1024,-3.1024,-3.1024,-3.1024,-3.1024,-3.1024,-3.1024,-3.1024,-3.1053,-3.1079,-3.1116,-3.1509,-3.175,-3.2268,-3.2834,-3.3143,-3.3484,-3.4103,-3.4646,-2.5684,-2.5684,-2.5684,-2.5684,-2.5684,-2.5684,-2.5684,-2.5684,-2.5684,-2.5684,-2.5684,-2.5684,-2.5684,-2.5732,-2.583,-2.6062,-2.6506,-2.6544,-2.688,-2.7167,-2.732,-2.732,-2.732,-2.732,-2.732,-2.732,-2.732,-2.732,-2.732,-2.732,-2.732,-2.732,-2.732,-2.732,-2.732,-2.732,-2.732,-2.732,-2.732,-2.732,-2.732,-2.732,-2.7309,-2.729,-2.7363,-2.7858,-2.9059,-2.9644,-3.0257,-3.1044,-3.1474,-3.1497,-3.1104,-3.1024,-3.1024,-3.1024,-3.1024,-3.1024,-3.1024,-3.1024,-3.1024,-3.1024,-3.1024,-3.1024,-3.1024,-3.1024,-3.1024,-3.1024,-3.1024,-3.1024,-3.1024,-3.1024,-3.1024,-3.1024,-3.1024,-3.1024,-3.1024,-3.1024,-3.1024,-3.1024,-3.1024,-3.1024,-3.1024,-3.1024,-3.1024,-3.1024,-3.1024,-3.1024,-3.1024,-3.1024,-3.1024,-3.1024,-3.1024,-3.1024,-3.1024,-3.1024,-3.1024,-3.1024,-3.1024,-3.1024,-3.1024,-3.1024,-3.1024,-3.1024,-3.1123,-3.1733,-3.2157,-3.2729,-3.3269,-3.3491,-3.3768,-3.4272,-3.4725,-3.5246,-3.5427,-2.5684,-2.5684,-2.5684,-2.5684,-2.5684,-2.5684,-2.5684,-2.5684,-2.5684,-2.5684,-2.5684,-2.5684,-2.5684,-2.5732,-2.5917,-2.6159,-2.6496,-2.6747,-2.6976,-2.7214,-2.732,-2.732,-2.732,-2.732,-2.732,-2.732,-2.732,-2.732,-2.732,-2.732,-2.732,-2.732,-2.732,-2.732,-2.732,-2.732,-2.732,-2.732,-2.732,-2.732,-2.732,-2.732,-2.732,-2.732,-2.741,-2.8028,-2.9625,-2.9983,-3.0634,-3.1569,-3.1823,-3.1562,-3.1143,-3.1037,-3.1024,-3.1024,-3.1024,-3.1024,-3.1024,-3.1024,-3.1024,-3.1024,-3.1024,-3.1024,-3.1024,-3.1024,-3.1024,-3.1024,-3.1024,-3.1024,-3.1024,-3.1024,-3.1024,-3.1024,-3.1024,-3.1024,-3.1024,-3.1024,-3.1024,-3.1024,-3.1024,-3.1024,-3.1024,-3.1024,-3.1024,-3.1024,-3.1024,-3.1024,-3.1024,-3.1024,-3.1024,-3.1024,-3.1024,-3.1024,-3.1024,-3.1024,-3.1024,-3.1024,-3.1024,-3.1024,-3.1024,-3.1024,-3.1024,-3.1259,-3.1519,-3.2354,-3.3108,-3.3353,-3.3699,-3.4225,-3.4643,-3.4938,-3.5085,-3.5344,-3.5457,-2.5684,-2.5684,-2.5684,-2.5684,-2.5684,-2.5684,-2.5684,-2.5684,-2.5684,-2.5684,-2.5684,-2.5684,-2.5684,-2.5732,-2.583,-2.611,-2.6448,-2.6592,-2.6928,-2.7167,-2.732,-2.732,-2.732,-2.732,-2.732,-2.732,-2.732,-2.732,-2.732,-2.732,-2.732,-2.732,-2.732,-2.732,-2.732,-2.732,-2.732,-2.732,-2.732,-2.732,-2.732,-2.732,-2.732,-2.732,-2.732,-2.8423,-3.0033,-3.0433,-3.1211,-3.1942,-3.2292,-3.1823,-3.1182,-3.1052,-3.1024,-3.1024,-3.1024,-3.1024,-3.1024,-3.1024,-3.1024,-3.1024,-3.1024,-3.1024,-3.1024,-3.1024,-3.1024,-3.1024,-3.1024,-3.1024,-3.1024,-3.1024,-3.1024,-3.1024,-3.1024,-3.1024,-3.1024,-3.1024,-3.1024,-3.1024,-3.1024,-3.1024,-3.1024,-3.1024,-3.1024,-3.1024,-3.1024,-3.1024,-3.1024,-3.1024,-3.1024,-3.1024,-3.1024,-3.1024,-3.1024,-3.1024,-3.1024,-3.1024,-3.1024,-3.1024,-3.1024,-3.1024,-3.1061,-3.1408,-3.1786,-3.2484,-3.3073,-3.3561,-3.4124,-3.4725,-3.5085,-3.5344,-3.5457,-3.5489,-3.5489,-2.5684,-2.5684,-2.5684,-2.5684,-2.5684,-2.5684,-2.5684,-2.5684,-2.5684,-2.5684,-2.5684,-2.5684,-2.5684,-2.5732,-2.582,-2.6062,-2.6448,-2.664,-2.6928,-2.7167,-2.732,-2.732,-2.732,-2.732,-2.732,-2.732,-2.732,-2.732,-2.732,-2.732,-2.732,-2.732,-2.732,-2.732,-2.732,-2.732,-2.732,-2.732,-2.732,-2.732,-2.732,-2.732,-2.732,-2.7404,-2.7584,-2.8702,-3.0259,-3.1048,-3.1828,-3.2424,-3.2619,-3.2137,-3.1561,-3.1104,-3.1013,-3.1037,-3.1037,-3.105,-3.1037,-3.1024,-3.1024,-3.1024,-3.1024,-3.1024,-3.1024,-3.1037,-3.1024,-3.1024,-3.1024,-3.1037,-3.1063,-3.1024,-3.1024,-3.1024,-3.1024,-3.1024,-3.1024,-3.1024,-3.1024,-3.1024,-3.1024,-3.1024,-3.1024,-3.1024,-3.1024,-3.1024,-3.1024,-3.1024,-3.1024,-3.1024,-3.1024,-3.1024,-3.1024,-3.1024,-3.1024,-3.1024,-3.1024,-3.1024,-3.1024,-3.1024,-3.1024,-3.1024,-3.1024,-3.1222,-3.175,-3.247,-3.3213,-3.3919,-3.4639,-3.5311,-3.5457,-3.5489,-3.5489,-3.5489,-3.5489,-2.5684,-2.5684,-2.5684,-2.5684,-2.5684,-2.5684,-2.5684,-2.5684,-2.5684,-2.5684,-2.5684,-2.5684,-2.5732,-2.5781,-2.5955,-2.6245,-2.6544,-2.6747,-2.7034,-2.7214,-2.732,-2.732,-2.732,-2.732,-2.732,-2.732,-2.732,-2.732,-2.732,-2.732,-2.732,-2.732,-2.732,-2.732,-2.732,-2.732,-2.732,-2.732,-2.732,-2.732,-2.732,-2.732,-2.732,-2.7452,-2.8081,-2.9246,-3.0395,-3.1609,-3.2374,-3.298,-3.2828,-3.2398,-3.1863,-3.1352,-3.1169,-3.1196,-3.1156,-3.1117,-3.1052,-3.1039,-3.113,-3.1169,-3.1261,-3.13,-3.113,-3.1091,-3.1209,-3.1405,-3.1261,-3.1169,-3.1078,-3.1129,-3.122,-3.1209,-3.1261,-3.1156,-3.1182,-3.1024,-3.1024,-3.1024,-3.1024,-3.1024,-3.1024,-3.1024,-3.1024,-3.1024,-3.1024,-3.1024,-3.1024,-3.1024,-3.1024,-3.1024,-3.1024,-3.1024,-3.1024,-3.1024,-3.1024,-3.1024,-3.1024,-3.1024,-3.1024,-3.1024,-3.1048,-3.1147,-3.1919,-3.2897,-3.3679,-3.4404,-3.5001,-3.5457,-3.5457,-3.5489,-3.5489,-3.5489,-3.5489,-2.5684,-2.5684,-2.5684,-2.5684,-2.5684,-2.5684,-2.5684,-2.5684,-2.5684,-2.5684,-2.5684,-2.5684,-2.583,-2.5965,-2.61,-2.6342,-2.6747,-2.6794,-2.7034,-2.7262,-2.732,-2.732,-2.732,-2.732,-2.732,-2.732,-2.732,-2.732,-2.732,-2.732,-2.732,-2.732,-2.732,-2.732,-2.732,-2.732,-2.732,-2.732,-2.732,-2.732,-2.732,-2.732,-2.7357,-2.7404,-2.8456,-2.9612,-3.0742,-3.1972,-3.284,-3.3312,-3.305,-3.2659,-3.2333,-3.1875,-3.1744,-3.1954,-3.2084,-3.2123,-3.211,-3.211,-3.1927,-3.1823,-3.1823,-3.198,-3.2084,-3.2123,-3.2123,-3.2045,-3.194,-3.1967,-3.215,-3.2136,-3.2163,-3.2084,-3.2019,-3.1667,-3.1497,-3.1169,-3.1024,-3.1024,-3.1024,-3.1052,-3.1078,-3.1037,-3.1024,-3.1024,-3.1024,-3.1024,-3.1024,-3.1024,-3.1024,-3.1024,-3.1024,-3.1024,-3.1024,-3.1024,-3.1024,-3.1024,-3.1024,-3.1024,-3.1024,-3.1024,-3.1334,-3.1529,-3.2448,-3.3367,-3.4104,-3.4787,-3.518,-3.5489,-3.5489,-3.5489,-3.5489,-3.5489,-3.5489,-2.5684,-2.5684,-2.5684,-2.5684,-2.5684,-2.5684,-2.5684,-2.5684,-2.5684,-2.5684,-2.5732,-2.5781,-2.5917,-2.61,-2.6342,-2.6496,-2.69,-2.7034,-2.7081,-2.7309,-2.732,-2.732,-2.732,-2.732,-2.732,-2.732,-2.732,-2.732,-2.732,-2.732,-2.732,-2.732,-2.732,-2.732,-2.732,-2.732,-2.732,-2.732,-2.732,-2.732,-2.7357,-2.7489,-2.7726,-2.8269,-2.9211,-3.0361,-3.1376,-3.2346,-3.3293,-3.3483,-3.3338,-3.3012,-3.2842,-3.2581,-3.2372,-3.2581,-3.2672,-3.2659,-3.2607,-3.2921,-3.2725,-3.2568,-3.2685,-3.2659,-3.2672,-3.2555,-3.2581,-3.2594,-3.2725,-3.2712,-3.2725,-3.2751,-3.2738,-3.2646,-3.2502,-3.215,-3.2058,-3.1705,-3.1575,-3.1509,-3.147,-3.1431,-3.1261,-3.1052,-3.1024,-3.1024,-3.1024,-3.1063,-3.1089,-3.1037,-3.1037,-3.1024,-3.1024,-3.1024,-3.1024,-3.1024,-3.1024,-3.1024,-3.1024,-3.1024,-3.1024,-3.1024,-3.1492,-3.1978,-3.272,-3.3506,-3.4491,-3.5118,-3.5377,-3.5489,-3.5489,-3.5489,-3.5489,-3.5489,-3.5489,-2.5664,-2.5674,-2.5654,-2.5606,-2.5625,-2.5586,-2.5645,-2.5674,-2.5732,-2.5732,-2.5732,-2.6014,-2.6149,-2.6245,-2.6651,-2.69,-2.6996,-2.7167,-2.7262,-2.7309,-2.732,-2.732,-2.732,-2.732,-2.732,-2.732,-2.732,-2.732,-2.732,-2.732,-2.732,-2.732,-2.732,-2.732,-2.732,-2.732,-2.732,-2.732,-2.732,-2.732,-2.7357,-2.7715,-2.8175,-2.8945,-3.0102,-3.1223,-3.2246,-3.3237,-3.3827,-3.397,-3.3753,-3.3625,-3.3404,-3.3025,-3.2829,-3.2777,-3.2855,-3.2908,-3.3012,-3.3443,-3.3548,-3.3391,-3.3117,-3.2881,-3.2881,-3.3051,-3.3117,-3.3091,-3.3117,-3.2986,-3.2894,-3.2947,-3.2986,-3.2921,-3.2855,-3.2738,-3.2712,-3.2568,-3.2489,-3.2437,-3.2398,-3.2267,-3.1888,-3.1601,-3.1469,-3.1496,-3.1561,-3.1522,-3.1457,-3.1039,-3.1026,-3.1024,-3.1024,-3.1024,-3.1024,-3.0999,-3.1024,-3.1024,-3.1024,-3.1024,-3.1024,-3.1086,-3.1468,-3.1978,-3.2755,-3.3665,-3.4773,-3.5279,-3.5424,-3.5489,-3.5489,-3.5489,-3.5489,-3.5489,-3.5489,-2.5254,-2.5225,-2.4922,-2.4748,-2.4844,-2.5127,-2.543,-2.5713,-2.5868,-2.5917,-2.5742,-2.6207,-2.6352,-2.6448,-2.6747,-2.6986,-2.7129,-2.7262,-2.732,-2.732,-2.732,-2.732,-2.732,-2.732,-2.732,-2.732,-2.732,-2.732,-2.732,-2.732,-2.732,-2.732,-2.732,-2.732,-2.732,-2.732,-2.732,-2.7357,-2.7357,-2.7357,-2.7499,-2.7809,-2.8502,-2.9486,-3.0732,-3.1809,-3.2722,-3.37,-3.4189,-3.4223,-3.3834,-3.3718,-3.411,-3.3679,-3.3417,-3.3875,-3.3927,-3.394,-3.3927,-3.4045,-3.4123,-3.4097,-3.3901,-3.3953,-3.3901,-3.3796,-3.377,-3.3692,-3.3652,-3.36,-3.3587,-3.36,-3.36,-3.3574,-3.347,-3.3326,-3.326,-3.3117,-3.3038,-3.2973,-3.296,-3.279,-3.2411,-3.2241,-3.2149,-3.2163,-3.2163,-3.2071,-3.1914,-3.1522,-3.1326,-3.1313,-3.113,-3.1182,-3.1039,-3.1013,-3.0999,-3.1024,-3.1024,-3.1024,-3.1024,-3.1123,-3.1431,-3.2087,-3.3073,-3.4104,-3.5213,-3.5472,-3.5489,-3.5489,-3.5489,-3.5489,-3.5489,-3.5489,-3.5489,-2.4971,-2.4785,-2.4531,-2.4424,-2.4463,-2.4697,-2.498,-2.5244,-2.5711,-2.5868,-2.5917,-2.6304,-2.6554,-2.6699,-2.6938,-2.7167,-2.7272,-2.732,-2.732,-2.732,-2.732,-2.732,-2.732,-2.732,-2.732,-2.732,-2.732,-2.732,-2.732,-2.732,-2.732,-2.732,-2.732,-2.732,-2.732,-2.732,-2.7452,-2.7441,-2.7489,-2.7441,-2.7715,-2.8139,-2.8945,-3.0022,-3.1356,-3.219,-3.3194,-3.4134,-3.4314,-3.4397,-3.3992,-3.4045,-3.4358,-3.4084,-3.3966,-3.4306,-3.4306,-3.4293,-3.428,-3.4319,-3.4384,-3.4397,-3.4397,-3.4345,-3.4332,-3.4228,-3.4254,-3.4241,-3.4306,-3.4345,-3.4371,-3.4384,-3.4371,-3.4345,-3.4136,-3.3927,-3.3757,-3.3587,-3.3483,-3.3404,-3.3287,-3.3156,-3.2973,-3.2842,-3.2712,-3.2542,-3.2476,-3.2463,-3.2372,-3.2163,-3.2019,-3.198,-3.1653,-3.138,-3.1274,-3.1117,-3.1039,-3.1013,-3.1024,-3.1024,-3.1024,-3.1235,-3.1542,-3.2448,-3.3512,-3.4457,-3.5359,-3.5472,-3.5489,-3.5489,-3.5489,-3.5489,-3.5489,-3.5489,-3.5489,-2.4727,-2.4365,-2.4336,-2.4277,-2.4375,-2.4414,-2.4482,-2.457,-2.5448,-2.5839,-2.6041,-2.6428,-2.6699,-2.69,-2.7129,-2.7272,-2.732,-2.732,-2.732,-2.732,-2.732,-2.732,-2.732,-2.732,-2.732,-2.732,-2.732,-2.732,-2.732,-2.732,-2.732,-2.732,-2.732,-2.732,-2.732,-2.732,-2.7452,-2.7584,-2.7631,-2.7631,-2.8139,-2.8735,-2.9681,-3.1223,-3.2115,-3.2821,-3.3911,-3.4397,-3.4397,-3.4397,-3.4384,-3.4358,-3.4358,-3.4358,-3.4371,-3.4384,-3.4397,-3.4397,-3.4397,-3.4397,-3.4397,-3.4397,-3.4397,-3.4397,-3.4397,-3.4397,-3.4397,-3.4397,-3.4397,-3.4397,-3.4397,-3.4397,-3.4397,-3.4397,-3.428,-3.4175,-3.411,-3.3992,-3.3966,-3.3888,-3.3783,-3.3652,-3.36,-3.347,-3.3378,-3.3051,-3.2999,-3.3025,-3.296,-3.2868,-3.2646,-3.2594,-3.2215,-3.1849,-3.1549,-3.1418,-3.1143,-3.1052,-3.1052,-3.1024,-3.1024,-3.1296,-3.1653,-3.2662,-3.3699,-3.4524,-3.5213,-3.5392,-3.5489,-3.5489,-3.5489,-3.5489,-3.5519,-3.5594,-3.5549,-2.4033,-2.3906,-2.3539,-2.3578,-2.3965,-2.4277,-2.4739,-2.5243,-2.5767,-2.5844,-2.5857,-2.6611,-2.7034,-2.6996,-2.7177,-2.732,-2.732,-2.732,-2.732,-2.732,-2.732,-2.732,-2.732,-2.732,-2.732,-2.732,-2.732,-2.732,-2.732,-2.732,-2.732,-2.732,-2.7357,-2.7404,-2.7404,-2.7404,-2.7584,-2.7857,-2.7951,-2.8222,-2.8724,-2.9233,-3.0091,-3.1323,-3.2202,-3.3091,-3.3966,-3.4397,-3.4397,-3.4397,-3.4397,-3.4397,-3.4397,-3.4397,-3.4397,-3.4397,-3.4397,-3.4397,-3.4397,-3.4397,-3.4397,-3.4397,-3.4397,-3.4397,-3.4397,-3.4397,-3.4397,-3.4397,-3.4397,-3.4397,-3.4397,-3.4397,-3.4397,-3.4397,-3.4397,-3.4397,-3.4397,-3.4397,-3.4397,-3.4332,-3.4241,-3.4175,-3.4123,-3.4084,-3.4031,-3.4005,-3.4031,-3.4018,-3.3927,-3.3783,-3.326,-3.3077,-3.2738,-3.2385,-3.211,-3.1784,-3.1601,-3.1352,-3.13,-3.1207,-3.1076,-3.1468,-3.1955,-3.2875,-3.3817,-3.4558,-3.5166,-3.5424,-3.5489,-3.5489,-3.5654,-3.5729,-3.5863,-3.5968,-3.5804,-2.3672,-2.3516,-2.3467,-2.3491,-2.3708,-2.41,-2.4453,-2.483,-2.5538,-2.5782,-2.5738,-2.6601,-2.7081,-2.7044,-2.7272,-2.732,-2.732,-2.732,-2.732,-2.732,-2.732,-2.732,-2.732,-2.732,-2.732,-2.732,-2.732,-2.732,-2.732,-2.732,-2.732,-2.7378,-2.7462,-2.7605,-2.7641,-2.7773,-2.8019,-2.8326,-2.856,-2.9071,-2.96,-3.0057,-3.0633,-3.1677,-3.2562,-3.3403,-3.3924,-3.4397,-3.4397,-3.4397,-3.4397,-3.4397,-3.4397,-3.4397,-3.4397,-3.4397,-3.4397,-3.4397,-3.4397,-3.4397,-3.4397,-3.4397,-3.4397,-3.4397,-3.4397,-3.4397,-3.4397,-3.4397,-3.4397,-3.4397,-3.4397,-3.4397,-3.4397,-3.4397,-3.4397,-3.4397,-3.4397,-3.4397,-3.4397,-3.4371,-3.4319,-3.4319,-3.428,-3.4267,-3.4228,-3.4228,-3.4358,-3.4371,-3.4384,-3.4397,-3.394,-3.36,-3.326,-3.3077,-3.2908,-3.2542,-3.2176,-3.1901,-3.1614,-3.1588,-3.1599,-3.1864,-3.2326,-3.3073,-3.3817,-3.4558,-3.5052,-3.5309,-3.5472,-3.5489,-3.5744,-3.6013,-3.6178,-3.6417,-3.6492,-2.3531,-2.3257,-2.3624,-2.3718,-2.3602,-2.3959,-2.4152,-2.4317,-2.5218,-2.5793,-2.5977,-2.6709,-2.7088,-2.7225,-2.732,-2.732,-2.732,-2.732,-2.732,-2.732,-2.732,-2.732,-2.732,-2.732,-2.732,-2.732,-2.732,-2.732,-2.732,-2.732,-2.733,-2.7446,-2.7704,-2.7999,-2.8224,-2.8448,-2.8773,-2.9229,-2.9668,-3.0319,-3.0691,-3.0913,-3.148,-3.2227,-3.3074,-3.3725,-3.4189,-3.4397,-3.4397,-3.4397,-3.4397,-3.4397,-3.4397,-3.4397,-3.4397,-3.4397,-3.4397,-3.4397,-3.4397,-3.4397,-3.4397,-3.4397,-3.4397,-3.4397,-3.4397,-3.4397,-3.4397,-3.4397,-3.4397,-3.4397,-3.4397,-3.4424,-3.4424,-3.4437,-3.4437,-3.441,-3.441,-3.441,-3.4424,-3.441,-3.4397,-3.4397,-3.4397,-3.4397,-3.4397,-3.4397,-3.4397,-3.4397,-3.4397,-3.4397,-3.4201,-3.4018,-3.3835,-3.3692,-3.3522,-3.3221,-3.2751,-3.2424,-3.2176,-3.2136,-3.212,-3.2324,-3.2632,-3.3073,-3.3817,-3.4612,-3.4942,-3.5152,-3.5302,-3.5598,-3.5938,-3.6312,-3.6761,-3.7015,-3.7375,-2.3626,-2.3677,-2.3767,-2.3791,-2.3824,-2.4245,-2.4755,-2.5269,-2.5829,-2.6428,-2.6806,-2.7028,-2.7262,-2.732,-2.732,-2.732,-2.732,-2.732,-2.732,-2.732,-2.732,-2.732,-2.732,-2.732,-2.732,-2.733,-2.734,-2.733,-2.7403,-2.7382,-2.7544,-2.791,-2.7925,-2.8263,-2.8695,-2.9033,-2.9606,-3.0203,-3.087,-3.1441,-3.141,-3.1661,-3.2033,-3.2686,-3.3313,-3.381,-3.4189,-3.4356,-3.4397,-3.4397,-3.4397,-3.4397,-3.4397,-3.4397,-3.4397,-3.4397,-3.4397,-3.4397,-3.4397,-3.4397,-3.4397,-3.4397,-3.4397,-3.4397,-3.4397,-3.4397,-3.4397,-3.4397,-3.4397,-3.4397,-3.441,-3.4489,-3.4515,-3.4541,-3.4554,-3.4476,-3.4437,-3.4463,-3.4476,-3.4437,-3.4397,-3.4397,-3.4397,-3.4397,-3.4397,-3.4397,-3.4397,-3.4397,-3.4397,-3.4397,-3.4397,-3.4319,-3.4241,-3.3966,-3.3666,-3.3666,-3.3313,-3.2986,-3.2698,-3.2594,-3.2589,-3.2778,-3.3071,-3.3438,-3.4025,-3.4797,-3.5014,-3.5463,-3.5619,-3.5995,-3.6239,-3.6611,-3.715,-3.7674,-3.8063]}]]